[[{"header":{"parameterUnit":"m.s-1","parameterCategory":1,"la1":30.6,"la2":29.2853,"lo1":-89.7004,"lo2":-87.6739,"dy":0.0162,"dx":0.0183,"nx":112,"ny":82,"refTime":"2023-08-30T18:00:00:Z","depth":0,"parameterNumber":2,"parameterNumberName":"U-component_of_WINDS"},"data":[0.0,0.0,0.0,0.0,0.0,0.0,0.0,0.0,0.0,0.0,0.0,0.0,0.0,0.0,0.0,0.0,0.0,0.0,0.0,0.0,0.0,0.0,0.0,0.0,0.0,0.0,0.0,0.0,0.0,0.0,0.0,0.0,0.0,0.0,0.0,0.0,0.0,0.0,0.0,0.0,0.0,0.0,0.0,0.0,0.0,0.0,0.0,0.0,0.0,0.0,0.0,0.0,0.0,0.0,0.0,0.0,0.0,0.0,0.0,0.0,0.0,0.0,0.0,0.0,0.0,0.0,0.0,0.0,0.0,0.0,0.0,0.0,0.0,0.0,0.0,0.0,0.0,0.0,0.0,0.0,0.0,0.0,0.0,0.0,0.0,0.0,0.0,0.0,0.0,0.0,2.7656,3.0493,3.4745,3.6698,3.4916,3.3896,3.0575,2.4045,0.0,0.0,0.0,0.0,0.0,0.0,0.0,0.0,0.0,0.0,0.0,0.0,0.0,0.0,0.0,0.0,0.0,0.0,0.0,0.0,0.0,0.0,0.0,0.0,0.0,0.0,0.0,0.0,0.0,0.0,0.0,0.0,0.0,0.0,0.0,0.0,0.0,0.0,0.0,0.0,0.0,0.0,0.0,0.0,0.0,0.0,0.0,0.0,0.0,0.0,0.0,0.0,0.0,0.0,0.0,0.0,0.0,0.0,0.0,0.0,0.0,0.0,0.0,0.0,0.0,0.0,0.0,0.0,0.0,0.0,0.0,0.0,0.0,0.0,0.0,0.0,0.0,0.0,0.0,0.0,0.0,0.0,0.0,0.0,0.0,0.0,0.0,0.0,0.0,0.0,0.0,0.0,0.0,0.0,0.0,0.0,0.0,0.0,0.0,0.0,0.0,0.0,0.0,0.0,2.9199,3.3834,3.5898,3.6492,3.5243,3.3085,2.9909,2.5362,0.0,0.0,0.0,0.0,0.0,0.0,0.0,0.0,0.0,0.0,0.0,0.0,0.0,0.0,0.0,0.0,0.0,0.0,0.0,0.0,0.0,0.0,0.0,0.0,0.0,0.0,0.0,0.0,0.0,0.0,0.0,0.0,0.0,0.0,0.0,0.0,0.0,0.0,0.0,0.0,0.0,0.0,0.0,0.0,0.0,0.0,0.0,0.0,0.0,0.0,0.0,0.0,0.0,0.0,0.0,0.0,0.0,0.0,0.0,0.0,0.0,0.0,0.0,0.0,0.0,0.0,0.0,0.0,0.0,0.0,0.0,0.0,0.0,0.0,0.0,0.0,0.0,0.0,0.0,0.0,0.0,0.0,0.0,0.0,0.0,0.0,0.0,0.0,0.0,0.0,0.0,0.0,0.0,0.0,0.0,0.0,0.0,0.0,0.0,0.0,0.0,0.0,0.0,2.8389,3.0975,3.6127,3.626,3.5769,3.5261,3.2747,2.9512,2.5581,2.2856,0.0,0.0,0.0,0.0,0.0,0.0,0.0,0.0,0.0,0.0,0.0,0.0,0.0,0.0,0.0,0.0,0.0,0.0,0.0,0.0,0.0,0.0,0.0,0.0,0.0,0.0,0.0,0.0,0.0,0.0,0.0,0.0,0.0,0.0,0.0,0.0,0.0,0.0,0.0,0.0,0.0,0.0,0.0,0.0,0.0,0.0,0.0,0.0,0.0,0.0,0.0,0.0,0.0,0.0,0.0,0.0,0.0,0.0,0.0,0.0,0.0,0.0,0.0,0.0,0.0,0.0,0.0,0.0,0.0,0.0,0.0,0.0,0.0,0.0,0.0,0.0,0.0,0.0,0.0,0.0,0.0,0.0,0.0,0.0,0.0,0.0,0.0,0.0,0.0,0.0,0.0,0.0,0.0,0.0,0.0,0.0,0.0,0.0,0.0,0.0,0.0,0.0,3.1317,3.2845,3.737,3.6496,3.5435,3.5057,3.233,2.9135,2.5564,2.2341,0.0,0.0,0.0,0.0,0.0,0.0,0.0,0.0,0.0,0.0,0.0,0.0,0.0,0.0,0.0,0.0,0.0,0.0,0.0,0.0,0.0,0.0,0.0,0.0,0.0,0.0,0.0,0.0,0.0,0.0,0.0,0.0,0.0,0.0,0.0,0.0,0.0,0.0,0.0,0.0,0.0,0.0,0.0,0.0,0.0,0.0,0.0,0.0,0.0,0.0,0.0,0.0,0.0,0.0,0.0,0.0,0.0,0.0,0.0,0.0,0.0,0.0,0.0,0.0,0.0,0.0,0.0,0.0,0.0,0.0,0.0,0.0,0.0,0.0,0.0,0.0,0.0,0.0,0.0,0.0,0.0,0.0,0.0,0.0,0.0,0.0,0.0,0.0,0.0,0.0,0.0,0.0,0.0,0.0,0.0,0.0,0.0,0.0,0.0,0.0,0.0,0.0,3.2842,3.4697,3.7189,3.7,3.6135,3.4651,3.1695,2.8582,2.5581,2.1816,0.0,0.0,0.0,0.0,0.0,0.0,0.0,0.0,0.0,0.0,0.0,0.0,0.0,0.0,0.0,0.0,0.0,0.0,0.0,0.0,0.0,0.0,0.0,0.0,0.0,0.0,0.0,0.0,0.0,0.0,0.0,0.0,0.0,0.0,0.0,0.0,0.0,0.0,0.0,0.0,0.0,0.0,0.0,0.0,0.0,0.0,0.0,0.0,0.0,0.0,0.0,0.0,0.0,0.0,0.0,0.0,0.0,0.0,0.0,0.0,0.0,0.0,0.0,0.0,0.0,0.0,0.0,0.0,0.0,0.0,0.0,0.0,0.0,0.0,0.0,0.0,0.0,0.0,0.0,0.0,0.0,0.0,0.0,0.0,0.0,0.0,0.0,0.0,0.0,0.0,0.0,0.0,0.0,0.0,0.0,0.0,0.0,0.0,0.0,0.0,0.0,0.0,3.2038,3.3615,3.7337,3.6316,3.4928,3.3897,3.1352,2.833,2.4943,0.0,0.0,0.0,0.0,0.0,0.0,0.0,0.0,0.0,0.0,0.0,0.0,0.0,0.0,0.0,0.0,0.0,0.0,0.0,0.0,0.0,0.0,0.0,0.0,0.0,0.0,0.0,0.0,0.0,0.0,0.0,0.0,0.0,0.0,0.0,0.0,0.0,0.0,0.0,0.0,0.0,0.0,0.0,0.0,0.0,0.0,0.0,0.0,0.0,0.0,0.0,0.0,0.0,0.0,0.0,0.0,0.0,0.0,0.0,0.0,0.0,0.0,0.0,0.0,0.0,0.0,0.0,0.0,0.0,0.0,0.0,0.0,0.0,0.0,0.0,0.0,0.0,0.0,0.0,0.0,0.0,0.0,0.0,0.0,0.0,0.0,0.0,0.0,0.0,0.0,0.0,0.0,0.0,0.0,0.0,0.0,0.0,0.0,0.0,0.0,0.0,0.0,3.1653,3.2273,3.3694,3.7499,3.6299,3.4726,3.3482,3.0982,2.7961,2.4476,0.0,0.0,0.0,0.0,0.0,0.0,0.0,0.0,0.0,0.0,0.0,0.0,0.0,0.0,0.0,0.0,0.0,0.0,0.0,0.0,0.0,0.0,0.0,0.0,0.0,0.0,0.0,0.0,0.0,0.0,0.0,0.0,0.0,0.0,0.0,0.0,0.0,0.0,0.0,0.0,0.0,0.0,0.0,0.0,0.0,0.0,0.0,0.0,0.0,0.0,0.0,0.0,0.0,0.0,0.0,0.0,0.0,0.0,0.0,0.0,0.0,0.0,0.0,0.0,0.0,0.0,0.0,0.0,0.0,0.0,0.0,0.0,0.0,0.0,0.0,0.0,0.0,0.0,0.0,0.0,0.0,0.0,0.0,0.0,0.0,0.0,0.0,0.0,0.0,0.0,0.0,0.0,0.0,0.0,0.0,0.0,0.0,0.0,0.0,0.0,0.0,0.0,3.2444,3.3932,3.5501,3.7652,3.7212,3.5797,3.3455,3.0471,2.7408,0.0,0.0,0.0,0.0,0.0,0.0,0.0,0.0,0.0,0.0,0.0,0.0,0.0,0.0,0.0,0.0,0.0,0.0,0.0,0.0,0.0,0.0,0.0,0.0,0.0,0.0,0.0,0.0,0.0,0.0,0.0,0.0,0.0,0.0,0.0,0.0,0.0,0.0,0.0,0.0,0.0,0.0,0.0,0.0,0.0,0.0,0.0,0.0,0.0,0.0,0.0,0.0,0.0,0.0,0.0,0.0,0.0,0.0,0.0,0.0,0.0,0.0,0.0,0.0,0.0,0.0,0.0,0.0,0.0,0.0,0.0,0.0,0.0,0.0,0.0,0.0,0.0,0.0,0.0,0.0,0.0,0.0,0.0,0.0,0.0,0.0,0.0,0.0,0.0,0.0,0.0,0.0,0.0,0.0,0.0,0.0,0.0,0.0,0.0,0.0,0.0,0.0,0.0,3.1645,3.3002,3.458,3.6874,3.5943,3.4209,3.1898,2.9379,2.635,2.2595,0.0,0.0,0.0,0.0,0.0,0.0,0.0,0.0,0.0,0.0,0.0,0.0,0.0,0.0,0.0,0.0,0.0,0.0,0.0,0.0,0.0,0.0,0.0,0.0,0.0,0.0,0.0,0.0,0.0,0.0,0.0,0.0,0.0,0.0,0.0,0.0,0.0,0.0,0.0,0.0,0.0,0.0,0.0,0.0,0.0,0.0,0.0,0.0,0.0,0.0,0.0,0.0,0.0,0.0,0.0,0.0,0.0,0.0,0.0,0.0,0.0,0.0,0.0,0.0,0.0,0.0,0.0,0.0,0.0,0.0,0.0,0.0,0.0,0.0,0.0,0.0,0.0,0.0,0.0,0.0,0.0,0.0,0.0,0.0,0.0,0.0,0.0,0.0,0.0,0.0,0.0,0.0,0.0,0.0,0.0,0.0,0.0,0.0,0.0,0.0,0.0,0.0,3.1694,3.2513,3.3835,3.6502,3.5402,3.3786,3.1967,2.924,2.6282,2.3191,0.0,0.0,0.0,0.0,0.0,0.0,0.0,0.0,0.0,0.0,0.0,0.0,0.0,0.0,0.0,0.0,0.0,0.0,0.0,0.0,0.0,0.0,0.0,0.0,0.0,0.0,0.0,0.0,0.0,0.0,0.0,0.0,0.0,0.0,0.0,0.0,0.0,0.0,0.0,0.0,0.0,0.0,0.0,0.0,0.0,0.0,0.0,0.0,0.0,0.0,0.0,0.0,0.0,0.0,0.0,0.0,0.0,0.0,0.0,0.0,0.0,0.0,0.0,0.0,0.0,0.0,0.0,0.0,0.0,0.0,0.0,0.0,0.0,0.0,0.0,0.0,0.0,0.0,0.0,0.0,0.0,0.0,0.0,0.0,0.0,0.0,0.0,0.0,0.0,0.0,0.0,0.0,0.0,0.0,0.0,0.0,0.0,0.0,0.0,0.0,0.0,0.0,3.2015,3.2201,3.3102,3.6163,3.5148,3.3862,3.2873,2.9537,2.6733,2.496,0.0,0.0,0.0,0.0,0.0,0.0,0.0,0.0,0.0,0.0,0.0,0.0,0.0,0.0,0.0,0.0,0.0,0.0,0.0,0.0,0.0,0.0,0.0,0.0,0.0,0.0,0.0,0.0,0.0,0.0,0.0,0.0,0.0,0.0,0.0,0.0,0.0,0.0,0.0,0.0,0.0,0.0,0.0,0.0,0.0,0.0,0.0,0.0,0.0,0.0,0.0,0.0,0.0,0.0,0.0,0.0,0.0,0.0,0.0,0.0,2.3628,2.0545,0.0,0.0,0.0,0.0,0.0,0.0,0.0,0.0,0.0,0.0,0.0,0.0,0.0,0.0,0.0,0.0,0.0,0.0,0.0,0.0,0.0,0.0,0.0,0.0,0.0,0.0,0.0,0.0,0.0,0.0,0.0,0.0,0.0,0.0,0.0,0.0,0.0,0.0,0.0,0.0,3.0551,3.1116,3.1965,3.3931,3.3204,3.2042,3.061,2.8089,2.5594,2.3276,2.1266,0.0,0.0,0.0,0.0,0.0,0.0,0.0,0.0,0.0,0.0,0.0,0.0,0.0,0.0,0.0,0.0,0.0,0.0,0.0,0.0,0.0,0.0,0.0,0.0,0.0,0.0,0.0,0.0,0.0,0.0,0.0,0.0,0.0,0.0,0.0,0.0,0.0,0.0,0.0,0.0,0.0,0.0,0.0,0.0,0.0,0.0,0.0,0.0,0.0,0.0,0.0,0.0,0.0,0.0,0.0,0.0,0.0,0.0,0.0,2.7734,2.4878,0.0,0.0,0.0,0.0,0.0,0.0,0.0,0.0,0.0,0.0,0.0,0.0,0.0,0.0,0.0,0.0,0.0,0.0,0.0,0.0,0.0,0.0,0.0,0.0,0.0,0.0,0.0,0.0,0.0,0.0,0.0,0.0,0.0,0.0,0.0,0.0,0.0,0.0,0.0,0.0,2.9926,3.0319,3.0989,3.2744,3.2174,3.1106,2.9723,2.7679,2.5622,2.3648,2.1858,0.0,0.0,0.0,0.0,0.0,0.0,0.0,0.0,0.0,0.0,0.0,0.0,0.0,0.0,0.0,0.0,0.0,0.0,0.0,0.0,0.0,0.0,0.0,0.0,0.0,0.0,0.0,0.0,0.0,0.0,0.0,0.0,0.0,0.0,0.0,0.0,0.0,0.0,0.0,0.0,0.0,0.0,0.0,0.0,0.0,0.0,0.0,0.0,0.0,0.0,0.0,0.0,0.0,3.5256,3.6271,3.6494,3.6518,3.6989,3.7523,3.2596,3.0632,3.0713,2.8152,0.0,0.0,0.0,0.0,0.0,0.0,0.0,0.0,0.0,0.0,0.0,0.0,0.0,0.0,0.0,0.0,0.0,0.0,0.0,0.0,0.0,0.0,2.5842,2.7051,2.8366,2.836,2.4654,0.0,0.0,0.0,0.0,0.0,0.0,0.0,0.0,0.0,0.0,0.0,2.9522,2.9549,2.9972,3.1785,3.1193,3.0238,2.9074,2.7412,2.5859,2.4563,2.27,2.1294,0.0,0.0,0.0,0.0,0.0,0.0,0.0,0.0,0.0,0.0,0.0,0.0,0.0,0.0,0.0,0.0,0.0,0.0,0.0,0.0,0.0,0.0,0.0,0.0,0.0,0.0,0.0,0.0,0.0,0.0,0.0,0.0,2.4975,2.5091,0.0,0.0,0.0,0.0,0.0,0.0,0.0,0.0,0.0,0.0,0.0,0.0,0.0,3.2486,3.3744,3.6494,3.7553,3.6877,4.0021,4.0873,3.9777,4.0375,4.1,4.172,4.0901,0.0,3.3702,3.2133,0.0,0.0,0.0,0.0,0.0,0.0,0.0,0.0,0.0,0.0,0.0,0.0,0.0,0.0,0.0,0.0,0.0,0.0,0.0,0.0,0.0,0.0,3.2167,3.2232,3.21,3.1506,2.9957,2.742,2.5004,2.3488,2.2834,2.2145,0.0,0.0,0.0,0.0,0.0,0.0,2.8696,2.8434,2.8649,3.0238,2.9302,2.8259,2.7471,2.5989,2.4946,2.4547,2.3323,2.2184,2.1197,2.0735,0.0,0.0,0.0,0.0,0.0,0.0,0.0,0.0,0.0,0.0,0.0,0.0,0.0,0.0,0.0,0.0,0.0,0.0,0.0,0.0,0.0,0.0,0.0,0.0,0.0,0.0,0.0,0.0,0.0,2.5214,2.706,2.5244,2.6865,2.6988,0.0,0.0,0.0,0.0,0.0,0.0,0.0,0.0,0.0,3.4471,3.6241,3.7659,3.8681,4.0875,4.17,4.1295,4.3767,4.4423,4.3446,4.4175,4.4671,4.497,4.4706,4.3069,4.0199,3.6421,3.3316,3.0683,0.0,0.0,0.0,0.0,2.7764,2.8254,3.1582,3.1899,3.0855,3.0918,0.0,0.0,0.0,0.0,0.0,0.0,0.0,2.7603,2.9622,3.1426,3.2918,3.381,3.3904,3.3648,3.2708,3.086,2.861,2.6046,2.531,2.4606,2.3063,2.3424,0.0,0.0,0.0,2.6677,2.8514,2.8569,2.8777,2.9579,2.8465,2.7314,2.6318,2.5567,2.4632,2.3438,2.3401,2.2905,2.181,2.1082,2.0205,0.0,0.0,0.0,0.0,0.0,0.0,0.0,0.0,0.0,0.0,0.0,0.0,0.0,0.0,0.0,0.0,0.0,0.0,0.0,0.0,0.0,0.0,0.0,0.0,0.0,0.0,0.0,0.0,2.7825,2.9717,2.6572,2.9729,3.0425,0.0,0.0,0.0,0.0,0.0,0.0,3.4521,3.5762,3.7452,3.9778,4.0994,4.2167,4.3309,4.4415,4.4984,4.5163,4.6618,4.6962,4.637,4.6797,4.6962,4.6897,4.6602,4.6109,4.518,4.0336,3.7073,3.4897,3.2125,3.0915,3.0863,3.1631,3.216,3.3117,3.7175,3.7785,3.6769,3.687,3.514,3.2605,3.023,0.0,0.0,0.0,0.0,2.9648,3.2412,3.3148,3.3567,3.5185,3.561,3.5449,3.4743,3.365,3.1871,2.8758,2.7873,2.7137,2.5644,2.5561,0.0,2.5864,2.6587,2.7522,2.8608,2.8788,2.8872,2.9027,2.7867,2.6716,2.5706,2.5319,2.4468,2.3003,2.3375,2.3299,2.2547,2.1591,2.0936,2.0646,0.0,0.0,0.0,0.0,0.0,0.0,0.0,0.0,0.0,0.0,0.0,0.0,0.0,0.0,0.0,0.0,0.0,0.0,0.0,0.0,0.0,0.0,0.0,0.0,0.0,0.0,0.0,0.0,0.0,3.0935,3.4205,0.0,0.0,0.0,0.0,3.4093,3.5399,3.7145,3.9613,4.0376,4.1933,4.4749,4.4595,4.5435,4.7518,4.7348,4.7412,4.7712,4.8197,4.8197,4.7751,4.7515,4.7221,4.6896,4.6896,4.6657,4.6019,4.3331,4.0642,3.8026,3.6539,3.5568,3.5199,3.5989,3.719,3.8537,3.9627,3.9698,3.9074,3.7435,3.4764,3.2493,3.4341,3.3287,0.0,0.0,3.2303,3.3335,3.5148,3.5722,3.6179,3.7728,3.7751,3.7175,3.6421,3.5173,3.3561,3.1428,2.9927,2.8774,2.8116,0.0,2.9034,2.8112,2.8694,2.9204,2.8996,2.8543,2.8286,2.835,2.7319,2.6366,2.5659,2.5001,2.4446,2.4059,2.3284,2.3081,2.3591,2.2852,2.1812,2.0509,2.0499,0.0,0.0,0.0,0.0,0.0,0.0,0.0,0.0,0.0,0.0,0.0,0.0,0.0,0.0,0.0,0.0,0.0,0.0,0.0,0.0,0.0,0.0,0.0,0.0,0.0,0.0,0.0,0.0,3.4961,3.8471,0.0,3.6189,3.7215,3.8448,3.921,4.086,4.2778,4.4976,4.5754,4.6935,4.8914,4.9251,4.9282,4.9178,4.9793,4.9496,4.8224,4.9127,4.9167,4.8609,4.8021,4.7626,4.754,4.6775,4.6442,4.6221,4.5123,4.3524,4.1661,4.029,3.9572,3.9486,4.0162,4.0813,4.1434,4.2111,4.1981,4.1231,3.9139,3.7003,3.5302,3.5522,3.5064,3.4476,3.5024,3.5448,3.6037,3.7106,3.7206,3.7106,3.7658,3.7642,3.7401,3.7148,3.6342,3.5442,3.4715,3.2345,3.0243,2.9595,2.9533,2.936,2.8745,2.9213,2.9627,2.9778,2.9404,2.9109,2.9146,2.7585,2.6318,2.5674,2.4597,2.3591,2.2672,2.2385,2.213,2.1978,2.171,2.1809,2.2419,2.2014,2.1148,0.0,0.0,0.0,0.0,0.0,0.0,0.0,0.0,0.0,0.0,0.0,0.0,0.0,0.0,0.0,0.0,0.0,0.0,0.0,0.0,0.0,0.0,0.0,0.0,0.0,3.7009,4.0076,3.8867,4.243,4.3718,4.0456,4.2125,4.3667,4.4214,4.5848,4.7545,4.9205,4.9694,5.0484,5.1654,5.2055,5.1944,5.1338,5.1487,5.0927,4.9639,4.978,4.956,4.8914,4.8353,4.7886,4.7485,4.6789,4.6311,4.6104,4.5864,4.527,4.4306,4.3105,4.2789,4.3047,4.3195,4.3444,4.3717,4.3781,4.3293,4.2427,4.0745,3.9094,3.7752,3.7397,3.7151,3.6982,3.7288,3.7443,3.7656,3.7971,3.7786,3.748,3.748,3.748,3.748,3.748,3.6983,3.6397,3.6236,3.4053,3.2057,3.1498,3.0912,3.0448,3.0049,3.0228,3.0392,3.0418,3.0096,2.9819,2.9609,2.8188,2.6901,2.6019,2.5002,2.3829,2.2398,2.2064,2.194,2.2017,2.1348,2.1741,2.3264,2.2873,2.2077,2.0905,0.0,0.0,0.0,0.0,0.0,0.0,0.0,0.0,0.0,0.0,0.0,0.0,0.0,0.0,0.0,0.0,0.0,0.0,0.0,0.0,0.0,0.0,0.0,3.5582,4.0641,4.4002,4.273,4.6096,4.7444,4.4676,4.6618,4.8351,4.8999,5.0374,5.1448,5.2065,5.2144,5.2475,5.3155,5.2904,5.3257,5.4087,5.2506,5.1805,5.2017,5.0388,4.94,4.892,4.862,4.7903,4.6866,4.6819,4.6439,4.5871,4.5855,4.5839,4.5776,4.5033,4.5175,4.5728,4.5017,4.5175,4.5627,4.4564,4.3504,4.2544,4.2064,4.0788,3.9518,4.0038,3.9764,3.9094,3.8528,3.8343,3.8173,3.7673,3.7496,3.748,3.748,3.748,3.748,3.748,3.7029,3.6461,3.5856,3.4977,3.4187,3.3758,3.3098,3.2484,3.2099,3.1826,0.0,3.0951,3.0648,3.0283,2.9669,2.9011,2.8068,2.6737,2.6288,2.5258,2.3408,2.2398,2.2491,2.3861,2.2024,2.1593,2.2896,2.2896,2.2476,2.171,0.0,0.0,0.0,0.0,0.0,0.0,0.0,0.0,0.0,0.0,0.0,0.0,0.0,0.0,0.0,0.0,0.0,0.0,0.0,0.0,0.0,3.7041,4.0404,4.136,4.5033,4.7977,4.8893,5.041,5.1231,5.0707,5.1735,5.2475,5.2649,5.4435,5.5146,5.4324,5.5241,5.5414,5.4609,5.4964,5.4908,5.4103,5.4109,5.3666,5.2791,5.2305,5.1498,5.0374,4.9741,4.9045,4.8256,4.7245,4.7008,4.7277,4.6755,4.6534,4.6455,4.5776,4.5634,4.5792,4.5586,4.5001,4.4243,4.3917,4.2984,4.1892,4.174,4.1024,4.0323,4.0432,3.9966,3.939,3.9224,3.8814,3.8432,3.8283,3.7602,3.6907,3.6907,3.6631,3.6368,3.6368,3.6243,3.6072,3.5873,3.5263,3.4528,3.3951,3.3135,3.2687,3.317,3.2182,3.1571,3.1987,3.112,3.0503,3.0448,2.941,2.8387,2.753,2.6012,2.4567,2.3378,2.2123,2.1521,2.1804,2.1289,2.1625,2.2939,2.2593,2.2403,0.0,0.0,0.0,0.0,0.0,0.0,0.0,0.0,0.0,0.0,0.0,0.0,0.0,0.0,0.0,0.0,0.0,0.0,0.0,0.0,0.0,0.0,4.153,4.5346,4.7421,4.9325,5.1257,5.3501,5.3991,5.428,5.4767,5.5446,5.5841,5.5841,5.6694,5.6868,5.6046,5.6505,5.6536,5.6031,5.6287,5.6239,5.5841,5.5542,5.5051,5.4387,5.3534,5.2665,5.1843,5.0832,4.9979,4.9268,4.8162,4.7751,4.7846,4.7103,4.6803,4.6755,0.0,0.0,0.0,0.0,4.5302,4.4512,4.3927,4.3169,4.2378,4.1778,4.1146,4.0546,4.023,3.9835,3.9376,3.8807,3.8586,3.8444,3.8144,3.7402,3.6723,3.6723,3.6321,3.5913,3.5913,3.5737,3.5608,3.5608,3.51,0.0,3.4178,3.3406,3.3036,3.341,3.2721,3.2273,3.2556,3.2122,3.1717,3.1504,3.0543,2.9537,2.8606,2.6748,0.0,0.0,0.0,2.1624,2.1222,2.158,0.0,0.0,0.0,2.2902,2.3282,2.2483,0.0,0.0,2.112,2.0806,0.0,0.0,0.0,0.0,0.0,0.0,0.0,0.0,0.0,0.0,0.0,0.0,0.0,0.0,0.0,0.0,4.6437,5.0342,5.3186,5.32,5.3943,5.6511,5.6629,5.6694,5.739,5.8022,5.8385,5.8385,5.7958,5.7627,5.7469,5.6947,0.0,0.0,0.0,5.7217,5.804,5.6541,5.5875,5.6068,5.423,5.3269,5.3002,5.1726,5.0686,4.9836,4.9221,4.859,4.8067,4.734,4.704,4.7008,4.6787,4.6376,4.5918,4.5839,4.576,4.5507,4.418,0.0,0.0,4.2031,4.1193,4.0593,3.9929,3.974,3.9487,3.8286,3.8333,3.8586,3.7831,3.7201,3.6693,3.6538,3.6117,3.5721,3.5721,3.5415,3.5103,3.5103,3.4735,3.4414,3.4414,3.3888,3.3466,3.3369,3.3342,3.3168,3.2796,3.3126,3.3065,3.2408,3.1825,0.0,2.9684,2.8011,2.6291,2.4587,2.3391,2.2408,2.1676,2.2469,2.2918,2.2959,2.3299,2.3671,2.412,2.4426,2.4467,2.4256,2.1675,2.1075,0.0,0.0,0.0,0.0,0.0,0.0,0.0,0.0,0.0,0.0,0.0,0.0,0.0,0.0,0.0,4.5693,4.9676,5.3265,5.6031,5.5914,5.5882,5.6974,5.7607,5.8148,5.8843,5.9017,5.9112,5.9112,6.0028,6.0091,5.8954,5.9286,5.9317,5.8922,5.7731,5.684,5.6529,5.6118,5.5717,5.5345,5.4837,0.0,5.2999,5.207,5.098,4.9874,4.9159,4.9043,4.9473,4.8778,4.8478,4.832,4.6661,4.625,4.655,4.6013,4.5428,4.4812,4.4006,4.3358,4.2742,4.1873,4.1494,4.1367,4.1225,4.1178,0.0,4.0862,4.0498,3.9961,3.8809,3.7756,3.6691,3.5759,3.5103,3.4654,3.4654,3.4601,3.4534,3.4534,3.4481,3.4414,3.4414,3.409,3.4011,3.4463,3.378,3.3193,3.3212,3.2657,3.2093,3.1604,3.1352,3.0743,2.9476,2.8432,2.7262,2.5766,2.44,2.336,2.2643,2.2805,2.304,2.3314,2.3586,2.3872,2.412,2.4385,2.4441,2.4302,2.3723,2.3615,0.0,0.0,0.0,0.0,0.0,0.0,0.0,0.0,0.0,0.0,0.0,3.5561,3.9033,0.0,4.5873,5.0071,5.2974,5.5256,5.6979,5.7532,5.7753,5.7753,5.8069,5.8669,5.9696,5.9807,5.9949,6.0329,6.0258,6.0148,5.9839,5.9724,5.9718,5.9734,5.8332,5.7402,5.6981,5.6267,5.5597,5.4972,5.4592,5.3891,5.2917,5.153,5.0525,4.9864,4.9171,4.905,4.9358,4.9001,4.8889,4.8715,4.6977,4.6503,4.6724,4.606,4.5586,4.5159,4.4448,4.399,4.3579,4.2884,4.2426,4.2062,4.1699,4.1588,4.138,4.041,3.9922,3.9386,3.8169,3.696,3.5979,3.5309,3.4787,3.4414,3.4414,3.4414,3.4414,3.4414,3.4414,3.4414,3.4414,3.4353,3.4449,3.4758,3.4375,3.3972,3.3661,3.3273,3.2753,3.2211,3.2152,3.1693,3.0761,2.9013,2.729,2.5544,2.4476,2.3746,2.3426,2.3062,2.2978,2.3127,2.3436,2.3638,2.3696,2.3867,2.3909,2.3797,2.3653,2.3739,0.0,0.0,0.0,0.0,0.0,0.0,0.0,3.0911,3.2353,3.583,3.7976,4.0641,4.5333,4.7458,4.9852,5.3834,5.5794,5.6994,5.7548,5.8717,5.9192,5.8546,5.8593,5.9097,6.02,6.0226,6.038,6.0834,5.9849,5.9517,6.0192,5.9477,5.9309,6.0003,5.8485,5.7564,5.7489,5.6108,5.5174,5.4691,5.3953,5.335,5.2831,5.0924,4.999,4.9836,4.919,4.8929,4.8856,4.8731,4.8671,4.8624,4.746,4.6969,4.6748,4.6034,4.5807,4.5697,4.497,4.4717,4.4591,4.3785,4.3068,4.2401,4.1677,4.1374,4.0939,3.9369,3.8943,3.8723,3.744,3.6469,3.5674,3.5289,3.4911,3.4559,3.4443,3.4414,3.4414,3.4414,3.4264,3.4182,3.4182,3.4332,3.4481,3.4698,3.4817,3.4633,3.3986,3.3912,3.3618,3.2761,3.2922,3.2702,3.1806,2.9446,2.7176,2.5183,2.4559,2.4196,2.408,2.3586,2.3221,2.3091,2.3407,2.3511,2.3319,2.3421,2.3421,2.3348,2.2979,2.3068,2.6532,2.6912,2.9361,3.2641,3.375,3.555,0.0,4.1564,4.139,4.4716,4.6529,4.8143,5.001,5.2428,5.4593,5.5762,5.7642,5.8985,5.9064,5.9712,5.9867,5.9109,5.9539,5.9958,6.0229,6.006,5.9753,5.9219,5.9573,5.9877,5.9982,5.9283,5.9164,5.9864,5.7303,5.5931,5.5975,5.4464,5.3789,5.3863,5.3084,5.2803,5.28,5.1263,5.0279,4.9741,4.9143,4.889,4.8887,4.8232,4.805,4.7973,4.7827,4.7386,4.6749,4.6045,4.5807,4.5697,4.497,4.4717,4.4496,4.3216,4.2369,4.179,4.1137,4.0493,4.0069,3.9862,3.9747,3.9525,3.8302,3.7883,3.7401,3.5795,3.5325,3.5111,3.453,3.4414,3.4414,3.4414,3.3811,3.3297,3.3297,3.3367,3.3659,3.4563,3.4698,3.4449,3.3841,3.3652,3.3056,3.182,3.2736,3.2693,3.0889,2.945,2.7792,2.5807,2.5618,2.5328,2.4699,2.4689,2.4399,2.3789,2.4145,2.394,2.3319,2.3625,2.3696,2.3551,2.2875,2.2694,3.0923,3.1498,3.316,3.6011,3.8106,4.0261,4.339,4.4155,4.5104,4.8509,5.0974,5.2949,5.4356,5.6236,5.7785,5.8464,5.9317,5.9886,5.9886,5.9379,5.8774,5.8111,5.7381,5.7588,5.9272,5.8644,5.8362,5.8817,5.8339,5.8204,5.8741,5.8022,5.7693,5.7978,5.6512,5.5486,5.499,5.4045,5.3404,5.307,5.2399,5.1874,5.1502,5.0198,4.9194,4.8624,4.7984,4.7936,4.8309,4.7988,4.7904,4.7927,4.7931,4.7477,4.6733,4.6501,4.6139,4.5687,4.4961,4.4778,4.4611,4.3685,4.2928,4.2322,4.1648,4.1031,4.0349,3.9613,3.9137,3.8635,3.7826,3.7329,3.6746,3.5645,3.5427,3.5183,3.4545,3.4414,3.4414,3.4414,3.3742,3.3213,3.3213,3.2861,3.2875,3.3673,3.4264,3.4593,3.468,3.3667,3.2556,3.1613,3.2004,3.1845,3.0669,2.974,2.8565,2.7012,2.6199,2.5662,2.54,2.5052,2.4733,2.4486,2.4221,2.3978,2.3668,2.3273,2.3083,2.2994,2.2526,2.2402,3.3502,3.4968,3.6611,3.9281,4.2489,4.5207,4.6108,4.7387,4.9252,5.2349,5.4403,5.6077,5.7472,5.842,5.916,5.9949,6.017,6.0297,6.0297,5.9012,5.7859,5.7001,5.5107,5.4783,5.6869,5.6539,5.6659,5.7768,5.6897,5.6702,5.7693,5.6837,5.6415,5.6607,5.5809,5.5096,5.4517,5.3849,5.3283,5.2818,5.2006,5.1381,5.0888,4.9582,4.8741,4.8357,4.7465,4.742,4.782,4.7467,4.7321,4.7362,4.7555,4.7068,4.6306,4.647,4.6147,4.5395,4.4752,4.451,4.4479,4.3853,4.3045,4.2304,4.1595,4.0798,3.9978,3.9077,3.8516,3.8002,3.7608,3.7201,3.6635,3.5822,3.5619,3.5401,3.4588,3.4264,3.4045,3.4045,3.3227,3.2563,3.2563,3.2132,3.1928,3.2492,3.3451,3.4355,3.5038,3.3746,3.26,3.2106,3.1903,3.1467,3.064,3.0147,2.9334,2.8071,2.6939,2.6315,2.6315,2.5705,2.5299,2.5139,2.466,2.4326,2.4152,2.3374,2.2965,2.2965,2.2502,2.2324,3.2222,3.5259,3.8397,4.2537,4.7166,5.1085,5.2507,5.3866,5.5462,5.7611,5.7434,5.7399,5.8908,5.8574,5.8301,5.9239,5.987,6.0297,6.0297,5.9108,5.7746,5.6206,5.3594,5.2171,5.2748,5.3896,5.4871,5.5496,5.5416,5.5939,5.7285,5.607,5.5707,5.636,5.517,5.4517,5.4517,5.3849,5.35,5.3471,5.2223,5.1614,5.1541,5.0249,4.9662,4.9645,4.836,4.7794,4.7674,4.6473,4.597,4.606,4.6638,4.6085,4.501,4.5722,4.543,4.4737,4.4143,4.3927,4.3821,4.3168,4.2137,4.1022,4.0248,3.9238,3.8292,3.8202,3.8188,3.8173,3.8173,3.8159,3.7839,3.6577,3.6272,3.5938,3.4675,3.3811,3.3227,3.3227,3.1988,3.0957,3.0957,3.097,3.097,3.097,3.2277,3.352,3.4361,3.3862,3.3427,3.3412,3.2861,3.1961,3.0684,3.0553,3.0001,2.8739,2.8028,2.761,2.761,2.707,2.6416,2.5778,2.5734,2.5415,2.4757,2.4167,2.3862,2.3847,2.2994,2.2615,3.576,4.0007,4.467,4.8904,5.2207,5.4925,5.6789,5.7088,5.7214,5.801,5.5953,5.416,5.4789,5.4286,5.4293,5.6136,5.77,5.8993,5.9461,5.8185,5.6229,5.3609,5.1979,5.0701,4.9577,5.1338,5.321,5.4705,5.44,5.4531,5.5402,5.4618,5.4255,5.4487,5.4067,5.3849,5.3849,5.3631,5.3515,5.35,5.2223,5.1164,5.0307,4.9436,4.9024,4.9033,4.7701,4.7105,4.7026,4.6232,4.588,4.5927,4.6166,4.5699,4.4882,4.4684,4.4208,4.36,4.3379,4.3015,4.2608,4.2465,4.1777,4.1032,4.0812,4.013,3.9378,3.8986,3.8551,3.8202,3.8202,3.8202,3.7984,3.7172,3.6635,3.6083,3.5227,3.4111,3.3213,3.3213,3.1974,3.0895,3.0895,3.0482,3.0343,3.082,3.2105,3.3406,3.4322,3.3776,3.3339,3.3514,3.2498,3.1671,3.1235,3.0422,2.9755,2.9334,2.871,2.8173,2.7752,2.7534,2.7099,2.646,2.601,2.5473,2.4785,2.4196,2.3673,2.3207,2.2944,2.2797,4.0858,4.5309,4.9679,5.3897,5.6136,5.7636,5.8875,5.8375,5.754,5.7408,5.4357,5.1756,5.1755,5.0723,5.0419,5.2015,5.3648,5.524,5.6664,5.5129,5.336,5.1973,5.0793,4.9582,4.858,4.9959,5.1643,5.3355,5.35,5.3805,5.4473,5.3878,5.3631,5.3863,5.3631,5.3515,5.3515,5.3297,5.2949,5.2484,5.1672,5.0714,4.9669,4.9248,4.8943,4.8667,4.7622,4.7042,4.678,4.6142,4.588,4.5912,4.5668,4.5179,4.4531,4.3882,4.3234,4.2688,4.2688,4.2423,4.2063,4.2111,4.1642,4.1062,4.0815,4.0292,3.9654,3.903,3.8536,3.8202,3.8202,3.8202,3.8043,3.7447,3.6794,3.6199,3.5793,3.42,3.286,3.3068,3.171,3.0482,3.0482,3.0343,3.057,3.1549,3.2018,3.2581,3.3437,3.3802,3.3756,3.3116,3.2775,3.2266,3.1584,3.0771,3.0205,2.9972,2.9363,2.884,2.8419,2.8187,2.7766,2.7128,2.6707,2.5951,2.4855,2.4287,2.3545,2.2682,2.2455,2.2463,4.7087,5.0706,5.336,5.7421,5.8811,5.9176,5.9077,5.7909,5.6677,5.5842,5.2725,4.9986,4.9588,4.7834,4.6742,4.7449,4.8382,5.0005,5.2483,5.0514,4.9599,5.1646,5.008,4.9117,4.9712,4.977,5.0293,5.1527,5.276,5.3762,5.4429,5.3892,5.3834,5.4444,5.3849,5.3515,5.3515,5.2891,5.1947,5.0728,5.0685,5.0307,4.9625,4.9625,4.9277,4.8638,4.7999,4.739,4.678,4.6142,4.5866,4.5764,4.5097,4.4472,4.3863,4.3195,4.2586,4.2092,4.2092,4.2078,4.2049,4.2092,4.1613,4.0931,4.0321,3.9712,3.9073,3.8434,3.8231,3.8202,3.8202,3.8202,3.8057,3.7491,3.6838,3.6344,3.6315,3.414,3.2291,3.282,3.1237,2.9792,2.9792,3.0419,3.1476,3.2932,3.1915,3.1281,3.2155,3.3959,3.4464,3.2609,3.3622,3.3622,3.1647,3.1521,3.1279,3.0611,3.0001,2.9668,2.9624,2.9044,2.8419,2.7683,2.7639,2.6759,2.4934,2.4315,2.3431,2.2297,2.1738,2.1718,5.0844,5.4553,5.7758,5.9258,5.9725,5.9672,5.9134,5.7402,5.5295,5.2556,4.7827,4.3858,4.286,4.2685,4.3541,4.6268,4.9494,5.2304,5.3984,5.3518,5.2822,5.2398,5.1468,5.0757,5.0452,5.0859,5.1265,5.1599,5.2354,5.3094,5.3733,5.4081,5.411,5.3776,5.3602,5.3515,5.3515,5.2891,5.2165,5.1381,5.0902,5.0075,4.8957,4.8957,4.8624,4.7985,4.7346,4.6983,4.678,4.6142,4.559,4.5082,4.4458,4.3819,4.3166,4.2557,4.2223,4.2092,4.2092,4.1773,4.1439,4.1932,4.1308,4.0408,4.0742,4.0075,3.916,3.8986,3.8594,3.8202,3.8202,3.8202,3.8159,3.8014,3.7506,3.6925,3.6417,3.4478,3.2643,3.2359,3.0963,2.9792,2.9792,3.0934,3.1928,3.229,3.2492,3.3038,3.4099,3.3268,3.3022,3.3949,3.4102,3.3382,3.1337,3.1838,3.1584,2.9941,3.0168,3.0118,2.9639,2.9464,2.8855,2.7697,2.6852,2.5753,2.4352,2.3252,2.2594,2.2205,2.2052,2.2263,5.5311,5.787,5.9761,6.0423,5.9845,5.8465,5.6083,5.4221,5.1661,4.7294,4.3265,4.01,3.9062,3.9087,4.0124,4.2707,4.6048,4.9088,5.155,5.1795,5.2005,5.2484,5.2252,5.1904,5.1541,5.1831,5.2151,5.2426,5.2775,5.3138,5.3486,5.3878,5.3907,5.353,5.3515,5.3239,5.2688,5.2064,5.141,5.0757,5.0119,4.9436,4.8711,4.8435,4.7956,4.7346,4.6983,4.6679,4.6388,4.6026,4.5488,4.4821,4.4226,4.3587,4.2919,4.2324,4.2092,4.2092,4.2092,4.1845,4.1599,4.1976,4.1381,4.0517,4.0474,3.9805,3.8859,3.8446,3.7901,3.7579,3.7919,3.7859,3.772,3.8127,3.7738,3.7273,3.7172,3.5204,3.3161,3.1817,3.1145,3.0797,3.0797,3.1796,3.272,3.303,3.3157,3.3423,3.4007,3.3238,3.2731,3.3031,3.3622,3.3138,3.0961,3.1263,3.0946,2.9693,2.9931,3.0093,3.006,2.9734,2.9142,2.8097,2.6918,2.5591,2.4122,2.3402,2.2668,2.1839,2.2131,2.2376,5.9128,6.0048,6.0213,6.0697,5.9168,5.6318,5.1891,4.9808,4.7154,4.1495,3.9098,3.7751,3.686,3.6819,3.7491,3.9206,4.1532,4.4457,4.819,4.8673,4.9691,5.2558,5.2673,5.2644,5.2818,5.2746,5.2963,5.3602,5.3573,5.3515,5.3515,5.3602,5.3573,5.3399,5.3384,5.2818,5.1628,5.0989,5.038,4.9799,4.9161,4.8769,4.858,4.8029,4.739,4.6708,4.6708,4.6388,4.588,4.588,4.5445,4.4719,4.4197,4.3529,4.2818,4.2281,4.2092,4.2092,4.2092,4.2092,4.2092,4.2092,4.1502,4.0651,3.9968,3.9144,3.8241,3.7504,3.7012,3.6893,3.7571,3.7428,3.7246,3.8037,3.7796,3.7549,3.7984,3.6039,3.3553,3.1447,3.1636,3.2074,3.2074,3.272,3.3367,3.3977,3.352,3.2985,3.2705,3.3238,3.2961,3.125,3.2701,3.2799,3.0502,3.0389,3.0118,2.9491,2.954,2.9808,3.0312,2.987,2.9265,2.8465,2.7344,2.5907,2.4234,2.4227,2.3407,2.1785,2.2366,2.2588,5.8843,5.9494,5.9743,5.9225,5.754,5.4996,5.0449,4.7389,4.3841,3.8137,3.6425,3.5535,3.425,3.6256,3.8973,4.1487,4.4183,4.7165,5.0519,5.0595,5.1264,5.3863,5.3225,5.2992,5.4067,5.3675,5.3631,5.4299,5.382,5.3515,5.3515,5.4038,5.3849,5.2775,5.2731,5.2368,5.1628,5.0989,5.0612,5.0496,4.9828,4.8957,4.7941,4.784,4.7143,4.6055,4.6055,4.5996,4.588,4.588,4.5198,4.4139,4.4037,4.3282,4.2237,4.2136,4.2092,4.2092,4.2092,4.2092,4.2092,4.2092,4.0857,3.9318,3.9578,3.8339,3.6975,3.7213,3.7442,3.7571,3.7732,3.7898,3.8037,3.8127,3.813,3.7941,3.7549,3.5753,3.377,3.2196,3.2001,3.2074,3.2074,3.272,3.3003,3.2591,3.2376,3.2042,3.1325,3.1777,3.2045,3.2016,3.2564,3.2306,3.07,3.0904,3.0389,2.8663,2.9178,2.9359,2.8876,2.9345,2.9018,2.7803,2.7189,2.6231,2.4851,2.4968,2.4517,2.3654,2.4259,2.4212,5.9512,5.9319,5.9072,5.8312,5.609,5.2541,4.6682,4.3604,4.0173,3.4053,3.3355,3.3654,3.326,3.5269,3.7762,4.0355,4.2408,4.4867,4.8483,4.912,5.0133,5.2702,5.2746,5.2818,5.3442,5.3515,5.3515,5.35,5.3515,5.366,5.4009,5.4009,5.3559,5.2601,5.2252,5.1773,5.1135,5.0481,4.9988,4.9654,4.9001,4.8203,4.7274,4.694,4.6461,4.588,4.588,4.588,4.588,4.588,4.514,4.3993,4.3993,4.321,4.2092,4.2092,4.2092,4.2009,4.1535,4.1339,4.1254,4.0731,4.0027,3.9312,3.9391,3.8165,3.6824,3.7422,3.7203,3.7096,3.8017,3.789,3.7644,3.8127,3.8202,3.8028,3.7433,3.623,3.4853,3.3487,3.3254,3.3171,3.272,3.3311,3.352,3.2791,3.2648,3.2205,3.1044,3.113,3.1228,3.0964,3.136,3.1108,2.9804,2.9683,2.9248,2.8386,2.8451,2.8712,2.903,2.8712,2.8375,2.8098,2.6945,2.617,2.5873,2.5962,2.552,2.4554,2.5517,2.5229,5.9289,5.8718,5.8143,5.7616,5.4668,5.0228,4.3463,4.0278,3.6914,3.0856,3.0791,3.1997,3.2395,3.377,3.5581,3.7973,3.935,4.1495,4.5605,4.6871,4.837,5.1265,5.1947,5.2325,5.2731,5.3094,5.3152,5.2804,5.3109,5.3544,5.4067,5.3588,5.2963,5.2194,5.1541,5.0902,5.0264,4.9596,4.9016,4.8522,4.8029,4.7448,4.6809,4.6316,4.6011,4.588,4.588,4.588,4.588,4.5721,4.501,4.3979,4.3834,4.3094,4.2092,4.1814,4.1814,4.1633,4.0617,4.0332,4.0159,3.9461,3.9166,3.9054,3.8945,3.7814,3.6664,3.7391,3.6957,3.6625,3.8117,3.7845,3.7337,3.8037,3.8202,3.7999,3.7259,3.6678,3.5927,3.4498,3.4321,3.4196,3.3589,3.3962,3.4113,3.3297,3.3073,3.2492,3.1106,3.0758,3.0406,2.9856,3.0181,3.0131,2.9352,2.8561,2.8113,2.8291,2.7795,2.7999,2.9093,2.826,2.7913,2.8344,2.7053,2.6444,2.6717,2.7015,2.6564,2.5307,2.6453,2.6025,5.6314,5.7105,5.727,5.6659,5.3256,4.8566,4.333,3.8931,3.4667,2.9931,2.9722,3.0401,3.0464,3.1615,3.3278,3.5413,3.6921,3.9419,4.4122,4.5386,4.7298,5.1106,5.1164,5.1527,5.3254,5.2963,5.2876,5.3384,5.2949,5.2688,5.2746,5.2688,5.2107,5.0888,5.0235,4.9582,4.8914,4.8275,4.7927,4.7869,4.7811,4.7448,4.6824,4.6766,4.6432,4.588,4.588,4.588,4.5837,4.5227,4.4589,4.3935,4.3326,4.2687,4.2009,4.1057,4.0774,4.0603,3.9637,3.9285,3.9285,3.9197,3.8287,3.7319,3.7807,3.6869,3.5818,3.6638,3.7069,3.7311,3.778,3.8018,3.8127,3.8202,3.8202,3.7868,3.6664,3.6344,3.5952,3.4665,3.4375,3.4414,3.4264,3.4332,3.4113,3.3297,3.2648,3.1856,3.1044,3.0355,2.9869,2.9792,2.9842,3.003,3.0419,2.9013,2.8084,2.8094,2.7756,2.7537,2.767,2.8182,2.817,2.7727,2.8091,2.7764,2.672,2.7925,2.7871,2.6654,2.7292,2.691,5.5245,5.6534,5.6984,5.5605,5.1495,4.6608,4.2079,3.6975,3.2318,2.9594,2.9343,2.9768,3.0149,3.097,3.2021,3.3333,3.4069,3.5892,3.9788,4.1114,4.3484,4.8556,4.9368,5.0264,5.2194,5.2833,5.308,5.2963,5.2354,5.1831,5.1454,5.1788,5.1585,5.0699,5.0061,4.9407,4.874,4.8101,4.7593,4.7216,4.7216,4.6882,4.6258,4.6258,4.6127,4.588,4.588,4.588,4.5866,4.559,4.4893,4.3864,4.304,4.2038,4.1071,4.0087,3.9724,3.9637,3.8675,3.8328,3.8185,3.73,3.6831,3.6801,3.756,3.7377,3.7104,3.797,3.8165,3.8297,3.8979,3.8727,3.8202,3.8202,3.8202,3.797,3.7099,3.6591,3.604,3.5154,3.4675,3.4414,3.4414,3.4414,3.4113,3.3297,3.2577,3.1783,3.097,3.0279,2.9792,2.9792,2.9792,2.988,3.0105,2.8875,2.8109,2.8109,2.7335,2.7095,2.7484,2.7736,2.7803,2.7594,2.7879,2.7766,2.7324,2.7859,2.765,2.6794,2.7432,2.7026,5.307,5.5162,5.6287,5.4415,4.9887,4.494,4.107,3.5672,3.1073,2.9564,2.9259,2.9448,2.9879,3.0275,3.0828,3.1539,3.2118,3.3557,3.6739,3.8122,4.0696,4.5802,4.6638,4.7951,5.0665,5.2355,5.2978,5.2339,5.1701,5.1062,5.0423,5.0627,5.0569,5.0104,4.9291,4.8653,4.8174,4.7535,4.6998,4.6548,4.6548,4.6316,4.588,4.588,4.588,4.588,4.5677,4.559,4.5561,4.5184,4.4312,4.3214,4.2273,4.1201,4.0073,3.9121,3.8658,3.8421,3.7456,3.7,3.6702,3.56,3.568,3.6269,3.7079,3.7352,3.7547,3.8438,3.8713,3.8965,3.9425,3.887,3.8202,3.8202,3.8072,3.7767,3.7143,3.6489,3.5836,3.5212,3.4719,3.4414,3.4414,3.4414,3.4196,3.3673,3.2946,3.2146,3.1341,3.0558,3.0075,2.9792,2.9792,2.9729,2.9553,2.8662,2.8034,2.7871,2.7177,2.7095,2.7802,2.7999,2.8075,2.7952,2.7924,2.7783,2.7447,2.7447,2.7229,2.6794,2.7244,2.6953,4.875,5.234,5.4966,5.3065,4.8638,4.3729,4.0336,3.5431,3.1212,2.9812,2.9412,2.9305,2.9305,2.9183,2.9374,3.0085,3.1365,3.3253,3.603,3.7551,3.9726,4.3193,4.2869,4.4273,4.906,5.1347,5.231,5.1672,5.1048,5.0409,4.977,4.9117,4.8754,4.874,4.7521,4.6853,4.6853,4.6229,4.5895,4.5895,4.5895,4.5895,4.588,4.588,4.588,4.5851,4.5184,4.4893,4.4792,4.3544,4.2482,4.1604,4.087,4.0,3.9121,3.816,3.7456,3.6869,3.591,3.5203,3.4738,3.4726,3.5102,3.5533,3.5913,3.6173,3.6574,3.727,3.8274,3.9059,3.8391,3.8217,3.8202,3.8202,3.7738,3.7128,3.646,3.5822,3.5183,3.4545,3.4414,3.4414,3.4414,3.4414,3.4414,3.4414,3.3673,3.2932,3.2146,3.1415,3.062,2.9856,2.9792,2.9566,2.8988,2.8423,2.7871,2.7318,2.7417,2.7802,2.8427,2.9219,2.9288,2.871,2.8681,2.8057,2.6794,2.6794,2.6794,2.6779,2.6794,2.6779,4.3978,4.636,4.7614,4.617,4.2,3.7706,3.5765,3.1628,2.8168,2.8067,2.7747,2.7682,2.8531,2.8662,2.9016,3.0148,3.1101,3.2301,3.403,3.6368,3.9349,4.307,4.6208,4.8799,5.0792,5.0333,5.0046,5.0264,4.9306,4.8609,4.8406,4.7782,4.7637,4.8058,4.7274,4.6824,4.6824,4.62,4.588,4.588,4.5416,4.5445,4.5866,4.5416,4.5198,4.5184,4.498,4.4661,4.424,4.3095,4.2216,4.1443,3.9861,3.8842,3.816,3.7176,3.6701,3.6548,3.6188,3.5742,3.5228,3.4851,3.5264,3.5734,3.5122,3.624,3.7832,3.8429,3.8946,3.9044,3.8376,3.8202,3.8202,3.8202,3.7738,3.7128,3.6446,3.5807,3.5169,3.453,3.4414,3.4414,3.4414,3.4414,3.4414,3.4414,3.3742,3.3143,3.2861,3.1696,3.082,3.0545,3.0062,2.9716,2.9528,2.8649,2.8227,2.8524,2.7884,2.7802,2.8492,2.9219,2.9304,2.8604,2.8656,2.8274,2.7418,2.6997,2.6779,2.6779,2.6779,2.6659,3.9238,4.1776,4.301,4.1415,3.7998,3.4599,3.3166,2.9801,2.713,2.7517,2.7284,2.73,2.8292,2.8474,2.8798,2.9906,3.0847,3.1942,3.3275,3.5614,3.8591,4.2241,4.6771,4.9464,4.9266,4.917,4.9045,4.8972,4.8232,4.768,4.7433,4.7042,4.6911,4.7071,4.6679,4.6475,4.6475,4.6084,4.588,4.588,4.5213,4.5111,4.5488,4.4835,4.4545,4.4545,4.4284,4.3777,0.0,4.2146,4.1091,4.0049,3.8859,3.7924,3.7176,3.664,3.6107,3.5768,3.5981,3.5554,3.4901,3.5188,3.5913,3.6609,3.591,3.6865,3.8256,3.8595,3.8957,3.9044,3.8376,3.8028,3.7868,3.7868,3.7201,3.646,3.604,3.5459,3.4893,3.4486,3.4414,3.4414,3.4414,3.4414,3.4414,3.4414,3.3962,3.352,3.3213,3.2349,3.1696,3.1415,3.0921,3.0646,3.0646,2.9305,2.8562,2.8812,2.8452,2.8454,2.8889,2.9383,2.9305,2.8665,2.8411,2.8013,2.7374,2.6968,2.6779,2.6779,2.65,2.6312,0.0,3.8111,4.016,3.8318,3.589,3.3525,3.1894,2.9492,0.0,2.7713,2.7656,2.7745,2.8452,2.8539,2.8769,2.9499,3.075,3.2101,3.3512,3.549,3.7989,4.1145,4.5154,4.7051,4.5521,4.7852,4.8986,4.7796,4.7666,4.739,4.6703,4.6659,4.6399,4.5805,4.588,4.588,4.588,4.5837,4.5822,4.5808,4.5097,4.4777,4.4806,4.4197,4.3921,4.3877,4.3253,4.2424,4.1446,4.0756,3.9461,3.7808,3.7717,3.7176,3.6358,3.6358,3.5717,3.4914,3.5429,3.4876,3.4274,3.5709,3.6917,3.7873,3.7821,3.7887,3.7873,3.7821,3.8482,3.8986,3.8318,3.7723,3.7302,3.7244,3.6272,3.5427,3.5427,3.4864,3.4414,3.4414,3.4414,3.4414,3.4414,3.4414,3.4414,3.4414,3.4414,3.4113,3.3367,3.3227,3.2932,3.2218,3.2146,3.2074,3.2074,3.0281,2.8961,2.8562,2.9196,2.9594,2.9628,2.9633,2.9334,2.8695,2.8057,2.7418,2.6779,2.6779,2.6779,2.6727,2.6028,2.5837,2.9265,0.0,3.1686,3.1195,2.9842,2.8501,0.0,2.7192,2.6372,2.6351,2.6351,2.6706,2.7923,2.8168,2.8746,3.0287,3.1257,3.2253,3.3497,3.7631,4.1379,4.3627,4.6226,4.7205,4.5754,4.6734,4.7375,4.7085,4.6606,4.597,4.4925,4.5705,4.5648,4.4712,4.5489,4.588,4.588,4.5372,4.5126,4.5111,4.3979,4.3703,4.4182,4.3529,4.3224,4.3224,4.3065,4.2166,4.0728,3.9867,3.8854,3.7717,3.6989,3.6628,3.6358,3.6358,3.6194,3.5994,3.6119,3.5874,3.5657,3.647,3.6944,3.7239,3.7873,3.8117,3.8117,3.8117,3.8269,3.8289,3.768,3.7418,3.7172,3.6664,3.5938,3.5427,3.5427,3.4864,3.4414,3.4414,3.4414,3.4414,3.4414,3.4414,3.4414,3.4414,3.4414,3.4332,3.4113,3.3589,3.3143,3.2932,3.2434,3.2074,3.2074,3.0848,3.0174,3.0565,2.9959,2.9596,2.9621,2.958,2.9334,2.8695,2.8057,2.7418,2.6779,2.6779,2.6659,2.6404,2.6229,2.5974,2.6907,2.7655,2.8248,2.7981,2.7394,2.6842,2.6515,2.625,2.6079,2.5954,2.5954,2.636,2.7748,2.8486,2.9153,2.9913,3.1871,3.3786,3.5323,3.8271,4.1273,4.3906,4.5492,4.6298,4.624,4.6599,4.6708,4.6417,4.5585,4.4783,4.3997,4.4089,4.4104,4.3891,4.447,4.5187,4.588,4.5227,4.4879,4.4864,4.3602,4.3181,4.3515,4.2876,4.2586,4.2586,4.2586,4.1568,3.9899,3.9373,3.8405,3.7083,3.664,3.6358,3.6332,3.6081,3.583,3.5697,3.604,3.6668,3.7256,3.7268,3.7621,3.7967,3.8138,3.8202,3.8202,3.8202,3.7999,3.7723,3.7389,3.6867,3.633,3.5952,3.5386,3.4853,3.4464,3.4427,3.4264,3.3894,3.4113,3.4414,3.4414,3.4414,3.4414,3.4414,3.4414,3.4346,3.4128,3.3894,3.3673,3.3534,3.3058,3.2751,3.2751,3.1548,3.096,3.1307,3.0502,2.9918,2.9595,2.9334,2.8753,2.7839,2.7623,2.734,2.6779,2.6779,2.6659,2.6283,2.596,2.5715,2.6277,2.7109,2.7785,2.6951,2.6874,2.6858,2.6231,2.6187,2.6239,2.6099,2.6026,2.6484,2.7931,2.899,2.9615,2.947,3.2613,3.5814,3.8008,3.8867,4.0368,4.3345,4.4383,4.517,4.6203,4.6326,4.6119,4.5584,4.4472,4.3515,4.2906,4.223,4.223,4.3062,4.3259,4.3981,4.5396,4.4832,4.4602,4.4574,4.3127,4.2579,4.2832,4.2045,4.1731,4.1814,4.1731,4.0645,3.893,3.8938,3.7924,3.6489,3.6413,3.6375,3.6497,3.5935,3.5375,3.5047,3.5791,3.7132,3.8302,3.7887,3.8196,3.8652,3.8086,3.7912,3.7941,3.8028,3.7694,3.7288,3.7186,3.633,3.5517,3.5517,3.494,3.4189,3.3522,3.3744,3.3825,3.3157,3.3673,3.4196,3.4196,3.4332,3.4414,3.4414,3.4346,3.4196,3.3839,3.4128,3.4196,3.3839,3.3633,3.347,3.347,3.2266,3.1478,3.1349,3.0898,3.0308,2.9566,2.8895,2.7992,2.6899,2.7248,2.7196,2.6779,2.6727,2.6539,2.6229,2.5577,2.5328,2.6468,2.764,2.8516,2.6872,2.6584,2.6654,2.652,2.6503,2.6468,2.6295,2.6222,2.6775,2.8737,2.8844,2.9279,3.1228,3.3882,3.7041,4.0679,4.185,4.2655,4.367,4.4951,4.5318,4.4383,4.4076,4.3927,4.3919,4.2472,4.1205,4.0198,4.0844,4.1309,4.1336,4.2252,4.2758,4.3036,4.2937,4.2993,4.3268,4.0921,4.0686,4.214,4.0416,4.0087,4.0788,4.0,3.9033,3.7939,3.7543,3.7063,3.6651,3.6248,3.6507,3.719,3.7096,3.6484,3.5817,3.6276,3.6756,3.7119,3.7318,3.7054,3.6736,3.6635,3.6591,3.6722,3.7288,3.7375,3.7172,3.6606,3.6315,3.6156,3.6156,3.5153,3.4185,3.4042,3.3179,3.2448,3.229,3.2875,3.3367,3.3367,3.3962,3.4414,3.4414,3.4128,3.3839,3.3839,3.3839,3.3839,3.3839,3.3633,3.347,3.347,3.2266,3.1492,3.1454,3.0913,3.0221,2.9374,2.8231,2.7506,2.7299,2.735,2.7196,2.6779,2.6539,2.6258,2.5934,2.5633,2.5313,2.6624,2.7311,2.7955,2.8068,2.8489,2.8803,2.8369,2.831,2.8329,2.8009,2.7904,2.8411,3.0261,3.113,3.2546,3.5736,3.6016,3.6977,4.0275,4.0719,4.1296,4.2976,4.3451,4.391,4.4308,4.3495,4.2998,4.2998,4.1322,4.0201,3.9907,3.9774,4.0237,4.1266,4.1803,4.2259,4.2797,4.1803,4.1293,4.1457,4.1027,4.0645,4.0546,3.9853,3.9609,3.9784,3.8778,3.8,3.7389,3.7241,3.6902,3.6423,3.6584,3.6922,3.7196,3.6534,3.6373,3.6402,3.5874,3.6312,3.7071,3.6823,3.6562,3.6373,3.6736,3.6591,3.6373,3.6678,3.6519,3.6344,3.6446,3.5942,3.544,3.5653,3.4646,3.3601,3.3131,3.2421,3.1696,3.1341,3.1658,3.1997,3.2165,3.2551,3.2723,3.2541,3.2687,3.2865,3.3017,3.2885,3.2968,3.3297,3.2493,3.2048,3.2382,3.1235,3.076,3.1336,3.0441,2.9844,2.9642,2.8351,2.756,2.7401,2.7401,2.7026,2.6286,2.6028,2.5574,2.4942,2.501,2.494,2.655,2.7063,2.7788,2.8932,2.9552,3.0027,3.0425,3.0271,3.0092,3.0396,3.0162,3.0352,3.1742,3.3293,3.5455,3.8661,3.7778,3.7575,4.0227,4.0025,4.05,4.2916,4.271,4.2919,4.4411,4.3172,4.2102,4.1784,3.9999,3.9031,3.9177,3.8556,3.9066,4.0761,4.1177,4.1695,4.2393,4.1261,4.0556,4.0275,4.0471,3.9992,3.8979,3.8742,3.8542,3.8384,3.7397,3.6756,3.6443,3.6791,3.6537,3.6194,3.6899,3.7263,3.7099,3.5842,3.6009,3.6618,3.5559,3.5966,3.6794,3.6417,3.6112,3.5967,3.6475,3.6272,3.5894,3.604,3.5633,3.536,3.6359,3.5912,3.5238,3.5582,3.4547,3.3225,3.2468,3.1632,3.0768,3.0213,3.0288,3.0539,3.0694,3.1034,3.1168,3.0823,3.1225,3.1618,3.1969,3.173,3.173,3.2425,3.1224,3.0553,3.1032,3.0045,2.9842,3.0995,2.9711,2.908,2.9516,2.8399,2.752,2.6996,2.6996,2.6451,2.5506,2.5191,2.4737,2.4121,2.441,2.4552,2.5982,2.7619,2.916,2.8434,2.7611,2.7981,3.2089,3.1597,3.0926,3.321,3.2784,3.2143,3.2793,3.3975,3.5368,3.6945,3.8542,4.033,4.2519,4.2713,4.3178,4.4603,4.424,4.3791,4.3602,4.242,4.1026,3.955,3.8047,3.697,3.6367,3.6865,3.7599,3.8624,3.9937,4.0659,4.0745,4.1607,4.1508,4.0574,3.744,3.6818,3.8369,3.6056,3.5557,3.6262,3.5341,3.4918,3.4906,3.5262,3.577,3.6468,3.6813,3.7048,3.7109,3.561,3.5577,3.6288,3.601,3.5766,3.559,3.6127,3.5503,3.4559,3.4603,3.4588,3.4675,3.5256,3.498,3.4777,3.5983,3.6461,3.671,3.7263,3.5558,3.3608,3.3144,3.1086,2.9127,2.8543,2.8867,2.9106,2.9177,2.9923,3.046,3.0433,3.02,3.0282,3.0896,3.0425,3.0313,3.1041,3.024,2.9711,2.9755,2.9131,2.9227,3.0297,2.8755,2.7998,2.8381,2.7794,2.6923,2.5756,2.5756,2.5228,2.4245,2.3781,2.3824,2.4284,2.4021,2.4182,2.5167,2.7029,2.8777,2.8434,2.8147,2.8934,3.2625,3.3543,3.3668,3.3985,3.4668,3.5065,3.4492,3.5774,3.7242,3.8012,3.9534,4.1215,4.2745,4.2992,4.3326,4.4226,4.3761,4.3371,4.3228,4.1496,4.0152,3.9559,3.8038,3.7496,3.8246,3.8564,3.9294,4.0646,4.1239,4.1535,4.1535,4.0731,4.0178,4.0055,3.8783,3.763,3.6548,3.5541,3.5146,3.5188,3.4161,3.3884,3.4249,3.5063,3.5439,3.5464,3.6189,3.6576,3.6534,3.5568,3.5928,3.678,3.5899,3.5798,3.5923,3.5778,3.5125,3.4486,3.4893,3.4719,3.4545,3.5183,3.5183,3.5128,3.5784,3.5969,3.6003,3.5695,3.4606,3.3208,3.1662,2.994,2.8482,2.7761,2.7508,2.7413,2.757,2.8027,2.8323,2.8132,2.8415,2.8986,2.9619,2.9618,2.968,3.0185,2.961,2.8983,2.8575,2.8272,2.8242,2.8682,2.8297,2.8269,2.874,2.7129,2.6046,2.5633,2.4577,2.3647,2.292,2.2548,2.2483,2.2703,2.2865,2.3313,2.4944,2.659,2.8248,2.8483,2.8878,3.0084,3.3284,3.4478,3.5266,3.6066,3.6706,3.6832,3.5913,3.6758,3.7857,3.8694,4.0139,4.1482,4.2557,4.2716,4.2876,4.334,4.2803,4.2299,4.1964,4.0641,3.9686,3.9423,3.8173,3.8007,3.9114,3.9325,3.9896,4.0728,4.1608,4.1903,4.1468,3.9886,3.8971,3.8714,3.8353,3.7155,3.5404,3.4693,3.4241,3.4161,3.3407,3.3181,3.3505,3.4804,3.5254,3.528,3.5798,3.6011,3.5938,3.5299,3.5633,3.6301,3.5604,3.5517,3.5677,3.5444,3.4936,3.4501,3.4936,3.4762,3.4501,3.4936,3.5067,3.5042,3.5049,3.5339,3.556,3.5195,3.4139,3.2774,3.1197,2.9431,2.8023,2.7087,2.6602,2.6308,2.638,2.676,2.6909,2.6615,2.7079,2.7815,2.8545,2.8387,2.8344,2.8654,2.8262,2.7969,2.7939,2.7588,2.752,2.7668,2.7613,2.7695,2.801,2.6504,2.5303,2.4524,2.3413,2.2414,2.1592,2.1341,2.1424,2.1765,2.2079,2.2767,2.5462,2.6487,2.7707,2.8576,2.9522,3.1015,3.4145,3.425,3.5087,3.9899,3.8796,3.701,3.7025,3.6541,3.6734,3.8603,4.0125,4.1308,4.199,4.2078,4.2078,4.2078,4.1497,4.0752,3.9802,3.9972,3.9679,3.8749,3.8187,3.7915,3.7915,3.8535,3.8591,3.7943,4.0613,4.1424,4.0089,3.9358,3.8142,3.662,3.5189,3.4716,3.507,3.3127,3.2528,3.3068,3.3068,3.2742,3.2369,3.4047,3.5342,3.6228,3.5604,3.5427,3.5285,3.4646,3.4414,3.4501,3.514,3.4951,3.453,3.5154,3.4936,3.4414,3.4414,3.4414,3.4399,3.4414,3.4399,3.4254,3.363,3.4574,3.5839,3.6496,3.4607,3.2476,3.2042,2.9731,2.7468,2.6542,2.6125,2.591,2.591,2.6258,2.6396,2.6201,2.6396,2.6794,2.7709,2.6683,2.6042,2.6264,2.615,2.6583,2.7783,2.7181,2.7055,2.7679,2.6574,2.5893,2.5893,2.5893,2.4708,2.2234,2.2163,2.152,2.0305,2.0059,2.063,2.1877,2.1877,2.2604,2.3601,2.5681,2.7844,2.7838,2.9887,3.2551,3.5125,3.5845,3.6801,3.9745,3.8546,3.6906,3.6961,3.7298,3.7535,3.7485,3.8793,3.9987,4.0612,4.0684,4.0684,4.0684,4.0525,4.0314,3.998,3.9671,3.9387,3.9061,3.8457,3.8083,3.8083,3.827,3.8285,3.8098,3.889,3.9175,3.8768,3.7298,3.6656,3.6795,3.3763,3.2784,3.3712,3.3139,3.2692,3.2466,3.2466,3.2472,3.2549,3.3764,3.485,3.5575,3.4936,3.4704,3.4675,3.4486,3.4704,3.5111,3.5369,3.5241,3.5111,3.5369,3.4936,3.4414,3.4414,3.4095,3.3848,3.4283,3.3761,3.3137,3.3398,3.3477,3.3442,3.3241,3.2994,3.2171,3.0004,2.8893,2.7826,2.634,2.5868,2.5688,2.5688,2.5898,2.605,2.598,2.6383,2.6985,2.8026,2.7047,2.6599,2.7244,2.626,2.5921,2.6716,2.6426,2.6412,2.7055,2.6332,2.5893,2.5893,2.4238,2.2961,2.2221,2.05,1.9445,1.9116,1.8962,1.9315,2.016,2.0951,2.1602,2.4481,2.6504,2.8527,2.8935,3.1304,3.4048,3.608,3.76,3.8933,4.026,3.9046,3.7813,3.7813,3.7813,3.7841,3.7784,3.8585,3.9407,4.0017,4.0104,3.99,3.9407,3.9349,3.9247,3.9015,3.8667,3.8667,3.916,3.858,3.8318,3.858,3.8347,3.8086,3.7854,3.8072,3.7955,3.7462,3.6354,3.5811,3.5654,3.3119,3.2054,3.2403,3.219,3.2014,3.1876,3.1965,3.229,3.2784,3.3463,3.4242,3.4951,3.4641,3.4481,3.4414,3.4481,3.4729,3.498,3.498,3.498,3.498,3.498,3.4719,3.4414,3.4414,3.4153,3.392,3.4312,3.3862,3.3238,3.3122,3.2803,3.2465,3.2496,3.2248,3.164,2.9947,2.8846,2.7799,2.6672,2.6025,2.5758,2.5828,2.591,2.5906,2.5684,2.6126,2.6642,2.7103,2.6633,2.6431,2.6893,2.5878,2.537,2.5887,2.5955,2.6119,2.6402,2.5847,2.5536,2.5536,2.3597,2.2253,2.1789,2.0098,1.8949,1.8518,1.8438,1.8871,1.9812,2.0301,2.1067,2.6853,2.8241,2.9529,3.1119,3.3417,3.5643,3.6894,3.9161,4.0902,4.0844,4.0002,3.9276,3.9218,3.8202,3.7752,3.8855,3.8986,3.9131,3.9683,3.9755,3.932,3.8159,3.8028,3.781,3.7273,3.7215,3.7694,3.8855,3.8376,3.8275,3.8812,3.8275,3.7694,3.7143,3.7665,3.7418,3.6315,3.6063,3.53,3.3968,3.2999,3.212,3.1367,3.0871,3.0922,3.1367,3.1695,3.2199,3.2847,3.3169,3.3742,3.4481,3.4631,3.4563,3.4481,3.4631,3.4563,3.4414,3.4414,3.4414,3.4414,3.4414,3.4414,3.4414,3.4414,3.437,3.4341,3.4385,3.4327,3.3978,3.2817,3.2469,3.2556,3.3079,3.2103,3.0978,3.102,2.9349,2.7743,2.732,2.6564,2.605,2.6201,2.6213,2.6027,2.5505,2.5861,2.6051,2.5689,2.5712,2.5761,2.5738,2.5114,2.4886,2.5275,2.5717,2.5977,2.5806,2.5312,2.4951,2.4894,2.3644,2.2384,2.1187,2.0459,1.9554,1.85,1.8437,1.9059,2.0358,2.002,2.0962,2.5815,2.7756,2.9894,3.1467,3.4636,3.7446,3.7843,3.8815,3.9465,3.8928,3.9407,3.9755,3.9291,3.8551,3.7941,3.7738,3.7273,3.6983,3.7099,3.7128,3.7027,3.6751,3.6722,3.6664,3.6533,3.6519,3.6635,3.691,3.6794,3.6562,3.6199,3.6054,3.5909,3.5778,3.5909,3.6083,3.6301,3.5209,3.4671,3.4757,3.2364,3.142,3.1643,3.1381,3.106,3.0826,3.2226,3.2626,3.2409,3.3591,3.4332,3.4631,3.4698,3.4698,3.4631,3.4698,3.4563,3.4414,3.4414,3.4414,3.4414,3.4414,3.4414,3.4414,3.4414,3.4066,3.3775,3.4283,3.3703,3.2861,3.2585,3.2135,3.1642,3.1279,3.0953,3.053,3.008,2.9575,2.8862,2.763,2.7162,2.6782,2.627,2.6213,2.6302,2.6574,2.646,2.6375,2.644,2.6099,2.5664,2.5195,2.4511,2.4439,2.5328,2.5384,2.5522,2.5859,2.5343,2.4794,2.4292,2.3015,2.2163,2.1865,2.0453,1.9584,1.9351,1.8807,1.905,1.9958,2.0719,2.1422,2.6216,2.8237,3.0564,3.3161,3.545,3.7113,3.7288,3.7564,3.7723,3.736,3.8072,3.8565,3.7941,3.7535,3.7186,3.6881,3.6533,3.6301,3.6301,3.6301,3.6199,3.5894,3.5851,3.5851,3.5851,3.5851,3.5981,3.6286,3.6301,3.6301,3.6286,3.5996,3.5807,3.5807,3.5517,3.5372,3.5401,3.5008,3.4711,3.4545,3.2787,3.1783,3.1394,3.088,3.0694,3.0843,3.2136,3.2648,3.272,3.3894,3.4481,3.4563,3.4631,3.4631,3.4563,3.4631,3.4563,3.437,3.4066,3.4167,3.4312,3.3703,3.3717,3.3906,3.3601,3.3282,3.3079,3.3412,3.3035,3.244,3.2121,3.1787,3.1366,3.0727,3.0568,3.0507,3.0129,2.9808,2.9296,2.8182,2.7537,2.704,2.6465,2.6183,2.611,2.6229,2.6142,2.609,2.6269,2.5759,2.5288,2.4927,2.4557,2.4323,2.4381,2.5135,2.545,2.4955,2.497,2.4738,2.4118,2.31,2.2433,2.2113,2.0903,2.0217,1.9975,1.9735,2.0024,2.0735,2.1126,2.174,2.6871,2.8967,3.1418,3.4908,3.5924,3.6134,3.6333,3.6339,3.6254,3.6137,3.6663,3.6968,3.6402,3.6214,3.6141,3.6141,3.6054,3.5981,3.5981,3.5981,3.5793,3.5256,3.5198,3.5198,3.5198,3.5198,3.5459,3.6098,3.604,3.6272,3.6997,3.6344,3.6025,3.6198,3.5703,3.5169,3.4748,3.5053,3.4879,3.4326,3.3536,3.2527,3.1226,3.0514,3.0495,3.1193,3.2074,3.272,3.3297,3.4045,3.4414,3.4467,3.4499,3.4455,3.4307,3.4339,3.4228,3.4008,3.3485,3.3645,3.3906,3.2861,3.2875,3.3209,3.2672,3.2513,3.2513,3.2513,3.2513,3.2367,3.1685,3.1526,3.1366,3.0667,3.0582,3.0568,3.0568,3.019,2.9546,2.8826,2.7934,2.7095,2.6589,2.6114,2.5741,2.5691,2.5547,2.5556,2.568,2.5262,2.4862,2.4563,2.4609,2.4319,2.3527,2.4913,2.5268,2.3986,2.4504,2.4567,2.3943,2.3484,2.2992,2.2482,2.172,2.1101,2.0731,2.0791,2.1212,2.1864,2.1595,2.2246,2.6354,2.9134,3.2259,3.4976,3.5751,3.6023,3.6667,3.6485,3.5969,3.5474,3.5937,3.6417,3.633,3.5851,3.5488,3.5488,3.5024,3.4661,3.4661,3.4661,3.4632,3.4545,3.4545,3.4545,3.4545,3.4545,3.4806,3.5444,3.498,3.5005,3.5769,3.5078,3.4976,3.5653,3.5525,3.559,3.6054,3.5038,3.4752,3.5204,3.3818,3.2749,3.1965,3.1829,3.1869,3.2001,3.3465,3.3742,3.3297,3.4045,3.4481,3.4572,3.4054,3.3835,3.3761,3.3235,3.2902,3.2759,3.2672,3.2701,3.2745,3.2571,3.2571,3.2629,3.2542,3.2513,3.2513,3.2513,3.2513,3.2367,3.1685,3.1526,3.1304,3.0377,3.0401,3.0568,3.0568,3.0507,3.0251,2.9608,2.839,2.7284,2.6782,2.5983,2.5563,2.6181,2.5595,2.5079,2.5079,2.5014,2.4719,2.4046,2.3988,2.4034,2.4182,2.4486,2.45,2.4125,2.4257,2.406,2.3245,2.3721,2.3943,2.3813,2.2707,2.208,2.2076,2.1616,2.1851,2.2668,2.2643,2.331,2.6958,2.9056,3.1162,3.3308,3.3921,3.4178,3.5047,3.5024,3.4808,3.4523,3.4545,3.4706,3.5179,3.4719,3.438,3.438,3.3761,3.3354,3.3354,3.3354,3.3354,3.3354,3.3354,3.3485,3.3848,3.3891,3.422,3.4928,3.4709,3.4893,3.5712,3.5356,3.5098,3.5107,3.4903,3.4617,3.4196,3.3993,3.3848,3.3761,3.3485,3.2777,3.1763,3.2129,3.2261,3.2221,3.2928,3.3097,3.2849,3.3209,3.3354,3.3456,3.3165,3.3048,3.3019,3.2757,3.2591,3.2469,3.2092,3.2208,3.2396,3.1671,3.1671,3.183,3.1119,3.0901,3.0814,3.0466,3.0364,3.0379,3.0437,3.0466,3.0334,2.9939,3.0089,3.0264,2.9927,2.9959,2.9737,2.8697,2.7453,2.6489,2.6061,2.5664,2.5458,2.5608,2.5227,2.4962,2.4827,2.4567,2.4162,2.3667,2.3982,2.4116,2.376,2.4817,2.5135,2.4351,2.4984,2.5119,2.4439,2.4233,2.4171,2.4171,2.3913,2.3839,2.3839,2.3629,2.38,2.4249,2.4349,2.4754,2.6939,2.8263,2.9456,3.1306,3.2023,3.2486,3.3499,3.3768,3.3876,3.4044,3.3713,3.3583,3.4126,3.3725,3.3224,3.3224,3.2832,3.2513,3.2576,3.2513,3.2513,3.2576,3.2513,3.2701,3.318,3.3404,3.3847,3.4574,3.4866,3.5329,3.6118,3.5933,3.5592,3.5198,3.492,3.4332,3.3363,3.3557,3.3235,3.2332,3.2928,3.2557,3.1599,3.1988,3.2023,3.1781,3.2212,3.2382,3.2513,3.2513,3.2513,3.2498,3.2324,3.2266,3.2251,3.2077,3.1917,3.1714,3.1206,3.125,3.138,3.0408,3.0408,3.0626,2.9668,2.9377,2.929,2.8811,2.8681,2.8782,2.9261,2.9377,2.932,2.9262,2.965,2.9885,2.9574,2.9542,2.9204,2.8046,2.6897,2.5999,2.5648,2.5503,2.537,2.5195,2.5117,2.507,2.4879,2.4406,2.3923,2.3688,2.4015,2.405,2.3602,2.5012,2.5532,2.4721,2.5584,2.5906,2.5398,2.4884,2.466,2.4733,2.5061,2.4969,2.4489,2.4668,2.4833,2.4942,2.5051,2.5306,2.5433,2.6464,2.7656,2.9415,3.0686,3.1849,3.3087,3.3474,3.3831,3.4434,3.4178,3.388,3.394,3.3188,3.2571,3.2571,3.2542,3.2576,3.2674,3.2562,3.2576,3.2674,3.2562,3.2527,3.2571,3.3191,3.3862,3.4445,3.5202,3.6038,3.689,3.6554,3.6415,3.6492,3.6087,3.5819,3.5743,3.4678,3.3438,3.1917,3.2109,3.205,3.1799,3.1425,3.0924,3.0393,3.1868,3.2478,3.2513,3.2513,3.2513,3.2454,3.1816,3.1569,3.1496,3.0901,3.0292,2.9769,2.974,2.9348,2.8869,2.8797,2.8797,2.8811,2.8753,2.8739,2.8724,2.8695,2.8681,2.8695,2.8724,2.8739,2.8668,2.8369,2.8822,2.947,3.0033,2.9722,2.9151,2.8658,2.7547,2.6533,2.6214,2.5714,2.5369,2.5547,2.5556,2.5508,2.5384,2.4865,2.4408,2.4292,2.3897,2.3839,2.4182,2.461,2.4937,2.5301,2.555,2.5563,2.5398,2.5649,2.5915,2.6172,2.5835,2.48,2.3083,2.3425,2.3595,2.3595,2.3751,2.4196,2.4834,2.5526,2.6567,2.8263,2.8848,2.9347,3.0701,3.1193,3.1601,3.2275,3.24,3.2573,3.2988,3.2896,3.2766,3.2766,3.2422,3.2139,3.2183,3.2285,3.2402,3.2445,3.2387,3.2611,3.3196,3.3358,3.3992,3.5396,3.5711,3.6072,3.6515,3.6115,3.5533,3.4709,3.4224,3.3743,3.3334,3.293,3.2221,3.1187,3.1261,3.1035,3.0598,3.0418,3.0228,3.0033,3.0317,3.028,3.0045,3.0045,3.0045,3.0074,3.0234,3.0045,2.9711,2.99,2.9566,2.9015,2.9015,2.8869,2.8681,2.8681,2.8681,2.8608,2.8187,2.8112,2.8079,2.7617,2.7515,2.7671,2.7969,2.8261,2.8518,2.8944,2.8703,2.8568,2.9245,2.8803,2.8123,2.7535,2.6497,2.5819,2.6075,2.5368,2.4945,2.5404,2.5494,2.5287,2.4738,2.4509,2.4176,2.3603,2.3897,2.4234,2.4408,2.5398,2.6068,2.6229,2.6211,2.6426,2.6797,2.5658,2.5236,2.5736,2.5139,2.4857,2.4946,2.4511,2.4412,2.4595,2.4805,2.5239,2.395,2.4173,2.4669,2.6535,2.6545,2.6591,2.8387,2.8941,2.9444,3.0816,3.1223,3.1542,3.2253,3.2438,3.2465,3.2528,3.2266,3.2033,3.216,3.2241,3.2244,3.2176,3.2252,3.2468,3.3014,3.3287,3.3968,3.5173,3.5657,3.5872,3.5812,3.5537,3.4898,3.3864,3.3785,3.3429,3.2696,3.2354,3.1732,3.0922,3.0533,3.009,2.9618,2.9501,2.9327,2.9063,2.8651,2.8669,2.8905,2.8737,2.8681,2.8724,2.9145,2.9044,2.8739,2.9145,2.8898,2.8361,2.8361,2.8216,2.8042,2.8042,2.7897,2.7621,2.7254,2.7176,2.7126,2.6666,2.6724,2.6986,2.7302,2.7709,2.8047,2.836,2.814,2.794,2.8117,2.7862,2.7506,2.7195,2.6184,2.5591,2.6002,2.5536,2.5175,2.5577,2.5811,2.5742,2.5203,2.497,2.4686,2.4439,2.4614,2.4976,2.5519,2.629,2.6841,2.7049,2.6748,2.6782,2.723,2.5663,2.4987,2.5444,2.4865,2.498,2.582,2.5233,2.4911,2.4835,2.5131,2.55,0.0,0.0,0.0,2.4224,2.3981,2.3871,2.6363,2.6831,2.7485,3.0154,3.0723,3.0965,3.1706,3.1694,3.1618,3.1855,3.2109,3.2345,3.2555,3.2415,3.2191,3.1945,3.2144,3.2122,3.1789,3.2965,3.3788,3.3804,3.4903,3.5383,3.4899,3.4834,3.4633,3.4279,3.4991,3.5007,3.4263,3.3138,3.207,3.1144,3.0024,2.9339,2.9044,2.8685,2.8108,2.7473,2.7054,2.7786,2.9174,2.8803,2.865,2.865,2.8693,2.8693,2.8623,2.8637,2.8245,2.7639,2.7639,2.7287,2.675,2.675,2.63,2.5814,2.5915,2.5864,2.5814,2.5915,2.6331,2.6774,2.6774,2.7086,2.7166,2.6459,2.7035,2.753,2.6789,2.6981,2.741,2.7632,2.67,2.5948,2.6111,2.6096,2.6082,2.6111,2.6606,2.6951,2.6808,2.6232,2.6109,2.6877,2.5993,2.5966,2.7538,2.7123,2.7049,2.774,2.7045,2.6621,2.6666,2.5757,2.5406,2.5661,2.5318,2.5258,2.5426,2.5254,2.4835,2.4124,2.4431,2.4865,2.1658,0.0,0.0,0.0,0.0,0.0,2.5248,2.5447,2.5868,2.7676,2.8585,2.9335,3.0145,3.0432,3.0688,3.1036,3.1478,3.2,3.2526,3.2278,3.2127,3.2191,3.2128,3.216,3.2411,3.2621,3.2963,3.3549,3.475,3.5038,3.4137,3.4223,3.418,3.3876,3.4562,3.4218,3.2643,3.2336,3.1342,2.9659,2.936,2.8904,2.8379,2.8273,2.7866,2.7193,2.6807,2.6842,2.7267,2.7349,2.7244,2.7078,2.8021,2.7949,2.736,2.7824,2.7592,2.7041,2.7041,2.6605,2.6068,2.6068,2.5683,2.5209,2.5258,2.5341,2.5375,2.5292,2.5585,2.6009,2.6329,2.6455,2.6349,2.5925,2.6024,2.6155,2.5698,2.5624,2.5864,2.6857,2.6454,2.6056,2.65,2.6218,2.6042,2.6204,2.6418,2.6469,2.6497,2.6008,2.5812,2.6311,2.6343,2.6497,2.6939,2.7395,2.774,2.7905,2.6753,2.6654,2.8044,2.5854,2.5505,2.7447,2.682,2.6512,2.6623,2.5619,2.4802,2.4217,2.425,2.4894,2.0671,2.1322,2.2003,2.2406,0.0,0.0,2.4219,2.4407,2.4879,2.6746,2.7578,2.8192,2.899,2.9248,2.9444,2.9955,3.0073,3.0561,3.1821,3.148,3.1095,3.1095,3.1075,3.1254,3.1742,3.2006,3.2486,3.323,3.428,3.4409,3.3342,3.3206,3.2907,3.2326,3.2987,3.2731,3.1283,3.0855,3.0035,2.8949,2.8455,2.8079,2.7683,2.7683,2.7304,2.6641,2.6412,2.6268,2.6299,2.6557,2.6627,2.6677,2.7694,2.7683,2.7055,2.7143,2.6834,2.6329,2.6068,2.572,2.5415,2.545,2.5063,2.4634,2.4728,2.4776,2.4714,2.4666,2.5014,2.5414,2.5272,2.5438,2.5375,2.4395,2.465,2.5099,2.5034,2.5286,2.5669,2.613,2.5778,2.5626,2.6121,2.594,2.5813,2.6254,2.6283,2.6372,2.6551,2.6315,2.6357,2.7002,2.7032,2.7243,2.7728,2.7891,2.8005,2.8103,2.6635,2.6565,2.8217,2.571,2.5259,2.7312,2.7121,2.7154,2.745,2.6399,2.558,2.4985,2.5057,2.5785,1.9848,2.0045,2.0297,2.1094,2.1252,0.0,2.3327,2.3655,2.4264,2.652,2.6978,2.7208,2.7911,2.7767,2.7787,2.8549,2.8099,2.8436,3.0653,3.0152,2.9495,2.9287,2.9475,2.9783,3.0261,3.1049,3.1859,3.2612,3.3349,3.3422,3.259,3.2118,3.1449,3.0476,3.1082,3.1023,3.0104,2.927,2.8676,2.8388,2.7535,2.7094,2.6988,2.7015,2.6619,2.5882,2.5923,2.5923,2.5939,2.6222,2.6553,2.6912,2.757,2.7569,2.7155,2.6545,2.6125,2.5704,2.5072,2.4854,2.4873,2.4926,2.4582,2.4159,2.4357,2.4282,2.4145,2.4176,2.4557,2.4787,2.3938,2.4232,2.4287,2.2544,2.3135,2.4212,2.4573,2.5505,2.6109,2.551,2.5226,2.5174,2.5451,2.55,2.5687,2.6112,2.624,2.639,2.6611,2.6751,2.715,2.8195,2.7812,2.7889,2.9007,2.8377,2.7997,2.8128,2.6623,2.6382,2.7666,2.5575,2.5096,2.6463,2.684,2.7232,2.7613,2.7139,2.6638,2.6077,2.6272,2.6792,1.9686,1.974,2.0264,2.0587,2.1025,0.0,2.2813,2.3195,2.3601,2.4725,2.5062,2.5241,2.5535,2.519,2.5229,2.6334,2.6033,2.6557,2.9066,2.8796,2.8427,2.8605,2.8434,2.854,2.8992,2.924,2.9626,3.0381,3.12,3.1811,3.2118,3.1943,3.1476,3.0649,3.1333,3.0777,2.8799,2.9404,2.8646,2.6529,2.7176,2.7054,2.6214,2.6526,2.6142,2.5211,2.5477,2.5516,2.5495,2.6253,2.6566,2.6594,2.6927,2.6703,2.6195,2.6074,2.5967,2.5811,2.5393,2.5023,2.4685,2.4716,2.4446,2.4134,2.4357,2.4357,2.4315,2.4106,2.3777,2.3479,2.3363,2.3136,2.2751,2.1779,2.2193,2.2936,2.3407,2.4502,2.539,2.5332,2.6123,2.6648,2.6199,2.6129,2.6023,2.5606,2.5983,2.6165,2.5819,2.5914,2.6447,2.7556,2.7325,2.7467,2.8339,2.7885,2.7549,2.7533,2.6346,2.6255,2.7618,2.6126,2.6194,2.8184,2.7551,2.6788,2.5826,2.6093,2.6366,2.6697,2.5697,2.5788,1.9723,1.9666,2.0191,1.9928,2.0679,0.0,0.0,2.2944,2.3519,2.4506,2.4116,2.3607,2.3698,2.3482,2.3367,2.3568,2.4563,2.5531,2.6267,2.6823,2.7247,2.7464,2.7394,2.7621,2.8315,2.842,2.9138,3.0728,3.0885,3.1222,3.1912,3.1183,3.0179,2.9023,2.9351,2.863,2.6708,2.7029,2.6445,2.4943,2.5691,2.5621,2.4982,2.5552,2.5536,2.5005,2.5169,2.5416,2.5648,2.5885,2.6045,2.6307,2.6947,2.6788,2.6153,2.58,2.5589,2.5334,2.4986,2.4669,2.4468,2.4664,2.4544,2.442,2.4608,2.4511,2.4307,2.3852,2.3465,2.3143,2.2649,2.2328,2.1955,2.1286,2.1656,2.2502,2.3712,2.5166,2.6385,2.6734,2.731,2.7237,2.56,2.5239,2.5116,2.4919,2.5169,2.5357,2.5243,2.5398,2.5776,2.646,2.6527,2.6795,2.7442,2.727,2.7203,2.741,2.6419,2.6509,2.8001,2.6531,2.6434,2.8018,2.688,2.6112,2.5793,2.5545,2.5579,2.5955,2.5786,2.6213,2.03,1.9936,2.0187,1.9634,2.0456,2.1498,0.0,0.0,0.0,2.3997,2.3188,2.2304,2.2098,2.1909,2.1668,2.1167,2.3072,2.4232,2.3281,2.4717,2.6,2.6268,2.6572,2.7045,2.7722,2.7991,2.9037,3.1133,3.0768,3.0681,3.1237,2.9954,2.852,2.7123,2.6919,2.6148,2.4712,2.4513,2.4139,2.3605,2.4021,2.4099,2.3939,2.4585,2.4957,2.5005,2.5084,2.5401,2.5837,2.5463,2.5536,2.5932,2.684,2.6777,2.615,2.5617,2.5188,2.4869,2.4528,2.4385,2.4451,2.4728,2.4831,2.4887,2.4981,2.4744,2.4297,2.3752,2.345,2.3054,2.2156,2.1874,2.1684,2.1224,2.1702,2.2772,2.4475,2.6122,2.7394,2.7931,2.7954,2.7267,2.5195,2.4506,2.4349,2.4447,2.4586,2.467,2.474,2.4941,2.5156,2.542,2.5757,2.6183,2.6701,2.6745,2.6855,2.7134,2.6462,2.6636,2.7864,2.67,2.6369,2.7141,2.5805,2.5376,2.5887,2.4949,2.4678,2.4984,2.5812,2.6592,2.1962,2.086,2.0401,2.051,2.059,2.0706,2.0907,0.0,2.1716,2.1116,0.0,2.1324,2.0585,0.0,0.0,2.0204,2.0884,2.1301,2.1143,2.3038,2.4652,2.5201,2.6275,2.6894,2.672,2.7432,2.827,2.9089,2.9127,2.9074,2.8992,2.8132,2.7251,2.635,2.5621,2.4717,2.3583,2.4181,2.3809,2.2491,2.3221,2.3706,2.3907,2.436,2.4708,2.5005,2.5291,2.5432,2.539,2.5454,2.5448,2.5368,2.5525,2.5401,2.5147,2.5068,2.5052,2.4997,2.4806,2.4759,2.4902,2.5214,2.5384,2.5492,2.5524,2.5045,2.4482,2.4416,2.3595,2.274,2.2466,2.2161,2.1932,2.2183,2.2833,2.377,2.5125,2.6091,2.6765,2.6994,2.6952,2.6839,2.6725,2.5889,2.5129,2.4882,2.5149,2.5044,2.4086,2.4268,2.4581,2.4852,2.547,2.6032,2.6582,2.6614,2.651,2.6192,2.6113,2.6129,2.6178,2.6293,2.6312,2.6165,2.5304,2.4673,2.4334,2.3804,2.4044,2.4925,2.5045,2.531,2.2447,2.1768,2.1606,2.0792,2.0802,2.0969,2.0728,2.0496,2.049,2.1056,0.0,0.0,0.0,0.0,0.0,0.0,2.0376,2.1277,2.0596,2.1879,2.313,2.3807,2.4532,2.5234,2.585,2.7432,2.8513,2.8771,2.8833,2.8815,2.8722,2.7944,2.6939,2.5657,2.5299,2.4441,2.3069,2.3176,2.2841,2.203,2.2541,2.2772,2.2754,2.3315,2.3649,2.3787,2.416,2.4475,2.4676,2.4977,2.4993,2.4836,2.4836,2.4888,2.5005,2.5005,2.5005,2.5005,2.5084,2.4914,2.4649,2.4593,2.4533,2.456,2.4855,2.4654,2.4351,2.4455,2.4036,2.336,2.2556,2.2615,2.2819,2.2641,2.3428,2.4498,2.5373,2.6365,2.7138,2.7211,2.7161,2.7011,2.6889,2.5794,2.4775,2.4435,2.462,2.4546,2.39,2.4066,2.4189,2.4101,2.462,2.5118,2.5467,2.5746,2.5959,2.6173,2.6674,2.6982,2.6997,2.7031,2.6839,2.6401,2.5357,2.4608,2.4219,2.3406,2.3423,2.4247,2.4247,2.4699,2.307,2.2575,2.2392,2.0906,2.0727,2.0786,2.0399,1.9829,1.9635,2.0554,1.946,0.0,0.0,0.0,1.8692,1.8155,0.0,2.0601,1.9515,2.0242,2.1302,2.2468,2.2999,2.37,2.4867,2.6629,2.7777,2.7941,2.814,2.8351,2.85,2.7512,2.6435,2.5272,2.4809,2.3979,2.2694,2.2347,2.201,2.1678,2.1811,2.1885,2.1916,2.239,2.2706,2.2916,2.3256,2.3616,2.4048,2.4297,2.4368,2.4294,2.424,2.4365,2.4551,2.4551,2.4551,2.4589,2.4778,2.4624,2.4319,2.4,2.3769,2.3699,2.4097,2.4064,2.3941,2.4139,2.3933,2.3504,2.2828,2.2975,2.3346,2.344,2.4209,2.5062,2.568,2.6396,2.6909,2.6778,2.6508,2.6211,2.6113,2.5274,2.4564,2.4317,2.4359,2.4261,2.3925,2.3994,2.3952,2.3681,2.4189,2.4637,2.4744,2.525,2.5799,2.6365,2.708,2.7572,2.7754,2.7482,2.7063,2.6522,2.5287,2.4455,2.4036,2.3098,2.2979,2.3696,2.3696,2.4364,2.4204,2.3184,2.2299,2.1021,2.0119,1.9559,1.9541,1.9555,1.9346,1.8495,1.8934,1.9197,1.837,1.8227,1.8208,1.8204,1.8278,0.0,0.0,1.7719,1.9068,2.137,2.2242,2.2901,2.3602,2.4428,2.5165,2.5753,2.6525,2.7209,2.7701,2.624,2.5345,2.5292,2.3781,2.2755,2.233,2.2039,2.1721,2.1309,2.1006,2.1239,2.19,2.1916,2.228,2.2916,2.306,2.3272,2.3531,2.3479,2.3565,2.3702,2.3497,2.3425,2.3458,2.3458,2.3458,2.3476,2.3683,2.3868,2.4001,2.3786,2.3551,2.3414,2.343,2.3272,2.3163,2.3372,2.3004,2.2696,2.3373,2.3201,2.3231,2.4858,2.5313,2.5548,2.6129,2.5905,2.5436,2.4982,2.418,2.3756,2.4217,2.4662,2.4966,2.4966,2.4751,2.4467,2.412,2.4051,2.394,2.3797,2.4516,2.4967,2.4886,2.5478,2.6115,2.6657,2.6952,2.7282,2.7683,2.7192,2.664,2.6021,2.4887,2.4036,2.3406,2.2768,2.2768,2.3406,2.3406,2.4333,2.5407,2.5319,2.4841,2.2593,2.2118,2.1771,2.0075,1.927,1.8958,1.9214,1.9039,1.8902,1.9087,1.9165,1.9181,1.9181,1.8668,1.8369,0.0,1.8841,1.8893,1.8721,2.0056,2.1115,2.1387,2.3236,2.4541,2.4892,2.5385,2.6276,2.7631,2.6216,2.5374,2.5374,2.4366,2.3484,2.2782,2.2429,2.2136,2.1965,2.1401,2.1247,2.1504,2.1258,2.1351,2.1741,2.2197,2.2603,2.2998,2.3381,2.3472,2.3331,2.3159,2.2846,2.2609,2.3191,2.3377,2.3347,2.3079,2.3014,2.2997,2.2599,2.2356,2.2296,2.2736,2.2767,2.2746,2.3264,2.3256,2.3035,2.2863,2.3116,2.345,2.3601,2.3882,2.423,2.4562,2.4729,2.4717,2.4228,2.4213,2.4394,2.468,2.4769,2.4815,2.4863,2.5169,2.5153,2.4533,2.4354,2.423,2.4135,2.4388,2.4642,2.471,2.5561,2.6322,2.6867,2.749,2.7862,2.7964,2.7455,2.6618,2.544,2.4092,2.3053,2.2474,2.1721,2.1703,2.2395,2.2425,2.3616,2.5886,2.6043,2.5796,2.3569,2.3319,2.3075,2.0942,2.0047,1.9836,2.0369,1.9701,1.9344,2.048,2.0192,1.9845,2.0068,1.9145,1.8385,0.0,1.7979,1.7477,1.6839,1.8397,1.9713,2.0225,2.1568,2.2805,2.3791,2.4252,2.5162,2.6673,2.5655,2.5015,2.5015,2.426,2.3535,2.2833,2.2573,2.2341,2.2136,2.1735,2.1495,2.1464,2.1166,2.1166,2.1386,2.1721,2.2106,2.2554,2.2953,2.3068,2.2924,2.282,2.2517,2.2157,2.2652,2.2818,2.2785,2.2425,2.2324,2.2241,2.1873,2.1664,2.1671,2.2098,2.2182,2.2264,2.2913,2.2996,2.2834,2.285,2.3014,2.3157,2.3383,2.3469,2.3604,2.3868,2.4114,2.4074,2.3473,2.3654,2.4065,2.4547,2.4713,2.4877,2.5179,2.5589,2.561,2.4839,2.4704,2.4514,2.4029,2.4144,2.4312,2.4306,2.5365,2.6049,2.6216,2.6911,2.721,2.6957,2.6568,2.5779,2.4602,2.3257,2.2458,2.213,2.1202,2.117,2.19,2.1787,2.2808]},{"header":{"parameterUnit":"m.s-1","parameterCategory":1,"la1":30.6,"la2":29.2853,"lo1":-89.7004,"lo2":-87.6739,"dy":0.0162,"dx":0.0183,"nx":112,"ny":82,"refTime":"2023-08-30T18:00:00:Z","depth":0,"parameterNumber":3,"parameterNumberName":"V-component_of_WINDS"},"data":[0.0,0.0,0.0,0.0,0.0,0.0,0.0,0.0,0.0,0.0,0.0,0.0,0.0,0.0,0.0,0.0,0.0,0.0,0.0,0.0,0.0,0.0,0.0,0.0,0.0,0.0,0.0,0.0,0.0,0.0,0.0,0.0,0.0,0.0,0.0,0.0,0.0,0.0,0.0,0.0,0.0,0.0,0.0,0.0,0.0,0.0,0.0,0.0,0.0,0.0,0.0,0.0,0.0,0.0,0.0,0.0,0.0,0.0,0.0,0.0,0.0,0.0,0.0,0.0,0.0,0.0,0.0,0.0,0.0,0.0,0.0,0.0,0.0,0.0,0.0,0.0,0.0,0.0,0.0,0.0,0.0,0.0,0.0,0.0,0.0,0.0,0.0,0.0,0.0,0.0,1.0685,1.2011,1.5017,1.6918,1.703,1.7833,1.7035,1.4093,0.0,0.0,0.0,0.0,0.0,0.0,0.0,0.0,0.0,0.0,0.0,0.0,0.0,0.0,0.0,0.0,0.0,0.0,0.0,0.0,0.0,0.0,0.0,0.0,0.0,0.0,0.0,0.0,0.0,0.0,0.0,0.0,0.0,0.0,0.0,0.0,0.0,0.0,0.0,0.0,0.0,0.0,0.0,0.0,0.0,0.0,0.0,0.0,0.0,0.0,0.0,0.0,0.0,0.0,0.0,0.0,0.0,0.0,0.0,0.0,0.0,0.0,0.0,0.0,0.0,0.0,0.0,0.0,0.0,0.0,0.0,0.0,0.0,0.0,0.0,0.0,0.0,0.0,0.0,0.0,0.0,0.0,0.0,0.0,0.0,0.0,0.0,0.0,0.0,0.0,0.0,0.0,0.0,0.0,0.0,0.0,0.0,0.0,0.0,0.0,0.0,0.0,0.0,0.0,1.1723,1.4712,1.674,1.7897,1.8249,1.7777,1.6664,1.5014,0.0,0.0,0.0,0.0,0.0,0.0,0.0,0.0,0.0,0.0,0.0,0.0,0.0,0.0,0.0,0.0,0.0,0.0,0.0,0.0,0.0,0.0,0.0,0.0,0.0,0.0,0.0,0.0,0.0,0.0,0.0,0.0,0.0,0.0,0.0,0.0,0.0,0.0,0.0,0.0,0.0,0.0,0.0,0.0,0.0,0.0,0.0,0.0,0.0,0.0,0.0,0.0,0.0,0.0,0.0,0.0,0.0,0.0,0.0,0.0,0.0,0.0,0.0,0.0,0.0,0.0,0.0,0.0,0.0,0.0,0.0,0.0,0.0,0.0,0.0,0.0,0.0,0.0,0.0,0.0,0.0,0.0,0.0,0.0,0.0,0.0,0.0,0.0,0.0,0.0,0.0,0.0,0.0,0.0,0.0,0.0,0.0,0.0,0.0,0.0,0.0,0.0,0.0,1.2197,1.3791,1.6942,1.7882,1.8422,1.8552,1.8152,1.7125,1.5295,1.3801,0.0,0.0,0.0,0.0,0.0,0.0,0.0,0.0,0.0,0.0,0.0,0.0,0.0,0.0,0.0,0.0,0.0,0.0,0.0,0.0,0.0,0.0,0.0,0.0,0.0,0.0,0.0,0.0,0.0,0.0,0.0,0.0,0.0,0.0,0.0,0.0,0.0,0.0,0.0,0.0,0.0,0.0,0.0,0.0,0.0,0.0,0.0,0.0,0.0,0.0,0.0,0.0,0.0,0.0,0.0,0.0,0.0,0.0,0.0,0.0,0.0,0.0,0.0,0.0,0.0,0.0,0.0,0.0,0.0,0.0,0.0,0.0,0.0,0.0,0.0,0.0,0.0,0.0,0.0,0.0,0.0,0.0,0.0,0.0,0.0,0.0,0.0,0.0,0.0,0.0,0.0,0.0,0.0,0.0,0.0,0.0,0.0,0.0,0.0,0.0,0.0,0.0,1.4687,1.6108,1.8632,1.91,1.914,1.8935,1.8572,1.742,1.5285,1.3557,0.0,0.0,0.0,0.0,0.0,0.0,0.0,0.0,0.0,0.0,0.0,0.0,0.0,0.0,0.0,0.0,0.0,0.0,0.0,0.0,0.0,0.0,0.0,0.0,0.0,0.0,0.0,0.0,0.0,0.0,0.0,0.0,0.0,0.0,0.0,0.0,0.0,0.0,0.0,0.0,0.0,0.0,0.0,0.0,0.0,0.0,0.0,0.0,0.0,0.0,0.0,0.0,0.0,0.0,0.0,0.0,0.0,0.0,0.0,0.0,0.0,0.0,0.0,0.0,0.0,0.0,0.0,0.0,0.0,0.0,0.0,0.0,0.0,0.0,0.0,0.0,0.0,0.0,0.0,0.0,0.0,0.0,0.0,0.0,0.0,0.0,0.0,0.0,0.0,0.0,0.0,0.0,0.0,0.0,0.0,0.0,0.0,0.0,0.0,0.0,0.0,0.0,1.6464,1.8449,1.967,2.051,2.0653,1.9905,1.8577,1.7089,1.5219,1.3369,0.0,0.0,0.0,0.0,0.0,0.0,0.0,0.0,0.0,0.0,0.0,0.0,0.0,0.0,0.0,0.0,0.0,0.0,0.0,0.0,0.0,0.0,0.0,0.0,0.0,0.0,0.0,0.0,0.0,0.0,0.0,0.0,0.0,0.0,0.0,0.0,0.0,0.0,0.0,0.0,0.0,0.0,0.0,0.0,0.0,0.0,0.0,0.0,0.0,0.0,0.0,0.0,0.0,0.0,0.0,0.0,0.0,0.0,0.0,0.0,0.0,0.0,0.0,0.0,0.0,0.0,0.0,0.0,0.0,0.0,0.0,0.0,0.0,0.0,0.0,0.0,0.0,0.0,0.0,0.0,0.0,0.0,0.0,0.0,0.0,0.0,0.0,0.0,0.0,0.0,0.0,0.0,0.0,0.0,0.0,0.0,0.0,0.0,0.0,0.0,0.0,0.0,1.7125,1.8922,2.091,2.0651,2.0166,1.957,1.8468,1.6938,1.4839,0.0,0.0,0.0,0.0,0.0,0.0,0.0,0.0,0.0,0.0,0.0,0.0,0.0,0.0,0.0,0.0,0.0,0.0,0.0,0.0,0.0,0.0,0.0,0.0,0.0,0.0,0.0,0.0,0.0,0.0,0.0,0.0,0.0,0.0,0.0,0.0,0.0,0.0,0.0,0.0,0.0,0.0,0.0,0.0,0.0,0.0,0.0,0.0,0.0,0.0,0.0,0.0,0.0,0.0,0.0,0.0,0.0,0.0,0.0,0.0,0.0,0.0,0.0,0.0,0.0,0.0,0.0,0.0,0.0,0.0,0.0,0.0,0.0,0.0,0.0,0.0,0.0,0.0,0.0,0.0,0.0,0.0,0.0,0.0,0.0,0.0,0.0,0.0,0.0,0.0,0.0,0.0,0.0,0.0,0.0,0.0,0.0,0.0,0.0,0.0,0.0,0.0,1.639,1.7797,1.9453,2.165,2.0957,2.0049,1.9429,1.825,1.6718,1.4707,0.0,0.0,0.0,0.0,0.0,0.0,0.0,0.0,0.0,0.0,0.0,0.0,0.0,0.0,0.0,0.0,0.0,0.0,0.0,0.0,0.0,0.0,0.0,0.0,0.0,0.0,0.0,0.0,0.0,0.0,0.0,0.0,0.0,0.0,0.0,0.0,0.0,0.0,0.0,0.0,0.0,0.0,0.0,0.0,0.0,0.0,0.0,0.0,0.0,0.0,0.0,0.0,0.0,0.0,0.0,0.0,0.0,0.0,0.0,0.0,0.0,0.0,0.0,0.0,0.0,0.0,0.0,0.0,0.0,0.0,0.0,0.0,0.0,0.0,0.0,0.0,0.0,0.0,0.0,0.0,0.0,0.0,0.0,0.0,0.0,0.0,0.0,0.0,0.0,0.0,0.0,0.0,0.0,0.0,0.0,0.0,0.0,0.0,0.0,0.0,0.0,0.0,1.7069,1.8712,2.0188,2.1738,2.1484,2.0771,1.9707,1.8038,1.6387,0.0,0.0,0.0,0.0,0.0,0.0,0.0,0.0,0.0,0.0,0.0,0.0,0.0,0.0,0.0,0.0,0.0,0.0,0.0,0.0,0.0,0.0,0.0,0.0,0.0,0.0,0.0,0.0,0.0,0.0,0.0,0.0,0.0,0.0,0.0,0.0,0.0,0.0,0.0,0.0,0.0,0.0,0.0,0.0,0.0,0.0,0.0,0.0,0.0,0.0,0.0,0.0,0.0,0.0,0.0,0.0,0.0,0.0,0.0,0.0,0.0,0.0,0.0,0.0,0.0,0.0,0.0,0.0,0.0,0.0,0.0,0.0,0.0,0.0,0.0,0.0,0.0,0.0,0.0,0.0,0.0,0.0,0.0,0.0,0.0,0.0,0.0,0.0,0.0,0.0,0.0,0.0,0.0,0.0,0.0,0.0,0.0,0.0,0.0,0.0,0.0,0.0,0.0,1.6826,1.8577,2.0066,2.1289,2.0752,1.985,1.8695,1.7392,1.5911,1.4187,0.0,0.0,0.0,0.0,0.0,0.0,0.0,0.0,0.0,0.0,0.0,0.0,0.0,0.0,0.0,0.0,0.0,0.0,0.0,0.0,0.0,0.0,0.0,0.0,0.0,0.0,0.0,0.0,0.0,0.0,0.0,0.0,0.0,0.0,0.0,0.0,0.0,0.0,0.0,0.0,0.0,0.0,0.0,0.0,0.0,0.0,0.0,0.0,0.0,0.0,0.0,0.0,0.0,0.0,0.0,0.0,0.0,0.0,0.0,0.0,0.0,0.0,0.0,0.0,0.0,0.0,0.0,0.0,0.0,0.0,0.0,0.0,0.0,0.0,0.0,0.0,0.0,0.0,0.0,0.0,0.0,0.0,0.0,0.0,0.0,0.0,0.0,0.0,0.0,0.0,0.0,0.0,0.0,0.0,0.0,0.0,0.0,0.0,0.0,0.0,0.0,0.0,1.6941,1.8489,1.9831,2.1074,2.0439,1.9605,1.8924,1.7396,1.5948,1.4633,0.0,0.0,0.0,0.0,0.0,0.0,0.0,0.0,0.0,0.0,0.0,0.0,0.0,0.0,0.0,0.0,0.0,0.0,0.0,0.0,0.0,0.0,0.0,0.0,0.0,0.0,0.0,0.0,0.0,0.0,0.0,0.0,0.0,0.0,0.0,0.0,0.0,0.0,0.0,0.0,0.0,0.0,0.0,0.0,0.0,0.0,0.0,0.0,0.0,0.0,0.0,0.0,0.0,0.0,0.0,0.0,0.0,0.0,0.0,0.0,0.0,0.0,0.0,0.0,0.0,0.0,0.0,0.0,0.0,0.0,0.0,0.0,0.0,0.0,0.0,0.0,0.0,0.0,0.0,0.0,0.0,0.0,0.0,0.0,0.0,0.0,0.0,0.0,0.0,0.0,0.0,0.0,0.0,0.0,0.0,0.0,0.0,0.0,0.0,0.0,0.0,0.0,1.7292,1.8405,1.9499,2.0879,2.0293,1.9748,1.9655,1.766,1.6222,1.5673,0.0,0.0,0.0,0.0,0.0,0.0,0.0,0.0,0.0,0.0,0.0,0.0,0.0,0.0,0.0,0.0,0.0,0.0,0.0,0.0,0.0,0.0,0.0,0.0,0.0,0.0,0.0,0.0,0.0,0.0,0.0,0.0,0.0,0.0,0.0,0.0,0.0,0.0,0.0,0.0,0.0,0.0,0.0,0.0,0.0,0.0,0.0,0.0,0.0,0.0,0.0,0.0,0.0,0.0,0.0,0.0,0.0,0.0,0.0,0.0,1.1524,0.9363,0.0,0.0,0.0,0.0,0.0,0.0,0.0,0.0,0.0,0.0,0.0,0.0,0.0,0.0,0.0,0.0,0.0,0.0,0.0,0.0,0.0,0.0,0.0,0.0,0.0,0.0,0.0,0.0,0.0,0.0,0.0,0.0,0.0,0.0,0.0,0.0,0.0,0.0,0.0,0.0,1.6674,1.7784,1.8735,1.959,1.9364,1.8874,1.8302,1.6961,1.5838,1.5044,1.3943,0.0,0.0,0.0,0.0,0.0,0.0,0.0,0.0,0.0,0.0,0.0,0.0,0.0,0.0,0.0,0.0,0.0,0.0,0.0,0.0,0.0,0.0,0.0,0.0,0.0,0.0,0.0,0.0,0.0,0.0,0.0,0.0,0.0,0.0,0.0,0.0,0.0,0.0,0.0,0.0,0.0,0.0,0.0,0.0,0.0,0.0,0.0,0.0,0.0,0.0,0.0,0.0,0.0,0.0,0.0,0.0,0.0,0.0,0.0,1.4902,1.2951,0.0,0.0,0.0,0.0,0.0,0.0,0.0,0.0,0.0,0.0,0.0,0.0,0.0,0.0,0.0,0.0,0.0,0.0,0.0,0.0,0.0,0.0,0.0,0.0,0.0,0.0,0.0,0.0,0.0,0.0,0.0,0.0,0.0,0.0,0.0,0.0,0.0,0.0,0.0,0.0,1.6674,1.7681,1.862,1.9869,1.9716,1.9437,1.921,1.7804,1.656,1.5653,1.4536,0.0,0.0,0.0,0.0,0.0,0.0,0.0,0.0,0.0,0.0,0.0,0.0,0.0,0.0,0.0,0.0,0.0,0.0,0.0,0.0,0.0,0.0,0.0,0.0,0.0,0.0,0.0,0.0,0.0,0.0,0.0,0.0,0.0,0.0,0.0,0.0,0.0,0.0,0.0,0.0,0.0,0.0,0.0,0.0,0.0,0.0,0.0,0.0,0.0,0.0,0.0,0.0,0.0,1.9947,2.0731,2.1282,2.1511,2.1788,2.1883,1.901,1.7686,1.7465,1.5524,0.0,0.0,0.0,0.0,0.0,0.0,0.0,0.0,0.0,0.0,0.0,0.0,0.0,0.0,0.0,0.0,0.0,0.0,0.0,0.0,0.0,0.0,1.3885,1.4688,1.6377,1.704,1.4522,0.0,0.0,0.0,0.0,0.0,0.0,0.0,0.0,0.0,0.0,0.0,1.6873,1.7755,1.882,2.0445,2.0354,2.0204,2.0452,1.884,1.7442,1.6568,1.5384,1.443,0.0,0.0,0.0,0.0,0.0,0.0,0.0,0.0,0.0,0.0,0.0,0.0,0.0,0.0,0.0,0.0,0.0,0.0,0.0,0.0,0.0,0.0,0.0,0.0,0.0,0.0,0.0,0.0,0.0,0.0,0.0,0.0,1.4202,1.4196,0.0,0.0,0.0,0.0,0.0,0.0,0.0,0.0,0.0,0.0,0.0,0.0,0.0,1.885,1.8609,2.182,2.29,2.194,2.4405,2.5293,2.4615,2.4985,2.5496,2.5817,2.5434,0.0,1.9556,1.8366,0.0,0.0,0.0,0.0,0.0,0.0,0.0,0.0,0.0,0.0,0.0,0.0,0.0,0.0,0.0,0.0,0.0,0.0,0.0,0.0,0.0,0.0,1.8385,1.8703,1.9575,2.0265,1.9922,1.8235,1.6471,1.5399,1.4971,1.4312,0.0,0.0,0.0,0.0,0.0,0.0,1.6819,1.7854,1.8783,1.9637,1.9951,1.9879,1.9505,1.8623,1.763,1.6557,1.6407,1.5751,1.4365,1.4722,0.0,0.0,0.0,0.0,0.0,0.0,0.0,0.0,0.0,0.0,0.0,0.0,0.0,0.0,0.0,0.0,0.0,0.0,0.0,0.0,0.0,0.0,0.0,0.0,0.0,0.0,0.0,0.0,0.0,1.369,1.5077,1.4282,1.4662,1.435,0.0,0.0,0.0,0.0,0.0,0.0,0.0,0.0,0.0,2.0712,2.2756,2.3876,2.3937,2.5915,2.6694,2.6055,2.7482,2.7759,2.7148,2.7603,2.7914,2.81,2.8481,2.7306,2.5119,2.2429,2.0617,1.9266,0.0,0.0,0.0,0.0,1.4763,1.5581,1.5489,1.5817,1.6062,1.5247,0.0,0.0,0.0,0.0,0.0,0.0,0.0,1.5144,1.6336,1.8419,2.037,2.0821,2.1808,2.2483,2.227,2.1408,2.0126,1.8238,1.7723,1.6991,1.5193,1.5067,0.0,0.0,0.0,1.7159,1.8165,1.9361,2.0432,2.1392,2.1063,2.0676,2.0562,1.9618,1.8394,1.6951,1.7002,1.6489,1.506,1.5177,1.5019,0.0,0.0,0.0,0.0,0.0,0.0,0.0,0.0,0.0,0.0,0.0,0.0,0.0,0.0,0.0,0.0,0.0,0.0,0.0,0.0,0.0,0.0,0.0,0.0,0.0,0.0,0.0,0.0,1.5186,1.6728,1.5187,1.6905,1.7301,0.0,0.0,0.0,0.0,0.0,0.0,2.1676,2.2783,2.409,2.5709,2.7521,2.8576,2.8802,2.9537,2.9916,2.9751,2.9842,2.9774,2.9541,2.967,2.9774,2.9877,3.0264,3.0375,2.9904,2.632,2.4422,2.3427,2.0962,1.9885,1.9567,1.8725,1.9324,2.0494,2.0395,2.0623,2.0803,1.9811,1.8488,1.6973,1.5569,0.0,0.0,0.0,0.0,1.7551,1.9283,2.0814,2.2112,2.2849,2.3906,2.4592,2.4102,2.3892,2.3155,2.0894,2.0251,1.9536,1.779,1.7567,0.0,1.6797,1.7933,1.9093,1.9754,2.082,2.1855,2.2678,2.2068,2.1538,2.1475,2.0594,1.9376,1.773,1.7694,1.7241,1.6083,1.5904,1.5705,1.5277,0.0,0.0,0.0,0.0,0.0,0.0,0.0,0.0,0.0,0.0,0.0,0.0,0.0,0.0,0.0,0.0,0.0,0.0,0.0,0.0,0.0,0.0,0.0,0.0,0.0,0.0,0.0,0.0,0.0,1.8405,2.0961,0.0,0.0,0.0,0.0,2.1511,2.2769,2.4703,2.7225,2.801,2.9362,3.1334,3.1957,3.2259,3.2203,3.2694,3.2738,3.2334,3.175,3.175,3.2208,3.1152,3.0959,3.1483,3.1483,3.1768,3.2074,2.9642,2.7413,2.5529,2.4415,2.3654,2.3078,2.326,2.3921,2.4788,2.5003,2.4446,2.3594,2.3166,2.1095,1.876,1.8452,1.7606,0.0,0.0,1.9123,1.9833,2.1963,2.342,2.4634,2.5448,2.6311,2.6886,2.6462,2.5555,2.4384,2.2834,2.1743,2.0905,2.0148,0.0,2.0236,2.0052,2.0279,2.064,2.1164,2.1803,2.2199,2.2149,2.2221,2.2026,2.1531,2.0978,2.0241,1.9137,1.8855,1.8359,1.7536,1.722,1.6586,1.5525,1.5377,0.0,0.0,0.0,0.0,0.0,0.0,0.0,0.0,0.0,0.0,0.0,0.0,0.0,0.0,0.0,0.0,0.0,0.0,0.0,0.0,0.0,0.0,0.0,0.0,0.0,0.0,0.0,0.0,2.1634,2.4273,0.0,2.3953,2.4984,2.6056,2.6948,2.8478,3.0232,3.223,3.2787,3.3788,3.5051,3.5619,3.5642,3.4916,3.5027,3.4497,3.3454,3.3136,3.3007,3.2787,3.2086,3.1973,3.2066,3.2148,3.2218,3.2364,3.1889,3.0902,2.9579,2.8474,2.7967,2.7648,2.7217,2.7788,2.861,2.6957,2.6616,2.652,2.4457,2.2787,2.1527,2.1238,2.0861,2.0818,2.1568,2.2475,2.3402,2.4444,2.5451,2.6346,2.6614,2.6974,2.7174,2.699,2.6404,2.575,2.5222,2.35,2.1973,2.1403,2.1654,2.1725,2.1077,2.2214,2.3147,2.2953,2.3494,2.3889,2.3813,2.2942,2.2083,2.1543,2.0639,1.962,1.8524,1.8289,1.7921,1.7171,1.7038,1.7039,1.7047,1.674,1.6008,0.0,0.0,0.0,0.0,0.0,0.0,0.0,0.0,0.0,0.0,0.0,0.0,0.0,0.0,0.0,0.0,0.0,0.0,0.0,0.0,0.0,0.0,0.0,0.0,0.0,2.1909,2.48,2.4523,2.7686,2.935,2.8066,2.9633,3.1004,3.1684,3.3158,3.4544,3.5749,3.6105,3.6679,3.7529,3.7474,3.7394,3.7299,3.6556,3.5825,3.5244,3.4534,3.4062,3.3933,3.3232,3.2911,3.2942,3.2915,3.2881,3.2734,3.317,3.2891,3.219,3.1318,3.1088,3.1132,3.0386,3.0846,3.1472,2.9115,2.8791,2.8888,2.6083,2.4786,2.4166,2.3596,2.3327,2.3447,2.3985,2.4783,2.5519,2.6097,2.6704,2.7231,2.7231,2.7231,2.7231,2.7231,2.7117,2.7056,2.6813,2.4969,2.3398,2.3201,2.34,2.3364,2.2953,2.4152,2.4942,2.4413,2.4809,2.5021,2.4845,2.3653,2.2573,2.1832,2.0794,1.9731,1.8794,1.8188,1.7846,1.775,1.7211,1.7062,1.7451,1.7158,1.6561,1.5682,0.0,0.0,0.0,0.0,0.0,0.0,0.0,0.0,0.0,0.0,0.0,0.0,0.0,0.0,0.0,0.0,0.0,0.0,0.0,0.0,0.0,0.0,0.0,2.1592,2.5519,2.8168,2.7222,3.1238,3.3375,3.1574,3.356,3.5129,3.56,3.6599,3.7379,3.7827,3.7885,3.8126,3.8619,3.7562,3.7638,3.9297,3.728,3.6782,3.7793,3.5776,3.5075,3.5543,3.4521,3.4012,3.405,3.4016,3.374,3.3327,3.3315,3.3304,3.3258,3.2718,3.2822,3.3224,3.2707,3.2822,3.2998,3.1495,3.1031,3.0627,2.8239,2.7125,2.653,2.563,2.4968,2.4786,2.5622,2.5863,2.6113,2.6996,2.7242,2.7231,2.7231,2.7231,2.7231,2.7231,2.7777,2.8104,2.7513,2.6118,2.5182,2.5787,2.5397,2.5265,2.5877,2.6119,0.0,2.54,2.549,2.541,2.4895,2.4343,2.3552,2.2435,2.1383,2.0637,2.0259,1.8794,1.8376,1.9322,1.7835,1.6871,1.6635,1.6635,1.648,1.6138,0.0,0.0,0.0,0.0,0.0,0.0,0.0,0.0,0.0,0.0,0.0,0.0,0.0,0.0,0.0,0.0,0.0,0.0,0.0,0.0,0.0,2.4401,2.6997,2.686,2.9807,3.2361,3.3446,3.5134,3.6207,3.6504,3.7416,3.8126,3.8252,3.9549,4.0066,3.9469,4.0135,4.0261,3.9675,3.9751,3.9528,3.9308,3.9133,3.8812,3.8355,3.7828,3.7244,3.6599,3.5974,3.547,3.506,3.4326,3.4153,3.4349,3.397,3.3809,3.3752,3.3258,3.3155,3.3269,3.312,3.2695,3.2144,3.1762,3.1086,3.0297,2.9636,2.9127,2.863,2.8442,2.7984,2.7581,2.7849,2.7685,2.7413,2.7687,2.7824,2.7938,2.7938,2.8235,2.8542,2.8542,2.87,2.8821,2.8663,2.7924,2.7342,2.7127,2.6832,2.6825,2.7222,2.6884,2.6609,2.6721,2.6113,2.5482,2.5211,2.4352,2.3505,2.2795,2.1443,2.0523,2.0233,1.9147,1.8708,1.9037,1.8588,1.8226,1.8003,1.7494,1.7036,0.0,0.0,0.0,0.0,0.0,0.0,0.0,0.0,0.0,0.0,0.0,0.0,0.0,0.0,0.0,0.0,0.0,0.0,0.0,0.0,0.0,0.0,2.8676,3.1605,3.2897,3.4059,3.5558,3.7462,3.8157,3.8896,3.979,4.0284,4.0571,4.0571,4.1191,4.1317,4.072,4.1053,4.1076,4.0709,4.0521,4.0487,4.0571,3.9984,3.9631,3.9515,3.8895,3.8263,3.7666,3.6932,3.6312,3.5795,3.4992,3.4693,3.4762,3.4222,3.4004,3.397,0.0,0.0,0.0,0.0,3.2914,3.234,3.1915,3.1364,3.079,3.0354,2.9894,2.9458,2.9228,2.8941,2.8609,2.8195,2.8035,2.7931,2.7713,2.793,2.8179,2.8179,2.8633,2.9081,2.9081,2.9328,2.9484,2.9484,2.9453,0.0,2.9062,2.828,2.772,2.8034,2.77,2.7321,2.7197,2.6834,2.6496,2.6202,2.5403,2.4566,2.3792,2.2147,0.0,0.0,0.0,1.8798,1.8693,1.8759,0.0,0.0,0.0,1.7733,1.7784,1.7252,0.0,0.0,1.6206,1.6037,0.0,0.0,0.0,0.0,0.0,0.0,0.0,0.0,0.0,0.0,0.0,0.0,0.0,0.0,0.0,0.0,3.3276,3.6576,3.8642,3.8123,3.8123,3.9938,4.058,4.1191,4.1696,4.2155,4.2419,4.2419,4.2109,4.1868,4.1753,4.1374,0.0,0.0,0.0,4.1001,4.2362,4.0703,4.0224,4.0923,3.9763,3.9059,3.8862,3.7927,3.7165,3.6541,3.5926,3.5465,3.4923,3.4395,3.4176,3.4153,3.3993,3.3694,3.3361,3.3304,3.3247,3.3063,3.2099,0.0,0.0,3.0537,2.9929,2.9493,2.901,2.8873,2.8689,2.7816,2.7851,2.8035,2.7612,2.7906,2.8411,2.8419,2.8858,2.9316,2.9316,2.9716,3.0114,3.0114,3.0596,3.0986,3.0986,2.9459,2.8331,2.8626,2.8477,2.8079,2.7276,2.7673,2.7868,2.7314,2.6823,0.0,2.4908,2.3193,2.1963,2.1373,1.9978,1.9054,1.8678,1.877,1.8809,1.8759,1.8367,1.8494,1.9186,1.8827,1.8774,1.8951,1.7241,1.699,0.0,0.0,0.0,0.0,0.0,0.0,0.0,0.0,0.0,0.0,0.0,0.0,0.0,0.0,0.0,3.1995,3.5597,3.87,4.0709,4.0437,4.0415,4.1204,4.1662,4.2247,4.2752,4.2878,4.2947,4.2947,4.3613,4.3659,4.2832,4.3074,4.3096,4.2809,4.2914,4.3027,4.2791,4.3647,4.3335,4.1895,4.2844,0.0,4.0302,4.0865,4.0009,3.7925,3.7382,3.6789,3.5944,3.5439,3.5221,3.5106,3.3901,3.3602,3.3821,3.343,3.3005,3.2558,3.1972,3.1502,3.1054,3.0422,3.0147,3.0055,2.9952,2.9917,0.0,2.9688,2.9424,2.9166,2.9244,2.9366,2.9579,2.9608,3.0114,3.0659,3.0659,3.0748,3.0823,3.0823,3.0911,3.0986,3.0986,3.0028,2.9436,2.9958,2.9106,2.835,2.8116,2.8015,2.7653,2.6873,2.6777,2.6257,2.5064,2.4391,2.3595,2.2695,2.1587,2.0758,2.0299,2.0265,2.0116,1.9737,1.9443,1.9245,1.9186,1.8881,1.8839,1.8987,1.8618,1.8533,0.0,0.0,0.0,0.0,0.0,0.0,0.0,0.0,0.0,0.0,0.0,2.4327,2.6827,0.0,3.2721,3.5715,3.8136,4.0146,4.1397,4.1799,4.196,4.196,4.219,4.2626,4.3372,4.3452,4.3556,4.3831,4.4588,4.4507,4.3475,4.4193,4.4594,4.4605,4.4357,4.4445,4.492,4.5159,4.4621,4.3336,4.3815,4.3252,4.1716,4.1357,4.055,3.931,3.8072,3.7299,3.6858,3.5929,3.552,3.5393,3.413,3.3786,3.3947,3.3465,3.312,3.281,3.2294,3.1961,3.1662,3.1157,3.0824,3.056,3.0296,3.0216,3.0203,3.0038,2.9811,2.9679,2.9821,2.993,2.9924,3.0023,3.0508,3.0986,3.0986,3.0986,3.0986,3.0986,3.0986,3.0986,3.0986,3.0527,3.0211,3.0482,2.9881,2.9272,2.9004,2.8797,2.8472,2.7755,2.7704,2.7429,2.6506,2.5332,2.4038,2.2799,2.1942,2.1381,2.1093,2.0856,2.0599,2.0372,2.0016,1.9747,1.9708,1.95,1.9448,1.9617,1.9759,1.9656,0.0,0.0,0.0,0.0,0.0,0.0,0.0,2.085,2.2028,2.4625,2.6467,2.8722,3.2336,3.4165,3.6054,3.9113,4.0536,4.1409,4.1811,4.266,4.3203,4.2928,4.2962,4.3332,4.414,4.4565,4.4883,4.5221,4.5717,4.5669,4.4743,4.5432,4.6129,4.6669,4.5694,4.5789,4.6971,4.6252,4.5482,4.4685,4.4476,4.3979,4.3165,4.1979,4.1208,4.0718,3.8778,3.7714,3.7489,3.6555,3.6179,3.598,3.4958,3.4439,3.4277,3.36,3.3281,3.3201,3.2673,3.2489,3.2397,3.1812,3.1435,3.109,3.0559,3.0476,3.0571,3.0346,3.0289,3.0254,3.0454,3.0465,3.0468,3.0407,3.0751,3.1117,3.1013,3.0986,3.0986,3.0986,3.1123,3.1185,3.1185,3.1048,3.0911,3.0698,3.0533,3.0239,2.9674,2.9609,2.9353,2.873,2.8872,2.8679,2.7893,2.6052,2.4255,2.2675,2.2113,2.1786,2.1681,2.1237,2.1,2.0882,2.0438,2.0169,2.0182,2.0003,2.0003,2.0118,2.051,2.0409,1.8838,1.867,2.0655,2.339,2.3852,2.4892,0.0,2.9648,2.9387,3.2191,3.365,3.4818,3.6168,3.8091,3.9664,4.0513,4.188,4.2855,4.2913,4.3384,4.4098,4.4948,4.548,4.58,4.5799,4.7135,4.7743,4.7316,4.7812,4.8057,4.7926,4.758,4.7697,4.8261,4.7658,4.7349,4.7387,4.7764,4.7171,4.58,4.6553,4.6103,4.4699,4.4956,4.4094,4.2296,4.0331,3.8715,3.7512,3.8194,3.8392,3.8331,3.7032,3.6196,3.5549,3.3916,3.3281,3.3201,3.2673,3.2489,3.2328,3.1398,3.1495,3.1778,3.1281,3.1637,3.2016,3.1993,3.2043,3.2007,3.2139,3.2212,3.2085,3.1669,3.1667,3.1614,3.1091,3.0986,3.0986,3.0986,3.1529,3.2015,3.2015,3.1942,3.1663,3.0849,3.0698,3.0478,2.9809,2.9904,2.9634,2.8525,2.9347,2.9308,2.7691,2.64,2.4914,2.3237,2.3067,2.2805,2.2336,2.223,2.1969,2.142,2.0989,2.0628,2.0182,1.9823,1.9708,1.985,2.0597,2.0795,2.2467,2.2571,2.3872,2.6163,2.7432,2.8851,3.1525,3.1933,3.262,3.5244,3.7035,3.847,3.9492,4.0858,4.1983,4.2477,4.3096,4.351,4.351,4.3938,4.429,4.4389,4.5643,4.6634,4.6936,4.7066,4.726,4.7629,4.8091,4.8193,4.7568,4.783,4.8196,4.8434,4.7841,4.7809,4.8438,4.8237,4.7665,4.6746,4.6768,4.6299,4.5365,4.4804,4.3523,4.1529,4.0442,3.934,3.8255,3.8687,3.8792,3.8638,3.728,3.643,3.586,3.4252,3.3522,3.3346,3.3574,3.359,3.3617,3.3672,3.369,3.3514,3.298,3.2784,3.282,3.2946,3.2694,3.2563,3.3026,3.2881,3.251,3.1954,3.1759,3.1679,3.1104,3.0986,3.0986,3.0986,3.1603,3.2074,3.2074,3.2434,3.2448,3.1676,3.1123,3.0875,3.0953,3.0181,2.9314,2.8464,2.8817,2.8673,2.7615,2.6778,2.572,2.4321,2.3589,2.3106,2.2871,2.2557,2.2269,2.2047,2.1523,2.112,2.094,2.059,2.0422,2.0523,2.1006,2.1166,2.4565,2.5406,2.66,2.854,3.087,3.2845,3.3499,3.4429,3.5784,3.8034,3.989,4.1306,4.1948,4.2835,4.3576,4.3556,4.3716,4.3808,4.3808,4.4267,4.4397,4.4135,4.5225,4.6377,4.7507,4.7232,4.7332,4.8259,4.8594,4.8642,4.8196,4.8544,4.8825,4.8991,4.8301,4.8318,4.9087,4.8486,4.7976,4.7558,4.6826,4.6264,4.582,4.4643,4.3122,4.1301,4.108,4.0322,3.9419,3.9478,3.9531,3.939,3.8167,3.7273,3.6505,3.5336,3.4303,3.3744,3.4495,3.4775,3.4751,3.5196,3.5169,3.4718,3.4136,3.3781,3.3545,3.3671,3.3334,3.3181,3.3714,3.3496,3.2986,3.2254,3.2071,3.1875,3.1143,3.1123,3.1334,3.1334,3.2087,3.2706,3.2706,3.3129,3.3353,3.2777,3.1882,3.1343,3.1548,3.0385,2.9353,2.8908,2.8726,2.8333,2.7589,2.7144,2.6412,2.5275,2.4256,2.3694,2.3694,2.3145,2.2779,2.2635,2.2204,2.1904,2.1747,2.1325,2.1136,2.1136,2.126,2.1277,2.3734,2.5735,2.7897,3.0905,3.4268,3.7115,3.8149,3.9136,4.0295,4.1857,4.3083,4.3647,4.3193,4.3939,4.4333,4.3237,4.3498,4.3808,4.3808,4.4138,4.4511,4.511,4.4573,4.4954,4.708,4.8316,4.9189,4.975,4.9897,5.0368,5.1354,5.0485,5.0159,5.0747,4.9675,4.9087,4.9087,4.8486,4.8172,4.8146,4.7022,4.6473,4.6408,4.5245,4.3937,4.2589,4.2785,4.2099,4.0897,4.1116,4.1211,4.111,4.0364,3.936,3.8273,3.7357,3.5975,3.4483,3.5271,3.5571,3.5485,3.4957,3.489,3.4882,3.4375,3.426,3.4327,3.4397,3.4384,3.4371,3.4371,3.4358,3.4071,3.2934,3.2659,3.2359,3.1222,3.1529,3.2087,3.2087,3.3269,3.423,3.423,3.4245,3.4245,3.4245,3.2989,3.1809,3.1075,3.049,3.0098,3.0085,2.9588,2.8778,2.7628,2.751,2.7013,2.5876,2.5236,2.497,2.497,2.4374,2.3785,2.321,2.3171,2.2884,2.2389,2.176,2.1485,2.1472,2.1162,2.0997,2.634,2.9334,3.2454,3.5531,3.793,3.9905,4.126,4.2436,4.331,4.3714,4.2934,4.2124,4.1852,4.1094,4.0727,4.1161,4.3086,4.4454,4.4807,4.6075,4.6352,4.4586,4.4788,4.4856,4.4444,4.6225,4.7911,4.9257,4.8982,4.91,4.9884,4.9178,4.8852,4.9061,4.8682,4.8486,4.8486,4.829,4.8185,4.8172,4.7022,4.6068,4.5297,4.4513,4.3948,4.3381,4.2762,4.2228,4.1788,4.1445,4.1311,4.1172,3.9955,3.903,3.8333,3.766,3.6768,3.5941,3.6238,3.6094,3.5911,3.659,3.6637,3.6302,3.6108,3.5817,3.5456,3.5103,3.4711,3.4397,3.4397,3.4397,3.4201,3.347,3.2986,3.2489,3.1718,3.1809,3.2074,3.2074,3.3255,3.4312,3.4312,3.4758,3.4905,3.438,3.3832,3.2828,3.1176,3.1222,3.1089,3.0176,2.9261,2.8516,2.8124,2.7392,2.6791,2.6412,2.585,2.5367,2.4988,2.4792,2.44,2.3825,2.342,2.2936,2.2415,2.1786,2.1315,2.0987,2.0841,2.0799,2.9958,3.307,3.6094,3.9159,4.1161,4.2648,4.3764,4.459,4.5158,4.4852,4.3044,4.1169,4.0254,3.9098,3.8339,3.8489,4.061,4.2579,4.3676,4.4642,4.4973,4.4194,4.4544,4.4643,4.3742,4.4983,4.6499,4.8041,4.8172,4.8447,4.9048,4.8512,4.829,4.8499,4.829,4.8185,4.8185,4.7989,4.7675,4.7257,4.6525,4.5663,4.4722,4.4343,4.4068,4.382,4.2879,4.2356,4.2121,4.1546,4.1311,4.1159,4.005,3.9274,3.871,3.8146,3.7582,3.7108,3.7108,3.6878,3.6726,3.7586,3.7495,3.6972,3.675,3.6279,3.5704,3.5142,3.4698,3.4397,3.4397,3.4397,3.4254,3.3718,3.313,3.2594,3.2228,3.2313,3.2574,3.2781,3.3856,3.4758,3.4758,3.4905,3.4706,3.3685,3.3888,3.3592,3.2009,3.1937,3.1616,3.0612,2.9771,2.9052,2.8438,2.7706,2.7196,2.6987,2.6438,2.5968,2.5589,2.538,2.5001,2.4426,2.4047,2.3572,2.2976,2.2353,2.186,2.1524,2.1309,2.1131,3.4211,3.684,3.8768,4.1719,4.3916,4.5407,4.5536,4.5857,4.5896,4.522,4.3078,4.0658,3.8395,3.7879,3.7181,3.5432,3.679,3.8718,4.1004,4.0906,4.1434,4.3915,4.4113,4.4225,4.4761,4.4813,4.5284,4.6395,4.7506,4.8407,4.9008,4.8525,4.8473,4.9022,4.8486,4.8185,4.8185,4.7623,4.6774,4.5676,4.5637,4.5297,4.4683,4.4683,4.4369,4.3794,4.3219,4.267,4.2121,4.1546,4.1298,4.1206,4.0605,4.0043,3.9494,3.8893,3.8344,3.79,3.79,3.7887,3.7861,3.79,3.7469,3.6854,3.6305,3.5757,3.5182,3.4607,3.4424,3.4397,3.4397,3.4397,3.4267,3.3757,3.3169,3.2725,3.2698,3.2969,3.3438,3.3986,3.4845,3.5504,3.5504,3.4839,3.3754,3.2362,3.3339,3.3988,3.3297,3.2509,3.1858,3.149,3.1216,3.0406,2.8746,2.8507,2.8164,2.7562,2.7013,2.6713,2.6674,2.6151,2.5589,2.5035,2.4996,2.4628,2.3974,2.3378,2.3026,2.2888,2.2314,2.1813,3.728,3.9817,4.235,4.4654,4.5622,4.6203,4.6827,4.7109,4.6193,4.3131,3.9778,3.6639,3.4092,3.305,3.341,3.5824,3.9369,4.2544,4.4898,4.6114,4.6733,4.6562,4.6139,4.5702,4.5428,4.5794,4.6159,4.646,4.714,4.7806,4.8381,4.8695,4.8721,4.842,4.8264,4.8185,4.8185,4.7623,4.697,4.6264,4.5833,4.5088,4.4081,4.4081,4.3781,4.3206,4.2631,4.2304,4.2121,4.1546,4.105,4.0592,4.003,3.9455,3.8867,3.8318,3.8018,3.79,3.79,3.7612,3.7312,3.7756,3.7194,3.6384,3.6684,3.6083,3.526,3.5103,3.475,3.4397,3.4397,3.4397,3.4358,3.4228,3.377,3.3247,3.279,3.3295,3.3803,3.3508,3.454,3.5504,3.5504,3.4356,3.3353,3.3003,3.2777,3.2894,3.3655,3.415,3.4496,3.485,3.3512,3.2236,3.1474,2.995,2.8815,2.8289,2.7644,2.7118,2.6687,2.653,2.5981,2.5048,2.493,2.4332,2.3311,2.3151,2.2594,2.1821,2.1671,2.1313,4.037,4.2627,4.4829,4.6155,4.6967,4.7133,4.5822,4.5497,4.4318,3.9685,3.5824,3.2909,3.1211,3.0676,3.1348,3.3971,3.7791,4.1556,4.4418,4.5623,4.6417,4.7257,4.7048,4.6734,4.6408,4.6669,4.6957,4.7205,4.7519,4.7845,4.8159,4.8512,4.8538,4.8198,4.8185,4.7937,4.744,4.6878,4.629,4.5702,4.5127,4.4513,4.3859,4.3611,4.318,4.2631,4.2304,4.203,4.1768,4.1442,4.0958,4.0357,3.9821,3.9246,3.8645,3.8109,3.79,3.79,3.79,3.7678,3.7456,3.7795,3.726,3.6642,3.7414,3.6957,3.6396,3.6804,3.6441,3.5817,3.5515,3.515,3.4868,3.4481,3.3979,3.3561,3.347,3.3553,3.3598,3.3675,3.4138,3.4505,3.4505,3.3506,3.2577,3.2318,3.216,3.2559,3.3859,3.4721,3.5254,3.5267,3.4514,3.3429,3.2061,3.0856,2.9754,2.8549,2.8157,2.7696,2.7066,2.7366,2.7057,2.6201,2.6108,2.5591,2.4654,2.4128,2.3371,2.2516,2.2228,2.1703,4.3553,4.5455,4.6622,4.7209,4.8127,4.7888,4.3929,4.2729,4.0991,3.544,3.1944,2.9627,2.8928,2.9419,3.036,3.1749,3.5005,3.8646,4.2447,4.2874,4.3963,4.7117,4.7427,4.7401,4.7558,4.7492,4.7689,4.8264,4.8237,4.8185,4.8185,4.8264,4.8237,4.8081,4.8068,4.7558,4.6486,4.5911,4.5362,4.4839,4.4264,4.3912,4.3742,4.3245,4.267,4.2056,4.2056,4.1768,4.1311,4.1311,4.0919,4.0265,3.9795,3.9194,3.8553,3.807,3.79,3.79,3.79,3.79,3.79,3.79,3.7533,3.725,3.8095,3.7966,3.7744,3.8667,3.8327,3.7543,3.6921,3.6144,3.5345,3.4551,3.4031,3.3809,3.4201,3.3607,3.3262,3.402,3.363,3.3213,3.3213,3.2577,3.1942,3.1408,3.1809,3.2698,3.4015,3.4721,3.5039,3.486,3.5068,3.4412,3.2283,3.1744,3.0783,2.8981,2.8651,2.8287,2.7776,2.8222,2.8261,2.7851,2.7704,2.7301,2.6563,2.553,2.4558,2.3774,2.3364,2.249,4.6597,4.7536,4.8379,4.9257,4.8712,4.6971,4.4048,4.1376,3.7776,3.1298,2.8974,2.7514,2.5459,2.6951,2.977,3.3897,3.6584,3.9928,4.509,4.5357,4.5956,4.8499,4.7924,4.7715,4.8682,4.8329,4.829,4.8891,4.846,4.8185,4.8185,4.8656,4.8486,4.7519,4.7479,4.7153,4.6486,4.5911,4.5571,4.5467,4.4866,4.4081,4.3167,4.3075,4.2448,4.1468,4.1468,4.1415,4.1311,4.1311,4.0697,3.9743,3.9651,3.8972,3.8031,3.7939,3.79,3.79,3.79,3.79,3.79,3.79,3.7603,3.7475,3.822,3.8172,3.7956,3.8704,3.7935,3.6921,3.6757,3.5651,3.4551,3.4481,3.4332,3.4162,3.3809,3.3341,3.3042,3.334,3.3283,3.3213,3.3213,3.2577,3.229,3.2733,3.2946,3.3325,3.4185,3.4831,3.5904,3.7486,3.6645,3.588,3.5629,3.3432,3.1744,3.1008,2.9434,2.8725,2.9129,2.8712,2.8515,2.854,2.7911,2.7044,2.596,2.563,2.4732,2.3245,2.3632,2.2976,4.7763,4.8682,4.9348,4.9583,4.8544,4.6077,4.076,3.7572,3.3859,2.6966,2.5479,2.5245,2.4499,2.6217,2.8976,3.2533,3.5114,3.832,4.2706,4.3841,4.514,4.7453,4.7492,4.7558,4.812,4.8185,4.8185,4.8172,4.8185,4.8316,4.8629,4.8629,4.8224,4.7362,4.7048,4.6617,4.6042,4.5454,4.5009,4.4709,4.4121,4.3402,4.2565,4.2265,4.1834,4.1311,4.1311,4.1311,4.1311,4.1311,4.0644,3.9612,3.9612,3.8906,3.79,3.79,3.79,3.7992,3.8395,3.8549,3.8639,3.9162,3.8654,3.8129,3.9219,3.9521,3.9662,4.0306,3.9548,3.8246,3.7359,3.6114,3.495,3.4481,3.4397,3.4241,3.3705,3.3199,3.293,3.3051,3.2536,3.2173,3.2577,3.2028,3.1809,3.2506,3.2648,3.3059,3.4177,3.4574,3.5297,3.6738,3.6556,3.6103,3.5519,3.3847,3.2483,3.1526,3.0244,2.9345,2.903,2.9345,2.9128,2.8221,2.8147,2.7698,2.6793,2.6076,2.4969,2.3608,2.3899,2.3118,4.8441,4.9709,5.0321,4.9645,4.8154,4.483,3.7616,3.3947,3.0295,2.357,2.268,2.3247,2.3862,2.5448,2.755,3.007,3.2437,3.544,3.9469,4.1286,4.3362,4.6159,4.6774,4.7113,4.7479,4.7806,4.7858,4.7545,4.7819,4.8211,4.8682,4.825,4.7689,4.6996,4.6408,4.5833,4.5258,4.4657,4.4134,4.3689,4.3245,4.2722,4.2147,4.1703,4.1428,4.1311,4.1311,4.1311,4.1311,4.1167,4.0527,3.9599,3.9468,3.8802,3.79,3.8148,3.8148,3.8317,3.9224,3.9461,3.9637,4.0332,3.9856,3.9225,4.0506,4.1087,4.1441,4.1709,4.0865,3.9447,3.7786,3.6387,3.5277,3.4551,3.4397,3.4214,3.3548,3.3025,3.2633,3.2595,3.1726,3.1198,3.1736,3.1394,3.1259,3.2015,3.2218,3.2777,3.4095,3.4461,3.4824,3.5424,3.5968,3.5908,3.4981,3.4038,3.3062,3.1977,3.1006,3.0025,2.8967,2.978,2.9543,2.7975,2.826,2.8111,2.7307,2.6317,2.5208,2.4121,2.4239,2.3433,4.9386,5.0968,5.1341,5.0793,4.7742,4.3347,3.7171,3.2667,2.8198,2.2657,2.1793,2.2088,2.2134,2.3075,2.4737,2.7543,2.8976,3.1921,3.8018,3.9453,4.1479,4.6016,4.6068,4.6395,4.795,4.7689,4.761,4.8068,4.7675,4.744,4.7492,4.744,4.6917,4.582,4.5232,4.4643,4.4042,4.3467,4.3154,4.3101,4.3049,4.2722,4.216,4.2108,4.1808,4.1311,4.1311,4.1311,4.1272,4.0723,4.0148,3.956,3.9011,3.8436,3.7992,3.8792,3.9033,3.921,4.0159,4.0504,4.0504,4.0589,4.07,4.0905,4.1623,4.2041,4.2123,4.1412,4.0101,3.8636,3.7126,3.5608,3.4481,3.4397,3.4397,3.4097,3.3012,3.2725,3.2372,3.135,3.1088,3.0986,3.1123,3.1048,3.1259,3.2015,3.2648,3.3422,3.4177,3.492,3.5439,3.5504,3.5564,3.5789,3.6252,3.4577,3.3469,3.3333,3.1511,3.045,3.0329,2.9827,2.9299,2.8587,2.8091,2.7283,2.6144,2.5927,2.5205,2.4105,2.4681,2.423,4.9092,5.0903,5.1309,5.0067,4.5961,4.0874,3.578,3.0344,2.5477,2.1999,2.1319,2.143,2.1804,2.2501,2.3479,2.4891,2.6024,2.8168,3.2364,3.4652,3.78,4.277,4.4063,4.5258,4.6996,4.7571,4.7793,4.7689,4.714,4.6669,4.6329,4.663,4.6447,4.565,4.5075,4.4487,4.3885,4.331,4.2853,4.2513,4.2513,4.2213,4.1651,4.1651,4.1533,4.1311,4.1311,4.1311,4.1298,4.105,4.0422,3.9669,3.996,3.9545,3.8805,3.9738,4.0073,4.0159,4.1113,4.1463,4.1489,4.1607,4.1997,4.2334,4.2082,4.2062,4.1938,4.1076,3.9521,3.7798,3.6668,3.5331,3.4397,3.4397,3.4397,3.4188,3.3404,3.2947,3.245,3.1653,3.1222,3.0986,3.0986,3.0986,3.1259,3.2015,3.272,3.3492,3.4245,3.4986,3.5504,3.5504,3.5504,3.5609,3.5878,3.4412,3.3499,3.3499,3.2005,3.0896,3.0524,3.0269,2.9298,2.7594,2.7277,2.658,2.5369,2.5306,2.4896,2.4125,2.47,2.4334,4.6746,4.945,5.0681,4.8995,4.4331,3.8894,3.4462,2.8758,2.3736,2.1479,2.0967,2.1005,2.151,2.1996,2.2398,2.2914,2.3875,2.5633,2.8575,3.1008,3.43,3.9119,4.0721,4.2423,4.522,4.6934,4.7702,4.7127,4.6552,4.5976,4.5401,4.5584,4.5532,4.5114,4.4382,4.3807,4.3376,4.2801,4.2317,4.1912,4.1912,4.1703,4.1311,4.1311,4.1311,4.1311,4.1128,4.105,4.1023,4.0684,4.025,3.9772,4.0291,4.0136,3.9724,4.0689,4.0915,4.0843,4.1782,4.2005,4.185,4.2052,4.2521,4.2842,4.1726,4.1849,4.2068,4.0505,3.8544,3.6655,3.5811,3.4999,3.4397,3.4397,3.428,3.4005,3.3443,3.2855,3.2267,3.1705,3.1261,3.0986,3.0986,3.0986,3.1198,3.1676,3.2376,3.3143,3.3905,3.4691,3.5213,3.5504,3.5504,3.5429,3.522,3.4158,3.341,3.3215,3.1961,3.0896,3.0208,3.0025,2.882,2.6526,2.6499,2.5908,2.4713,2.4713,2.4517,2.4125,2.453,2.4269,4.2192,4.6511,4.9492,4.778,4.3031,3.7846,3.3696,2.8309,2.352,2.1167,2.0786,2.0903,2.0903,2.1106,2.1342,2.1858,2.2788,2.4606,2.8023,2.947,3.16,3.5605,3.5812,3.748,4.246,4.5628,4.71,4.6525,4.5963,4.5388,4.4813,4.4225,4.3899,4.3885,4.2788,4.2186,4.2186,4.1625,4.1324,4.1324,4.1324,4.1324,4.1311,4.1311,4.1311,4.1285,4.0684,4.0422,4.0331,3.9207,3.927,4.0001,3.9468,3.9826,4.0689,4.1645,4.1599,4.1128,4.2045,4.1953,4.1399,4.1384,4.1833,4.216,4.0593,4.1612,4.2634,3.9619,3.7123,3.5168,3.4567,3.441,3.4397,3.4397,3.3979,3.343,3.2829,3.2254,3.1679,3.1104,3.0986,3.0986,3.0986,3.0986,3.0986,3.0986,3.1676,3.2362,3.3143,3.3837,3.461,3.5424,3.5504,3.5235,3.4547,3.3873,3.3215,3.2557,3.1263,3.0208,2.9566,2.8839,2.7672,2.585,2.5824,2.5262,2.4125,2.4125,2.4125,2.4112,2.4125,2.4112,3.6739,3.9247,4.0667,3.9259,3.5086,3.0807,2.8704,2.3942,1.9907,1.9744,1.9248,1.9204,2.007,2.0256,2.0602,2.1604,2.2287,2.3361,2.5296,2.8542,3.2007,3.5662,3.9816,4.3174,4.5135,4.5122,4.5062,4.5258,4.4395,4.3768,4.3585,4.3023,4.2892,4.3271,4.2565,4.216,4.216,4.1598,4.1311,4.1311,4.0893,4.0919,4.1298,4.0893,4.0697,4.0684,4.0501,4.0213,3.9834,4.0187,4.0237,4.0196,4.1278,4.1653,4.1645,4.2578,4.2782,4.2604,4.2936,4.2596,4.1983,4.1534,4.1107,4.0568,3.9179,3.9722,4.0217,3.7272,3.5844,3.5155,3.4554,3.4397,3.4397,3.4397,3.3979,3.343,3.2816,3.2241,3.1666,3.1091,3.0986,3.0986,3.0986,3.0986,3.0986,3.0986,3.1603,3.2146,3.2434,3.3547,3.438,3.4677,3.5198,3.5415,3.519,3.4143,3.3196,3.2526,3.1241,3.0208,2.9504,2.8839,2.8052,2.7144,2.6258,2.5458,2.4687,2.4308,2.4112,2.4112,2.4112,2.4216,3.1492,3.4284,3.5612,3.4292,3.0633,2.7031,2.5564,2.1652,1.8386,1.8824,1.8577,1.8588,1.9627,1.9845,2.0165,2.1136,2.1902,2.2889,2.451,2.7825,3.139,3.5132,4.0479,4.3955,4.3971,4.4079,4.416,4.4095,4.3428,4.2931,4.2709,4.2356,4.2239,4.2383,4.203,4.1847,4.1847,4.1494,4.1311,4.1311,4.071,4.0618,4.0958,4.037,4.0109,4.0109,3.9873,3.9764,0.0,4.017,4.0556,4.0932,4.2037,4.249,4.2578,4.309,4.303,4.2626,4.288,4.2372,4.1594,4.1018,3.9886,3.8578,3.7841,3.8008,3.8089,3.6307,3.5542,3.5155,3.4554,3.4241,3.4097,3.4097,3.3496,3.2829,3.245,3.1927,3.1418,3.1052,3.0986,3.0986,3.0986,3.0986,3.0986,3.0986,3.1394,3.1809,3.2074,3.2918,3.3547,3.3837,3.4341,3.4639,3.4639,3.3711,3.2856,3.214,3.0645,2.9594,2.9142,2.8251,2.7568,2.6966,2.6034,2.5223,2.4648,2.4282,2.4112,2.4112,2.439,2.4536,0.0,3.0587,3.2959,3.1447,2.8548,2.5609,2.3816,2.0843,0.0,1.843,1.8479,1.8802,1.9463,1.9614,1.9865,2.056,2.1531,2.3003,2.5368,2.7603,3.0489,3.4525,3.8736,4.0901,3.9921,4.271,4.4108,4.3036,4.2918,4.267,4.2236,4.2197,4.1961,4.1424,4.1311,4.1311,4.1311,4.1272,4.1259,4.1246,4.0605,4.0318,4.0344,3.9795,3.9547,3.9507,3.8945,3.9217,4.0024,3.953,4.0332,4.199,4.2073,4.2578,4.3329,4.3329,4.2566,4.1609,4.2222,4.1564,4.0308,3.9833,3.8229,3.6414,3.6524,3.6428,3.6414,3.6524,3.5885,3.5103,3.4502,3.3966,3.3587,3.3535,3.2659,3.1759,3.1759,3.1392,3.0986,3.0986,3.0986,3.0986,3.0986,3.0986,3.0986,3.0986,3.0986,3.1259,3.1942,3.2087,3.2362,3.3073,3.3143,3.3213,3.3213,3.2758,3.2164,3.1445,2.9581,2.8454,2.8363,2.7273,2.6412,2.5837,2.5262,2.4687,2.4112,2.4112,2.4112,2.4171,2.4808,2.4951,2.0587,0.0,2.2811,2.2457,2.1091,1.9772,0.0,1.8084,1.7126,1.7194,1.7194,1.7509,1.8394,1.8556,1.9027,2.0621,2.1382,2.2689,2.5356,3.0745,3.5185,3.7426,4.0539,4.1763,3.9773,4.1529,4.2657,4.2396,4.1964,4.1939,4.2632,4.1881,4.1828,4.2431,4.1683,4.1311,4.1311,4.0853,4.0631,4.0618,3.9599,3.9351,3.9782,3.9194,3.8919,3.8919,3.8776,3.8978,3.9503,4.0041,4.0944,4.2073,4.2739,4.3076,4.3329,4.3329,4.3135,4.2895,4.3045,4.1818,3.9775,3.7438,3.6305,3.5805,3.5163,3.4927,3.4927,3.4927,3.4761,3.4476,3.3927,3.3692,3.347,3.3012,3.2359,3.1759,3.1759,3.1392,3.0986,3.0986,3.0986,3.0986,3.0986,3.0986,3.0986,3.0986,3.0986,3.1048,3.1259,3.1736,3.2146,3.2362,3.2861,3.3213,3.3213,3.2224,3.1382,3.0699,2.9313,2.8085,2.7142,2.6868,2.6412,2.5837,2.5262,2.4687,2.4112,2.4112,2.4216,2.4408,2.4567,2.4865,1.7557,1.8304,1.8964,1.8696,1.8132,1.7515,1.7301,1.6884,1.6534,1.6694,1.6694,1.7037,1.802,1.8676,1.9296,1.9987,2.211,2.4773,2.7722,3.1689,3.525,3.7999,3.9895,4.0961,4.073,4.1591,4.2056,4.1794,4.1954,4.2128,4.2303,4.2207,4.222,4.2385,4.1834,4.1406,4.1311,4.0723,4.0409,4.0396,3.9259,3.888,3.9181,3.8606,3.8344,3.8344,3.8344,3.8933,3.9899,4.0418,4.1365,4.2659,4.309,4.3329,4.3299,4.3,4.2701,4.2354,4.2011,4.0546,3.858,3.6783,3.5858,3.5405,3.4643,3.4397,3.4397,3.4397,3.4214,3.3966,3.3666,3.3195,3.2712,3.2372,3.1862,3.152,3.1858,3.1408,3.1123,3.1468,3.1259,3.0986,3.0986,3.0986,3.0986,3.0986,3.0986,3.1061,3.1272,3.1468,3.1676,3.1823,3.1784,3.1765,3.1765,3.0733,3.016,3.0365,2.8946,2.7656,2.6764,2.6412,2.589,2.5066,2.4546,2.4188,2.4112,2.4112,2.4216,2.4509,2.4851,2.516,1.6181,1.7353,1.8391,1.767,1.7286,1.6946,1.655,1.6363,1.6316,1.6467,1.6581,1.6953,1.8312,1.9188,1.9695,1.9878,2.3695,2.7855,3.1332,3.2469,3.4174,3.7514,3.8582,3.9788,4.1419,4.1896,4.1892,4.1406,4.2202,4.2576,4.2164,4.2786,4.2786,4.1949,4.1774,4.1555,4.1235,4.0723,4.0337,4.0135,3.9346,3.8846,3.8566,3.8359,3.8239,3.8148,3.8239,3.9251,4.0845,4.0675,4.1569,4.2912,4.2823,4.2778,4.2545,4.2075,4.1602,4.1035,4.01,3.8619,3.715,3.6428,3.5618,3.4803,3.4293,3.4136,3.4162,3.4241,3.394,3.3574,3.3483,3.2712,3.198,3.198,3.1599,3.1466,3.209,3.1743,3.1542,3.216,3.1676,3.1198,3.1198,3.1048,3.0986,3.0986,3.1061,3.1198,3.1556,3.1272,3.1198,3.1556,3.0684,3.0137,3.0137,2.9052,2.8844,3.0011,2.8437,2.717,2.6505,2.579,2.4984,2.4008,2.3582,2.3641,2.4112,2.4171,2.4319,2.4567,2.5245,2.555,1.5904,1.7355,1.8342,1.6629,1.6052,1.5936,1.5856,1.5846,1.5904,1.6114,1.6306,1.7222,1.9843,1.9091,1.9105,2.2378,2.6234,3.0264,3.4743,3.6702,3.7738,3.7795,3.9594,4.027,3.8582,4.0566,4.1868,4.1678,4.2103,4.2669,4.3486,4.2852,4.2404,4.2432,4.1521,4.1111,4.1019,4.0924,4.0268,3.8958,3.9864,3.9462,3.811,3.9543,3.9738,3.9046,3.9826,4.0774,4.1767,4.1151,4.1163,4.1427,4.0792,4.0191,3.9534,3.9434,3.9816,4.013,3.8731,3.724,3.5845,3.4497,3.3658,3.3077,3.2986,3.2947,3.3064,3.3574,3.3652,3.347,3.296,3.2698,3.2555,3.2555,3.2638,3.2725,3.2874,3.2891,3.2875,3.3003,3.2448,3.1942,3.1942,3.1394,3.0986,3.0986,3.1272,3.1556,3.1556,3.1556,3.1556,3.1556,3.0684,3.0137,3.0137,2.9052,2.8481,2.8697,2.7957,2.6855,2.5422,2.4325,2.3701,2.3522,2.3463,2.3641,2.4112,2.4319,2.4593,2.4935,2.53,2.5647,1.5449,1.6168,1.688,1.7032,1.7802,1.8438,1.8247,1.8122,1.7874,1.7502,1.7521,1.8362,2.0798,2.1395,2.3322,2.8553,2.9295,3.0617,3.4703,3.5086,3.5583,3.7194,3.8105,3.8678,3.9201,4.056,4.1341,4.1341,4.2418,4.2922,4.2609,4.2653,4.2216,4.1266,4.0723,4.0278,3.9734,4.0723,4.0935,4.021,3.9446,3.9251,3.9326,3.9335,3.9609,3.9958,3.9634,4.0219,4.1343,4.0287,4.0095,4.0452,3.975,3.9249,3.8855,3.8164,3.7831,3.7531,3.6189,3.5219,3.4419,3.3448,3.2921,3.2751,3.3077,3.2947,3.2751,3.3025,3.2881,3.2725,3.3397,3.3079,3.276,3.3247,3.3457,3.3601,3.401,3.372,3.3547,3.3905,3.3071,3.2277,3.2165,3.1297,3.0918,3.17,3.1155,3.1052,3.2164,3.1343,3.0743,3.105,2.9645,2.8856,2.9157,2.8124,2.7455,2.7481,2.6696,2.5715,2.4653,2.3579,2.3125,2.3403,2.3403,2.3806,2.462,2.4808,2.4913,2.4942,2.5562,2.5602,1.4869,1.5468,1.6205,1.7643,1.8826,1.9781,2.0522,2.0226,1.9823,1.9645,1.9681,2.028,2.2021,2.4189,2.7329,3.2441,3.17,3.1669,3.4968,3.4336,3.4591,3.7471,3.7291,3.7971,4.0518,4.079,4.0835,4.0882,4.2335,4.2595,4.1284,4.2077,4.171,4.0056,3.9938,3.9567,3.8846,4.0019,4.0733,4.0984,3.9598,3.9472,4.0364,3.9424,3.9564,4.0448,3.958,3.9937,4.1011,3.9453,3.9182,3.9499,3.8545,3.7919,3.7588,3.6632,3.5696,3.4901,3.4339,3.3686,3.313,3.279,3.2515,3.2385,3.2842,3.2659,3.2319,3.245,3.2084,3.1978,3.3463,3.3342,3.3148,3.4062,3.4396,3.4707,3.5124,3.4672,3.4321,3.4604,3.3492,3.2464,3.2344,3.1306,3.0897,3.2058,3.1089,3.0801,3.225,3.091,2.9979,3.0237,2.8486,2.751,2.7941,2.7053,2.6518,2.6473,2.56,2.4836,2.4223,2.3306,2.299,2.3364,2.3364,2.3922,2.4955,2.5191,2.5282,2.5307,2.5948,2.576,1.4402,1.6107,1.7869,1.7854,1.692,1.7063,2.0839,2.052,2.0084,2.2295,2.2849,2.3246,2.4045,2.6306,2.8513,2.9917,3.234,3.5058,3.795,3.829,3.8708,3.9985,3.9659,3.9952,4.1558,4.0786,4.0316,4.06,4.0979,4.0879,4.0213,4.0764,4.0674,3.9648,3.9417,3.9264,3.9176,3.8461,3.8538,3.9353,4.1218,4.1252,3.9732,4.0754,4.0724,4.0097,4.0834,4.1247,4.1232,3.9682,3.8695,3.7929,3.6493,3.5157,3.4004,3.4089,3.3614,3.3107,3.4322,3.3499,3.2045,3.2529,3.1967,3.1117,3.1156,3.1143,3.1222,3.1744,3.1496,3.1313,3.2542,3.341,3.4233,3.4901,3.587,3.6517,3.5856,3.576,3.5649,3.5091,3.365,3.2611,3.2547,3.1809,3.1268,3.1377,3.1547,3.1495,3.1031,3.0425,2.9789,2.9201,2.771,2.6752,2.6791,2.6229,2.5858,2.5876,2.5329,2.4771,2.424,2.3634,2.3301,2.3293,2.3293,2.3836,2.4889,2.528,2.5773,2.6385,2.6678,2.6505,1.3736,1.5684,1.7634,1.7595,1.7759,1.9061,2.3379,2.3706,2.3356,2.4129,2.5187,2.6065,2.6467,2.9621,3.209,3.218,3.4366,3.6625,3.8488,3.871,3.9011,3.9821,3.9403,3.9223,3.9785,3.9379,3.9114,3.9216,3.9562,3.9513,3.9089,3.9243,3.9123,3.8572,3.8456,3.8395,3.8395,3.9162,3.9311,3.8681,3.9466,4.0353,4.1309,4.0349,4.0253,4.0837,4.0353,4.0382,4.0636,3.8601,3.7345,3.6564,3.4643,3.3516,3.304,3.2736,3.2922,3.3262,3.304,3.2659,3.2346,3.2215,3.1627,3.1052,3.1418,3.1261,3.1104,3.1679,3.1679,3.1769,3.279,3.3395,3.4017,3.554,3.6467,3.6881,3.6423,3.6321,3.5967,3.4744,3.3668,3.2961,3.2856,3.1819,3.1319,3.222,3.142,3.0679,3.0805,2.9878,2.8787,2.7538,2.6544,2.5868,2.5504,2.5344,2.5318,2.5265,2.4816,2.4251,2.3691,2.3479,2.335,2.3283,2.4257,2.5137,2.5906,2.6871,2.7154,2.6817,2.737,2.6937,1.3898,1.5507,1.7226,1.7885,1.8754,2.0676,2.5539,2.6099,2.5858,2.7301,2.7912,2.839,2.9081,3.1394,3.3346,3.3636,3.5512,3.7351,3.8318,3.8462,3.8606,3.9024,3.854,3.8254,3.8621,3.8065,3.7825,3.807,3.8173,3.8007,3.7772,3.7975,3.7859,3.7484,3.7794,3.773,3.7338,3.8855,3.9142,3.821,3.8186,3.9325,4.127,3.956,3.9564,4.0711,3.9813,3.9544,3.9578,3.7486,3.6032,3.4821,3.3091,3.2424,3.2359,3.1784,3.2084,3.2685,3.2058,3.198,3.2123,3.1914,3.1457,3.1065,3.1457,3.13,3.1065,3.1457,3.1575,3.169,3.2117,3.2811,3.3745,3.5349,3.629,3.672,3.6206,3.6182,3.5707,3.4206,3.3295,3.2779,3.2722,3.175,3.1367,3.243,3.1427,3.0488,3.0611,2.9524,2.7975,2.6028,2.5559,2.5184,2.4719,2.4732,2.4779,2.5022,2.4645,2.4288,2.3923,2.3864,2.4012,2.431,2.5328,2.6243,2.7023,2.7938,2.8047,2.7485,2.8008,2.7375,1.4998,1.5758,1.7062,1.8824,1.9447,2.1217,2.7039,2.7001,2.7167,3.2166,3.1417,3.0239,3.1622,3.1347,3.1512,3.3263,3.5499,3.7194,3.7808,3.7887,3.7887,3.7887,3.7364,3.7342,3.8269,3.6949,3.6518,3.7419,3.6877,3.6455,3.6455,3.705,3.7104,3.6482,3.7378,3.7299,3.6096,3.6863,3.7482,3.7756,3.7901,3.8388,3.9121,3.8616,3.8766,3.9409,3.9409,3.902,3.8236,3.6671,3.4731,3.262,3.2058,3.1759,3.1771,3.1196,3.0986,3.1065,3.164,3.147,3.1091,3.1653,3.1457,3.0986,3.0986,3.0986,3.0973,3.0986,3.0973,3.0843,3.0281,3.1681,3.3421,3.4033,3.5217,3.6069,3.5276,3.5275,3.5,3.3517,3.2551,3.1996,3.1996,3.1712,3.1597,3.1784,3.1597,3.1234,3.0372,2.9247,2.7442,2.4815,2.4708,2.4789,2.4689,2.4367,2.436,2.4922,2.4998,2.5005,2.5005,2.5005,2.5474,2.6497,2.6531,2.7055,2.8075,2.8252,2.8395,2.8511,2.8511,2.7913,1.2814,1.5203,1.7653,1.748,2.0445,2.4307,2.7815,2.7879,2.8494,3.2909,3.2487,3.1521,3.1847,3.271,3.3209,3.2585,3.4322,3.6005,3.6567,3.6632,3.6632,3.6632,3.6488,3.6459,3.6796,3.6035,3.562,3.595,3.5394,3.505,3.505,3.5222,3.5235,3.5063,3.5325,3.5273,3.4907,3.6334,3.6816,3.6317,3.717,3.8216,3.9298,3.9145,3.896,3.8691,3.8691,3.802,3.6789,3.4812,3.3217,3.2032,3.1457,3.1248,3.1222,3.1052,3.1248,3.1614,3.1707,3.1731,3.1614,3.1707,3.1457,3.0986,3.0986,3.0699,3.0477,3.0869,3.0398,2.9836,3.0072,3.0275,3.0778,3.2101,3.2994,3.3607,3.3616,3.368,3.3457,3.2528,3.2231,3.215,3.215,3.1981,3.1883,3.194,3.1582,3.1043,3.0054,2.813,2.6599,2.608,2.5581,2.5032,2.4588,2.4642,2.4629,2.436,2.4771,2.5005,2.5005,2.5653,2.6182,2.6482,2.7081,2.7514,2.7814,2.8648,2.8906,2.8658,2.8837,2.8279,1.4277,1.6481,1.8614,1.9517,2.264,2.6244,2.9217,3.0721,3.2237,3.4691,3.4242,3.3307,3.3307,3.3749,3.3923,3.3429,3.4438,3.5482,3.6031,3.6109,3.5926,3.5482,3.543,3.5338,3.5129,3.4816,3.4816,3.526,3.4737,3.4502,3.4737,3.4528,3.4293,3.4084,3.428,3.4175,3.3731,3.526,3.5811,3.5499,3.6461,3.753,3.8616,3.8362,3.8153,3.7988,3.7426,3.6497,3.5311,3.3463,3.2212,3.147,3.1055,3.0911,3.0986,3.0911,3.1133,3.1496,3.1496,3.1496,3.1496,3.1496,3.1261,3.0986,3.0986,3.0751,3.0542,3.0895,3.049,2.9928,2.9823,2.9536,2.9618,3.0703,3.1414,3.1778,3.1974,3.2319,3.2405,3.1646,3.1853,3.2094,3.2038,3.1996,3.1849,3.1576,3.1135,3.0514,2.9577,2.8066,2.7014,2.6775,2.6105,2.526,2.4246,2.463,2.457,2.3772,2.4743,2.5314,2.5314,2.6323,2.7116,2.7515,2.8176,2.8493,2.8379,2.9081,2.9059,2.8426,2.8726,2.834,1.7605,1.8693,1.9824,2.345,2.5526,2.7598,3.1233,3.4495,3.6828,3.6776,3.6018,3.5365,3.5312,3.4397,3.3992,3.4986,3.5103,3.5234,3.573,3.5796,3.5404,3.4358,3.4241,3.4045,3.3561,3.3509,3.394,3.4986,3.4554,3.4463,3.4946,3.4463,3.394,3.3443,3.3914,3.3692,3.2698,3.3925,3.4689,3.5022,3.5698,3.6465,3.7216,3.6791,3.6851,3.7216,3.5667,3.4681,3.4014,3.2595,3.1603,3.0911,3.0773,3.0849,3.0911,3.0773,3.0849,3.0986,3.0986,3.0986,3.0986,3.0986,3.0986,3.0986,3.0986,3.0947,3.0921,3.096,3.0908,3.0594,2.9549,2.9235,2.9314,2.9784,3.0067,3.031,3.0351,3.1062,3.1496,3.088,3.1379,3.1883,3.1784,3.1799,3.1573,3.094,3.0413,2.9837,2.9037,2.8808,2.8237,2.7004,2.6465,2.5546,2.3985,2.4512,2.4436,2.3441,2.4874,2.5837,2.5892,2.696,2.8015,2.9028,2.9355,2.9404,2.918,2.922,2.8795,2.7892,2.8327,2.8199,1.513,1.7683,2.0642,2.3178,2.7551,3.17,3.348,3.4796,3.5534,3.5051,3.5482,3.5796,3.5378,3.4711,3.4162,3.3979,3.3561,3.33,3.3404,3.343,3.3339,3.3091,3.3064,3.3012,3.2894,3.2881,3.2986,3.3234,3.313,3.2921,3.2594,3.2463,3.2333,3.2215,3.2333,3.2489,3.2685,3.3122,3.3628,3.4156,3.4554,3.5049,3.5765,3.6743,3.7015,3.6574,3.3959,3.3056,3.3269,3.1877,3.1048,3.0773,3.0698,3.0698,3.0773,3.0698,3.0849,3.0986,3.0986,3.0986,3.0986,3.0986,3.0986,3.0986,3.0986,3.0673,3.0411,3.0869,3.0346,2.9588,2.934,2.8935,2.849,2.8164,2.8116,2.8346,2.8795,2.9063,2.9498,3.0418,3.0837,3.1219,3.1727,3.1799,3.1625,3.1114,3.0439,2.9812,2.9493,2.8985,2.8378,2.7616,2.7103,2.6322,2.5108,2.5273,2.519,2.4646,2.5343,2.6014,2.651,2.755,2.824,2.8496,2.7895,2.7583,2.7508,2.7883,2.7718,2.7095,2.8257,2.8171,1.583,1.8163,2.0908,2.5217,2.9093,3.212,3.3281,3.3822,3.3966,3.3639,3.428,3.4724,3.4162,3.3796,3.3483,3.3208,3.2894,3.2685,3.2685,3.2685,3.2594,3.2319,3.228,3.228,3.228,3.228,3.2398,3.2672,3.2685,3.2685,3.2672,3.2411,3.2241,3.2241,3.198,3.1849,3.1875,3.222,3.2796,3.3506,3.3364,3.3492,3.3962,3.568,3.6097,3.5324,3.3424,3.2648,3.2577,3.1468,3.0911,3.0849,3.0773,3.0773,3.0849,3.0773,3.0849,3.0947,3.0673,3.0764,3.0895,3.0346,3.0359,3.0529,3.0255,2.9967,2.9784,3.0085,2.9745,2.9209,2.8922,2.8621,2.8242,2.7667,2.7523,2.759,2.7973,2.8287,2.8789,2.9827,3.045,3.097,3.1539,3.1342,3.0842,3.0174,2.9679,2.936,2.9174,2.8608,2.8086,2.7806,2.7035,2.6083,2.481,2.5025,2.4901,2.4205,2.5189,2.6068,2.6669,2.753,2.8076,2.8304,2.8121,2.7826,2.7494,2.7667,2.7434,2.6901,2.7782,2.7827,1.7036,1.9082,2.1493,2.7396,2.9745,3.0861,3.2003,3.2291,3.2358,3.2254,3.2867,3.3287,3.2777,3.2607,3.2542,3.2542,3.2463,3.2398,3.2398,3.2398,3.2228,3.1744,3.1692,3.1692,3.1692,3.1692,3.1927,3.2502,3.245,3.2659,3.3167,3.2725,3.2437,3.245,3.2006,3.1666,3.1287,3.1561,3.2101,3.286,3.2386,3.2244,3.2619,3.4339,3.4773,3.4041,3.3213,3.2577,3.2015,3.1334,3.0986,3.0898,3.0657,3.0618,3.0755,3.0514,3.055,3.062,3.015,3.0294,3.0529,2.9588,2.9601,2.9902,2.9418,2.9274,2.9274,2.9274,2.9274,2.9144,2.8529,2.8386,2.8242,2.7734,2.7536,2.7523,2.7523,2.7908,2.8532,2.9205,3.0086,3.0896,3.1409,3.0711,2.9873,2.9166,2.8876,2.8633,2.8521,2.8057,2.7733,2.7764,2.6856,2.5739,2.447,2.4805,2.4723,2.3882,2.5154,2.6229,2.6826,2.7255,2.7645,2.8012,2.8435,2.8387,2.7762,2.7717,2.7396,2.6879,2.727,2.7349,1.5369,1.9467,2.3979,2.6959,2.8565,2.9564,3.0226,3.075,3.0993,3.0431,3.1655,3.279,3.2712,3.228,3.1954,3.1954,3.1535,3.1209,3.1209,3.1209,3.1182,3.1104,3.1104,3.1104,3.1104,3.1104,3.1339,3.1914,3.1496,3.1381,3.1785,3.1446,3.1355,3.1682,3.1707,3.2045,3.2463,3.1548,3.1428,3.1977,3.2092,3.2464,3.3101,3.3394,3.3437,3.3283,3.1896,3.1603,3.2015,3.1334,3.0911,3.0722,3.0128,2.9934,2.987,2.9404,2.9366,2.9497,2.9418,2.9444,2.9483,2.9327,2.9327,2.9379,2.9301,2.9274,2.9274,2.9274,2.9274,2.9144,2.8529,2.8386,2.831,2.808,2.7736,2.7523,2.7523,2.759,2.7842,2.8468,2.9656,3.0703,3.1219,3.0155,2.9407,2.9723,2.8677,2.7853,2.7853,2.7781,2.7574,2.7179,2.6995,2.6692,2.616,2.6144,2.6158,2.6213,2.6357,2.6721,2.7458,2.7049,2.6826,2.6916,2.6942,2.6904,2.6781,2.7054,2.6864,2.6308,2.7225,2.7172,1.5959,1.9232,2.2536,2.5443,2.6502,2.7186,2.8381,2.8872,2.895,2.8712,2.9504,3.057,3.1537,3.1261,3.082,3.082,3.0398,3.0032,3.0032,3.0032,3.0032,3.0032,3.0032,3.015,3.0477,3.0516,3.0677,3.1174,3.0979,3.1007,3.1319,3.128,3.1189,3.106,3.1289,3.1169,3.079,3.0607,3.0477,3.0398,3.0818,3.0833,3.0539,3.0891,3.1428,3.2081,3.1384,3.0863,3.0498,3.0165,3.0032,2.9861,2.96,2.9496,2.947,2.9236,2.9216,2.9235,2.8895,2.9,2.917,2.8516,2.8516,2.866,2.802,2.7824,2.7745,2.7432,2.734,2.7353,2.7406,2.7432,2.7433,2.7315,2.6974,2.6541,2.6245,2.6622,2.713,2.7471,2.8552,2.9291,2.9071,2.9007,2.8902,2.8691,2.8141,2.7723,2.7817,2.7525,2.731,2.7225,2.687,2.6433,2.6044,2.5586,2.5356,2.5438,2.5423,2.5673,2.6322,2.5873,2.5583,2.5583,2.5983,2.613,2.613,2.6242,2.6087,2.5777,2.6112,2.5972,1.6107,1.8267,2.0245,2.3166,2.4131,2.4815,2.6408,2.698,2.7188,2.7323,2.7791,2.8556,2.9928,2.9969,2.9915,2.9915,2.9562,2.9274,2.9203,2.9274,2.9274,2.9203,2.9274,2.9444,2.9876,2.9684,2.9683,3.0188,2.991,2.9908,3.0306,3.0555,3.0533,3.0062,3.0355,3.0108,2.9258,2.9688,2.9404,2.8479,2.9132,2.8931,2.7834,2.8425,2.9088,2.9896,3.0435,3.0197,2.9274,2.9274,2.9274,2.9261,2.9104,2.9052,2.9039,2.8882,2.8739,2.8556,2.8098,2.8137,2.8255,2.7379,2.7379,2.7575,2.6713,2.6452,2.6373,2.5942,2.5824,2.5916,2.6347,2.6452,2.6516,2.6579,2.6117,2.5637,2.537,2.5794,2.6411,2.6965,2.7731,2.8125,2.7625,2.8076,2.8301,2.7616,2.7291,2.7121,2.727,2.6987,2.6922,2.713,2.6788,2.6361,2.5871,2.5231,2.4872,2.4721,2.4706,2.4908,2.5398,2.4668,2.4339,2.4626,2.4628,2.486,2.5359,2.5213,2.5051,2.4942,2.4833,2.4545,1.4463,1.6138,1.7874,2.0028,2.1487,2.2718,2.4039,2.5224,2.6077,2.6542,2.7186,2.7681,2.773,2.8596,2.9327,2.9327,2.9301,2.9203,2.9035,2.919,2.9203,2.9035,2.919,2.9287,2.9327,2.8473,2.8163,2.8775,2.7876,2.7404,2.7799,2.8303,2.845,2.8255,2.8834,2.9135,2.9073,2.9227,2.8182,2.6193,2.7303,2.7253,2.6213,2.6721,2.6646,2.6304,2.8443,2.9371,2.9274,2.9274,2.9274,2.9222,2.8647,2.8425,2.836,2.7824,2.7275,2.6804,2.6778,2.6425,2.5994,2.5929,2.5929,2.5942,2.589,2.5876,2.5863,2.5837,2.5824,2.5837,2.5863,2.5876,2.5926,2.6224,2.5725,2.5281,2.5764,2.5497,2.5678,2.7314,2.7668,2.7838,2.8111,2.7696,2.7324,2.7157,2.612,2.5397,2.5495,2.5974,2.6404,2.651,2.6893,2.6945,2.6505,2.6162,2.5823,2.5412,2.5217,2.5231,2.5398,2.3814,2.3437,2.4513,2.2557,2.2428,2.4219,2.3942,2.3802,2.3802,2.3647,2.3163,1.3695,1.4812,1.6042,1.8267,1.9367,2.0264,2.1397,2.2559,2.349,2.3991,2.4862,2.5563,2.5889,2.6878,2.7616,2.7616,2.7326,2.7087,2.7005,2.6851,2.671,2.6627,2.6698,2.6763,2.6881,2.6773,2.6918,2.7406,2.7155,2.6936,2.6896,2.7463,2.7389,2.6633,2.7223,2.7447,2.7114,2.7145,2.6561,2.5481,2.5884,2.5697,2.4999,2.5186,2.514,2.4978,2.6123,2.6789,2.7053,2.7053,2.7053,2.7079,2.7223,2.7053,2.6752,2.6922,2.6621,2.6125,2.6125,2.5994,2.5824,2.5824,2.5824,2.5759,2.538,2.5201,2.5062,2.4758,2.4666,2.4697,2.5184,2.5003,2.4681,2.4179,2.3766,2.3654,2.4215,2.4709,2.5101,2.5342,2.5925,2.6273,2.6075,2.6384,2.6517,2.6078,2.5605,2.5508,2.6068,2.6283,2.6616,2.7152,2.6893,2.6563,2.6404,2.5398,2.4738,2.4567,2.3809,2.3482,2.3917,2.2403,2.1937,2.267,2.1661,2.1895,2.3365,2.3058,2.2764,2.2537,2.2335,2.1843,1.2534,1.3193,1.4028,1.5944,1.6748,1.7434,1.8967,1.9891,2.0809,2.1879,2.2685,2.334,2.3757,2.4555,2.5479,2.634,2.6012,2.5709,2.5581,2.5417,2.5192,2.4801,2.5085,2.5253,2.4991,2.5083,2.525,2.5555,2.5552,2.5351,2.496,2.5819,2.606,2.5518,2.6041,2.6117,2.566,2.562,2.5241,2.4377,2.4396,2.4042,2.3349,2.3466,2.3433,2.3325,2.3829,2.4594,2.5573,2.5762,2.5824,2.5863,2.6242,2.6151,2.5876,2.6242,2.602,2.5537,2.5537,2.5406,2.5249,2.5249,2.5118,2.487,2.4432,2.4255,2.4105,2.38,2.3852,2.4086,2.4583,2.43,2.3638,2.2357,2.2384,2.2726,2.2973,2.3796,2.4442,2.438,2.4956,2.5258,2.4892,2.5314,2.5618,2.5245,2.5034,2.5077,2.5646,2.6198,2.6705,2.6905,2.6745,2.6434,2.5855,2.4731,2.3956,2.3721,2.2845,2.2472,2.2849,2.1344,2.0874,2.1635,2.1049,2.1335,2.2544,2.2325,2.204,2.1684,2.1369,2.0927,0.0,0.0,0.0,1.3016,1.3499,1.4272,1.6634,1.7424,1.8278,2.0435,2.0918,2.1083,2.1487,2.1885,2.2972,2.5338,2.5426,2.5157,2.4981,2.5098,2.4813,2.3746,2.4554,2.4871,2.3955,2.3406,2.3114,2.3125,2.3102,2.265,2.1807,2.3275,2.4363,2.4791,2.5306,2.5318,2.478,2.4858,2.4167,2.2627,2.2728,2.2209,2.1198,2.1616,2.1568,2.1081,2.1616,2.3007,2.5027,2.5482,2.5683,2.5683,2.5722,2.5722,2.5772,2.5785,2.5432,2.4996,2.4996,2.457,2.4086,2.4086,2.3681,2.3141,2.3028,2.3085,2.3141,2.3028,2.3501,2.4002,2.4002,2.3649,2.2896,2.1046,2.1795,2.2795,2.228,2.2841,2.3722,2.4771,2.5007,2.4948,2.4778,2.4765,2.4751,2.4778,2.4274,2.3949,2.4138,2.5666,2.6453,2.5729,2.6567,2.6539,2.4904,2.4314,2.3721,2.2969,2.2493,2.2239,2.2276,2.0673,2.0299,2.1437,2.0502,2.0545,2.1716,2.1856,2.1684,2.125,2.0866,2.0316,0.9699,0.0,0.0,0.0,0.0,0.0,1.3995,1.529,1.6719,1.8059,1.9372,2.0351,2.0621,2.1407,2.2092,2.2343,2.2765,2.3143,2.3416,2.3024,2.2391,2.1815,2.2288,2.231,2.1452,2.1489,2.1715,2.1996,2.1714,2.1471,2.1331,2.1489,2.1775,2.221,2.266,2.2756,2.2435,2.2432,2.215,2.1647,2.1626,2.129,2.0618,2.073,2.0526,2.0122,2.0569,2.116,2.1787,2.2645,2.3166,2.3539,2.4359,2.4619,2.4635,2.5053,2.4844,2.4347,2.4347,2.3955,2.3472,2.3472,2.3024,2.2499,2.2444,2.2321,2.2253,2.2376,2.2339,2.2116,2.1704,2.1519,2.1432,2.1087,2.2128,2.314,2.324,2.3583,2.4013,2.4288,2.4669,2.4835,2.439,2.4664,2.4821,2.465,2.4421,2.4682,2.5588,2.567,2.5812,2.6197,2.5439,2.4709,2.4256,2.3501,2.2969,2.28,2.1956,2.1584,2.1812,2.0109,1.9571,2.0402,1.9936,2.0344,2.1559,2.1881,2.1751,2.1144,2.0079,1.9275,0.8935,0.9493,1.0027,1.0035,0.0,0.0,1.2608,1.3738,1.5023,1.6794,1.7995,1.8837,1.9188,1.9821,2.0331,2.0205,2.038,2.0808,2.1768,2.1333,2.0679,2.0001,2.0568,2.0687,1.9931,2.0097,2.0398,2.0866,2.0802,2.0777,2.0834,2.0349,2.0165,2.0396,2.0813,2.0852,2.0608,2.0617,2.0643,2.0459,2.0579,2.04,2.0113,2.0113,1.9838,1.9356,1.9633,1.9794,1.9818,2.0286,2.118,2.2385,2.3238,2.3644,2.3832,2.3909,2.3846,2.3707,2.3472,2.3158,2.2884,2.2815,2.2369,2.1794,2.1686,2.1632,2.1673,2.1727,2.1745,2.161,2.1112,2.1156,2.1292,2.1207,2.2098,2.2999,2.3041,2.3171,2.3418,2.3839,2.3934,2.3897,2.3936,2.419,2.4496,2.4483,2.4509,2.47,2.5307,2.5412,2.5453,2.5512,2.4879,2.4209,2.3682,2.3094,2.2678,2.2555,2.1762,2.1226,2.1263,1.9817,1.912,1.9392,1.9524,2.037,2.1933,2.1956,2.1655,2.1058,2.011,1.9167,0.8425,0.856,0.8668,0.8737,0.8966,0.0,1.1694,1.238,1.3312,1.5856,1.6532,1.6755,1.7104,1.752,1.7959,1.8364,1.8161,1.8467,2.0002,2.0052,1.9523,1.8478,1.9233,1.9619,1.8909,1.8934,1.9143,1.9596,2.0038,2.0182,1.9971,1.9394,1.899,1.8859,1.9328,1.9385,1.9086,1.919,1.9342,1.9419,1.955,1.9595,1.9608,1.9538,1.9252,1.8804,1.8748,1.8748,1.8759,1.8532,1.9738,2.1793,2.2127,2.2625,2.309,2.2571,2.261,2.2942,2.2476,2.2281,2.22,2.2053,2.1557,2.1002,2.0711,2.083,2.0989,2.0923,2.1347,2.1738,2.1459,2.1628,2.1772,2.1301,2.1955,2.2578,2.2126,2.2074,2.2299,2.307,2.2714,2.2567,2.3424,2.3572,2.3745,2.4349,2.4469,2.4394,2.4066,2.4837,2.5097,2.4187,2.4391,2.4243,2.3177,2.2775,2.247,2.2274,2.1559,2.0892,2.0565,1.9447,1.8655,1.8358,1.9145,2.0428,2.2261,2.1977,2.1571,2.1117,2.0526,1.9645,0.8104,0.8076,0.8342,0.7954,0.8388,0.0,0.9333,1.0327,1.1447,1.226,1.3396,1.4208,1.4081,1.469,1.5159,1.5051,1.5642,1.6838,1.8966,1.888,1.8373,1.7874,1.829,1.827,1.7506,1.7396,1.7626,1.8075,1.8378,1.8182,1.7348,1.7344,1.7179,1.6901,1.7279,1.759,1.7821,1.7843,1.8249,1.901,1.894,1.8944,1.9046,1.8574,1.8305,1.8233,1.7757,1.7701,1.7935,1.8043,1.9125,2.0684,2.0476,2.0863,2.1497,2.1398,2.1405,2.1562,2.1784,2.1466,2.099,2.0832,2.0241,1.9543,1.9202,1.9202,1.9255,1.9608,2.0218,2.0682,2.0489,2.0832,2.1309,2.1779,2.2387,2.2638,2.1923,2.1677,2.1305,2.0422,2.0966,2.1869,2.2674,2.2814,2.3023,2.3774,2.423,2.4292,2.3659,2.3642,2.3605,2.3432,2.2827,2.2441,2.2542,2.1983,2.162,2.1608,2.0399,1.9517,1.9159,1.8124,1.7503,1.7441,1.8671,1.9552,2.0177,2.1895,2.2419,2.1716,2.0716,1.9521,0.8169,0.7896,0.8107,0.76,0.8042,0.0,0.0,0.9976,1.1029,1.1952,1.2554,1.2884,1.28,1.3151,1.3355,1.2997,1.4253,1.5416,1.5783,1.6598,1.7026,1.6748,1.6787,1.6678,1.6348,1.6243,1.6402,1.7121,1.712,1.6952,1.6612,1.6319,1.5962,1.5432,1.5606,1.5626,1.542,1.5684,1.6206,1.6983,1.7411,1.7857,1.815,1.8058,1.8047,1.8084,1.7788,1.7879,1.8294,1.7957,1.8578,1.9644,1.9399,1.9913,2.071,2.0431,2.0446,2.0699,2.0415,2.0155,1.9814,1.9443,1.909,1.8738,1.8459,1.8555,1.8821,1.9488,1.9952,2.0295,2.0845,2.1188,2.1575,2.2235,2.223,2.1825,2.0979,2.0379,1.9703,1.872,1.9123,2.0062,2.1481,2.1843,2.2221,2.3136,2.347,2.344,2.2929,2.2669,2.2506,2.24,2.177,2.1314,2.1153,2.0831,2.0499,2.019,1.946,1.8735,1.8097,1.7312,1.6922,1.7002,1.8647,1.9676,2.0061,2.1817,2.2137,2.1018,2.0511,1.9574,0.846,0.7903,0.785,0.7439,0.775,0.836,0.0,0.0,0.0,1.1704,1.1751,1.1549,1.1565,1.1588,1.146,1.1195,1.2723,1.3571,1.2379,1.3984,1.5239,1.5166,1.5264,1.5223,1.513,1.4961,1.5196,1.612,1.5847,1.5802,1.6174,1.5593,1.5005,1.4346,1.4313,1.3976,1.3348,1.3869,1.4433,1.5038,1.5974,1.6796,1.7392,1.7699,1.7884,1.8084,1.7975,1.8202,1.86,1.7913,1.8047,1.8669,1.8533,1.91,1.9885,1.9392,1.9502,1.9782,1.9078,1.8881,1.8762,1.8298,1.8124,1.8081,1.7984,1.8309,1.8898,1.9579,1.994,2.0396,2.1396,2.1684,2.1874,2.2267,2.1608,2.0594,1.9556,1.8805,1.8132,1.7368,1.7552,1.8392,2.0312,2.0838,2.126,2.2206,2.2431,2.231,2.1792,2.1681,2.1581,2.133,2.1138,2.0734,2.003,1.9971,1.9691,1.9,1.8529,1.7966,1.7327,1.6684,1.6477,1.6714,1.8577,1.9737,2.0225,2.1402,2.1358,2.0232,2.0258,1.9587,0.9041,0.8007,0.7729,0.7263,0.7443,0.7639,0.725,0.0,0.8445,0.8265,0.0,0.8997,0.8738,0.0,0.0,0.8785,0.9794,1.0504,1.0427,1.1486,1.2493,1.3049,1.4192,1.4526,1.3468,1.3305,1.3636,1.4582,1.4285,1.4259,1.4772,1.4567,1.4186,1.3717,1.3551,1.342,1.341,1.382,1.4376,1.5099,1.5589,1.6369,1.7369,1.6899,1.7221,1.8084,1.7545,1.7479,1.7779,1.7412,1.749,1.7845,1.779,1.8035,1.8354,1.8297,1.8285,1.8328,1.8356,1.8321,1.8093,1.7655,1.7446,1.7357,1.7379,1.803,1.8786,1.8905,1.9798,2.0746,2.1042,2.1307,2.1459,2.1143,2.038,1.9248,1.7511,1.7516,1.7382,1.5822,1.676,1.8189,1.9506,1.9776,1.9989,2.0511,2.1197,2.1201,2.0032,2.0545,2.0901,2.0578,2.0903,2.0893,2.0122,2.0146,1.9796,1.8943,1.7448,1.6566,1.6597,1.6192,1.6124,1.6509,1.78,1.8762,1.9356,1.9974,2.0265,2.0274,2.0281,1.9246,0.8393,0.7977,0.8132,0.7516,0.7829,0.8049,0.7289,0.7359,0.7661,0.782,0.0,0.0,0.0,0.0,0.0,0.0,0.9072,0.9922,0.9009,1.0202,1.1344,1.187,1.2165,1.2376,1.2538,1.3305,1.3984,1.4345,1.4219,1.421,1.4399,1.4162,1.3726,1.3144,1.303,1.2859,1.2525,1.2979,1.3521,1.4238,1.499,1.5797,1.6531,1.6554,1.6791,1.7203,1.6605,1.6664,1.7198,1.6689,1.67,1.707,1.707,1.7508,1.8084,1.8084,1.8084,1.8084,1.7975,1.7607,1.71,1.6278,1.6085,1.6256,1.6765,1.7263,1.7855,1.8596,1.9291,1.9864,1.9956,2.0184,2.0278,1.9682,1.9142,1.8377,1.7114,1.6958,1.6794,1.6108,1.6644,1.7541,1.8394,1.8826,1.927,1.9699,1.9937,1.9966,1.9614,1.975,1.994,2.0045,1.9937,1.9624,1.9104,1.8792,1.8261,1.7323,1.5634,1.465,1.4582,1.4601,1.5031,1.5864,1.7346,1.8459,1.9093,1.9991,2.0271,1.9899,1.9899,1.8952,0.8511,0.8272,0.8484,0.7661,0.775,0.7927,0.7224,0.7022,0.7098,0.743,0.7179,0.0,0.0,0.0,0.7222,0.6878,0.0,0.8851,0.7638,0.8697,0.982,1.0417,1.024,1.049,1.1464,1.263,1.3398,1.3553,1.3725,1.3827,1.4055,1.3717,1.3252,1.2738,1.2572,1.235,1.2067,1.2579,1.316,1.381,1.4712,1.5395,1.5923,1.6267,1.6497,1.6573,1.6058,1.6155,1.6528,1.6158,1.6052,1.6233,1.635,1.6824,1.7512,1.7512,1.7512,1.7458,1.7189,1.6688,1.602,1.5363,1.5289,1.5612,1.6177,1.6539,1.692,1.778,1.8282,1.8612,1.8734,1.8771,1.8653,1.8313,1.7751,1.7224,1.6757,1.6655,1.657,1.641,1.6806,1.7266,1.7448,1.8111,1.8679,1.8999,1.8946,1.904,1.946,1.9344,1.9396,1.9695,1.9413,1.8905,1.8309,1.8011,1.732,1.5999,1.4551,1.3597,1.3312,1.3777,1.4542,1.5623,1.7379,1.8596,1.9291,2.0346,2.051,1.9708,1.9708,1.878,1.0212,0.9249,0.8672,0.7341,0.678,0.6544,0.6538,0.6496,0.6379,0.6278,0.6381,0.6517,0.646,0.6454,0.6448,0.6402,0.6428,0.0,0.0,0.6537,0.7224,0.8257,0.8817,0.9427,1.0079,1.0432,1.0942,1.1736,1.2018,1.2543,1.3511,1.294,1.2636,1.261,1.2052,1.2036,1.257,1.3112,1.3705,1.4373,1.4846,1.536,1.5911,1.5923,1.6187,1.6573,1.6373,1.6069,1.5723,1.5836,1.5672,1.5392,1.5774,1.595,1.5972,1.5972,1.5972,1.591,1.5601,1.5279,1.507,1.5299,1.5588,1.5793,1.5804,1.6069,1.6294,1.6063,1.6485,1.7102,1.7533,1.7012,1.657,1.7245,1.6282,1.5351,1.6012,1.6662,1.6915,1.6146,1.7089,1.7739,1.7036,1.7591,1.8139,1.8139,1.8398,1.8774,1.9186,1.9303,1.9473,1.9617,1.9941,1.9595,1.8247,1.8596,1.7864,1.5546,1.4787,1.4127,1.3502,1.4382,1.5303,1.626,1.8081,1.9291,1.9991,2.0772,2.0772,1.9991,1.9991,1.8756,1.0524,1.0682,1.0609,0.856,0.838,0.8194,0.6282,0.5708,0.5661,0.5828,0.573,0.5779,0.6294,0.6181,0.6002,0.6002,0.6066,0.6102,0.0,0.6533,0.6737,0.6401,0.7649,0.8531,0.8641,1.0285,1.1379,1.141,1.2244,1.2958,1.3476,1.2857,1.2444,1.2444,1.2016,1.1773,1.1859,1.2433,1.2909,1.3198,1.4165,1.474,1.4918,1.5233,1.5371,1.5294,1.4553,1.4539,1.5006,1.4328,1.4103,1.4297,1.4683,1.4485,1.4128,1.5423,1.5917,1.5822,1.5203,1.4946,1.4792,1.4328,1.438,1.4688,1.5049,1.5284,1.556,1.584,1.6058,1.6204,1.6009,1.5813,1.5669,1.5547,1.5509,1.5511,1.5498,1.6213,1.6515,1.5659,1.6179,1.6609,1.6181,1.6472,1.7135,1.8147,1.7788,1.7776,1.8655,1.8857,1.9016,1.9198,1.9226,1.8994,1.8452,1.7567,1.6368,1.474,1.3631,1.2992,1.2818,1.3614,1.4907,1.6838,1.7909,1.9258,2.0775,2.0975,2.105,2.0975,2.0191,1.8785,1.139,1.1663,1.1688,0.9703,0.954,0.9206,0.6905,0.6177,0.6064,0.6325,0.5696,0.5593,0.7052,0.6366,0.569,0.604,0.5853,0.5665,0.0,0.5972,0.5933,0.5309,0.656,0.7616,0.7916,0.9322,1.0573,1.1412,1.1894,1.2477,1.3299,1.2582,1.2201,1.2201,1.1833,1.167,1.176,1.2129,1.2511,1.2909,1.3647,1.4093,1.414,1.4547,1.4547,1.4222,1.3705,1.3679,1.3957,1.3252,1.3051,1.3302,1.3442,1.3263,1.3182,1.457,1.5103,1.501,1.4563,1.4359,1.4306,1.3868,1.3868,1.4073,1.4419,1.4612,1.4806,1.5382,1.5293,1.5114,1.5196,1.4874,1.4541,1.4399,1.4594,1.4821,1.4914,1.5511,1.5859,1.5171,1.5288,1.5479,1.5339,1.5144,1.5621,1.7467,1.7179,1.7112,1.8213,1.8363,1.8389,1.8606,1.836,1.7908,1.7417,1.6237,1.5115,1.4013,1.2764,1.2257,1.2714,1.3246,1.4959,1.7875,1.8008,1.9266,2.1842,2.0836,2.0533,2.0873,1.979,1.8387]}]]